[[{"header":{"parameterUnit":"m.s-1","parameterCategory":1,"la1":30.6,"la2":29.2853,"lo1":-89.7004,"lo2":-87.6739,"dy":0.0162,"dx":0.0183,"nx":112,"ny":82,"refTime":"2023-07-22T06:00:00:Z","depth":0,"parameterNumber":2,"parameterNumberName":"U-component_of_WINDS"},"data":[0.0,0.0,0.0,0.0,0.0,0.0,0.0,0.0,0.0,0.0,0.0,0.0,0.0,0.0,0.0,0.0,0.0,0.0,0.0,0.0,0.0,0.0,0.0,0.0,0.0,0.0,0.0,0.0,0.0,0.0,0.0,0.0,0.0,0.0,0.0,0.0,0.0,0.0,0.0,0.0,0.0,0.0,0.0,0.0,0.0,0.0,0.0,0.0,0.0,0.0,0.0,0.0,0.0,0.0,0.0,0.0,0.0,0.0,0.0,0.0,0.0,0.0,0.0,0.0,0.0,0.0,0.0,0.0,0.0,0.0,0.0,0.0,0.0,0.0,0.0,0.0,0.0,0.0,0.0,0.0,0.0,0.0,0.0,0.0,0.0,0.0,0.0,0.0,0.0,0.0,0.016,-0.0023,-0.026,-0.0512,-0.0754,-0.116,-0.1788,-0.2736,0.0,0.0,0.0,0.0,0.0,0.0,0.0,0.0,0.0,0.0,0.0,0.0,0.0,0.0,0.0,0.0,0.0,0.0,0.0,0.0,0.0,0.0,0.0,0.0,0.0,0.0,0.0,0.0,0.0,0.0,0.0,0.0,0.0,0.0,0.0,0.0,0.0,0.0,0.0,0.0,0.0,0.0,0.0,0.0,0.0,0.0,0.0,0.0,0.0,0.0,0.0,0.0,0.0,0.0,0.0,0.0,0.0,0.0,0.0,0.0,0.0,0.0,0.0,0.0,0.0,0.0,0.0,0.0,0.0,0.0,0.0,0.0,0.0,0.0,0.0,0.0,0.0,0.0,0.0,0.0,0.0,0.0,0.0,0.0,0.0,0.0,0.0,0.0,0.0,0.0,0.0,0.0,0.0,0.0,0.0,0.0,0.0,0.0,0.0,0.0,0.0,0.0,0.0,0.0,0.0223,-0.0124,-0.0299,-0.0451,-0.0605,-0.0806,-0.146,-0.2711,0.0,0.0,0.0,0.0,0.0,0.0,0.0,0.0,0.0,0.0,0.0,0.0,0.0,0.0,0.0,0.0,0.0,0.0,0.0,0.0,0.0,0.0,0.0,0.0,0.0,0.0,0.0,0.0,0.0,0.0,0.0,0.0,0.0,0.0,0.0,0.0,0.0,0.0,0.0,0.0,0.0,0.0,0.0,0.0,0.0,0.0,0.0,0.0,0.0,0.0,0.0,0.0,0.0,0.0,0.0,0.0,0.0,0.0,0.0,0.0,0.0,0.0,0.0,0.0,0.0,0.0,0.0,0.0,0.0,0.0,0.0,0.0,0.0,0.0,0.0,0.0,0.0,0.0,0.0,0.0,0.0,0.0,0.0,0.0,0.0,0.0,0.0,0.0,0.0,0.0,0.0,0.0,0.0,0.0,0.0,0.0,0.0,0.0,0.0,0.0,0.0,0.0,0.0,0.0648,0.0203,0.0285,-0.013,-0.0471,-0.0641,-0.0776,-0.1415,-0.277,-0.3164,0.0,0.0,0.0,0.0,0.0,0.0,0.0,0.0,0.0,0.0,0.0,0.0,0.0,0.0,0.0,0.0,0.0,0.0,0.0,0.0,0.0,0.0,0.0,0.0,0.0,0.0,0.0,0.0,0.0,0.0,0.0,0.0,0.0,0.0,0.0,0.0,0.0,0.0,0.0,0.0,0.0,0.0,0.0,0.0,0.0,0.0,0.0,0.0,0.0,0.0,0.0,0.0,0.0,0.0,0.0,0.0,0.0,0.0,0.0,0.0,0.0,0.0,0.0,0.0,0.0,0.0,0.0,0.0,0.0,0.0,0.0,0.0,0.0,0.0,0.0,0.0,0.0,0.0,0.0,0.0,0.0,0.0,0.0,0.0,0.0,0.0,0.0,0.0,0.0,0.0,0.0,0.0,0.0,0.0,0.0,0.0,0.0,0.0,0.0,0.0,0.0,0.0,0.0801,0.0601,0.0779,0.0081,-0.0463,-0.0615,-0.0785,-0.1484,-0.2847,-0.2941,0.0,0.0,0.0,0.0,0.0,0.0,0.0,0.0,0.0,0.0,0.0,0.0,0.0,0.0,0.0,0.0,0.0,0.0,0.0,0.0,0.0,0.0,0.0,0.0,0.0,0.0,0.0,0.0,0.0,0.0,0.0,0.0,0.0,0.0,0.0,0.0,0.0,0.0,0.0,0.0,0.0,0.0,0.0,0.0,0.0,0.0,0.0,0.0,0.0,0.0,0.0,0.0,0.0,0.0,0.0,0.0,0.0,0.0,0.0,0.0,0.0,0.0,0.0,0.0,0.0,0.0,0.0,0.0,0.0,0.0,0.0,0.0,0.0,0.0,0.0,0.0,0.0,0.0,0.0,0.0,0.0,0.0,0.0,0.0,0.0,0.0,0.0,0.0,0.0,0.0,0.0,0.0,0.0,0.0,0.0,0.0,0.0,0.0,0.0,0.0,0.0,0.0,0.1857,0.1803,0.1141,0.0195,-0.0419,-0.0421,-0.0729,-0.1539,-0.298,-0.3086,0.0,0.0,0.0,0.0,0.0,0.0,0.0,0.0,0.0,0.0,0.0,0.0,0.0,0.0,0.0,0.0,0.0,0.0,0.0,0.0,0.0,0.0,0.0,0.0,0.0,0.0,0.0,0.0,0.0,0.0,0.0,0.0,0.0,0.0,0.0,0.0,0.0,0.0,0.0,0.0,0.0,0.0,0.0,0.0,0.0,0.0,0.0,0.0,0.0,0.0,0.0,0.0,0.0,0.0,0.0,0.0,0.0,0.0,0.0,0.0,0.0,0.0,0.0,0.0,0.0,0.0,0.0,0.0,0.0,0.0,0.0,0.0,0.0,0.0,0.0,0.0,0.0,0.0,0.0,0.0,0.0,0.0,0.0,0.0,0.0,0.0,0.0,0.0,0.0,0.0,0.0,0.0,0.0,0.0,0.0,0.0,0.0,0.0,0.0,0.0,0.0,0.0,0.2348,0.1956,0.1679,0.0728,-0.0028,-0.0364,-0.0701,-0.1372,-0.2458,0.0,0.0,0.0,0.0,0.0,0.0,0.0,0.0,0.0,0.0,0.0,0.0,0.0,0.0,0.0,0.0,0.0,0.0,0.0,0.0,0.0,0.0,0.0,0.0,0.0,0.0,0.0,0.0,0.0,0.0,0.0,0.0,0.0,0.0,0.0,0.0,0.0,0.0,0.0,0.0,0.0,0.0,0.0,0.0,0.0,0.0,0.0,0.0,0.0,0.0,0.0,0.0,0.0,0.0,0.0,0.0,0.0,0.0,0.0,0.0,0.0,0.0,0.0,0.0,0.0,0.0,0.0,0.0,0.0,0.0,0.0,0.0,0.0,0.0,0.0,0.0,0.0,0.0,0.0,0.0,0.0,0.0,0.0,0.0,0.0,0.0,0.0,0.0,0.0,0.0,0.0,0.0,0.0,0.0,0.0,0.0,0.0,0.0,0.0,0.0,0.0,0.0,0.3327,0.2545,0.193,0.204,0.098,0.0084,-0.0364,-0.0757,-0.1345,-0.2237,0.0,0.0,0.0,0.0,0.0,0.0,0.0,0.0,0.0,0.0,0.0,0.0,0.0,0.0,0.0,0.0,0.0,0.0,0.0,0.0,0.0,0.0,0.0,0.0,0.0,0.0,0.0,0.0,0.0,0.0,0.0,0.0,0.0,0.0,0.0,0.0,0.0,0.0,0.0,0.0,0.0,0.0,0.0,0.0,0.0,0.0,0.0,0.0,0.0,0.0,0.0,0.0,0.0,0.0,0.0,0.0,0.0,0.0,0.0,0.0,0.0,0.0,0.0,0.0,0.0,0.0,0.0,0.0,0.0,0.0,0.0,0.0,0.0,0.0,0.0,0.0,0.0,0.0,0.0,0.0,0.0,0.0,0.0,0.0,0.0,0.0,0.0,0.0,0.0,0.0,0.0,0.0,0.0,0.0,0.0,0.0,0.0,0.0,0.0,0.0,0.0,0.0,0.3544,0.2458,0.176,0.2148,0.0895,-0.0112,-0.0364,-0.0842,-0.1484,0.0,0.0,0.0,0.0,0.0,0.0,0.0,0.0,0.0,0.0,0.0,0.0,0.0,0.0,0.0,0.0,0.0,0.0,0.0,0.0,0.0,0.0,0.0,0.0,0.0,0.0,0.0,0.0,0.0,0.0,0.0,0.0,0.0,0.0,0.0,0.0,0.0,0.0,0.0,0.0,0.0,0.0,0.0,0.0,0.0,0.0,0.0,0.0,0.0,0.0,0.0,0.0,0.0,0.0,0.0,0.0,0.0,0.0,0.0,0.0,0.0,0.0,0.0,0.0,0.0,0.0,0.0,0.0,0.0,0.0,0.0,0.0,0.0,0.0,0.0,0.0,0.0,0.0,0.0,0.0,0.0,0.0,0.0,0.0,0.0,0.0,0.0,0.0,0.0,0.0,0.0,0.0,0.0,0.0,0.0,0.0,0.0,0.0,0.0,0.0,0.0,0.0,0.0,0.4156,0.3436,0.271,0.2259,0.1258,0.0364,-0.0336,-0.0842,-0.1373,-0.1958,0.0,0.0,0.0,0.0,0.0,0.0,0.0,0.0,0.0,0.0,0.0,0.0,0.0,0.0,0.0,0.0,0.0,0.0,0.0,0.0,0.0,0.0,0.0,0.0,0.0,0.0,0.0,0.0,0.0,0.0,0.0,0.0,0.0,0.0,0.0,0.0,0.0,0.0,0.0,0.0,0.0,0.0,0.0,0.0,0.0,0.0,0.0,0.0,0.0,0.0,0.0,0.0,0.0,0.0,0.0,0.0,0.0,0.0,0.0,0.0,0.0,0.0,0.0,0.0,0.0,0.0,0.0,0.0,0.0,0.0,0.0,0.0,0.0,0.0,0.0,0.0,0.0,0.0,0.0,0.0,0.0,0.0,0.0,0.0,0.0,0.0,0.0,0.0,0.0,0.0,0.0,0.0,0.0,0.0,0.0,0.0,0.0,0.0,0.0,0.0,0.0,0.0,0.4098,0.3602,0.2877,0.2038,0.1426,0.0672,-0.0252,-0.0757,-0.1233,-0.1762,0.0,0.0,0.0,0.0,0.0,0.0,0.0,0.0,0.0,0.0,0.0,0.0,0.0,0.0,0.0,0.0,0.0,0.0,0.0,0.0,0.0,0.0,0.0,0.0,0.0,0.0,0.0,0.0,0.0,0.0,0.0,0.0,0.0,0.0,0.0,0.0,0.0,0.0,0.0,0.0,0.0,0.0,0.0,0.0,0.0,0.0,0.0,0.0,0.0,0.0,0.0,0.0,0.0,0.0,0.0,0.0,0.0,0.0,0.0,0.0,0.0,0.0,0.0,0.0,0.0,0.0,0.0,0.0,0.0,0.0,0.0,0.0,0.0,0.0,0.0,0.0,0.0,0.0,0.0,0.0,0.0,0.0,0.0,0.0,0.0,0.0,0.0,0.0,0.0,0.0,0.0,0.0,0.0,0.0,0.0,0.0,0.0,0.0,0.0,0.0,0.0,0.0,0.3763,0.3239,0.2597,0.1789,0.1398,0.0839,-0.0112,-0.0617,-0.1149,-0.1762,0.0,0.0,0.0,0.0,0.0,0.0,0.0,0.0,0.0,0.0,0.0,0.0,0.0,0.0,0.0,0.0,0.0,0.0,0.0,0.0,0.0,0.0,0.0,0.0,0.0,0.0,0.0,0.0,0.0,0.0,0.0,0.0,0.0,0.0,0.0,0.0,0.0,0.0,0.0,0.0,0.0,0.0,0.0,0.0,0.0,0.0,0.0,0.0,0.0,0.0,0.0,0.0,0.0,0.0,0.0,0.0,0.0,0.0,0.0,0.0,0.2303,0.1591,0.0,0.0,0.0,0.0,0.0,0.0,0.0,0.0,0.0,0.0,0.0,0.0,0.0,0.0,0.0,0.0,0.0,0.0,0.0,0.0,0.0,0.0,0.0,0.0,0.0,0.0,0.0,0.0,0.0,0.0,0.0,0.0,0.0,0.0,0.0,0.0,0.0,0.0,0.0,0.0,0.4622,0.3624,0.2794,0.2486,0.1343,0.0364,-0.0168,-0.0617,-0.1149,-0.1762,-0.224,0.0,0.0,0.0,0.0,0.0,0.0,0.0,0.0,0.0,0.0,0.0,0.0,0.0,0.0,0.0,0.0,0.0,0.0,0.0,0.0,0.0,0.0,0.0,0.0,0.0,0.0,0.0,0.0,0.0,0.0,0.0,0.0,0.0,0.0,0.0,0.0,0.0,0.0,0.0,0.0,0.0,0.0,0.0,0.0,0.0,0.0,0.0,0.0,0.0,0.0,0.0,0.0,0.0,0.0,0.0,0.0,0.0,0.0,0.0,0.335,0.2693,0.0,0.0,0.0,0.0,0.0,0.0,0.0,0.0,0.0,0.0,0.0,0.0,0.0,0.0,0.0,0.0,0.0,0.0,0.0,0.0,0.0,0.0,0.0,0.0,0.0,0.0,0.0,0.0,0.0,0.0,0.0,0.0,0.0,0.0,0.0,0.0,0.0,0.0,0.0,0.0,0.4432,0.3818,0.3123,0.2347,0.1398,0.0616,0.0028,-0.0421,-0.0952,-0.1649,-0.2043,0.0,0.0,0.0,0.0,0.0,0.0,0.0,0.0,0.0,0.0,0.0,0.0,0.0,0.0,0.0,0.0,0.0,0.0,0.0,0.0,0.0,0.0,0.0,0.0,0.0,0.0,0.0,0.0,0.0,0.0,0.0,0.0,0.0,0.0,0.0,0.0,0.0,0.0,0.0,0.0,0.0,0.0,0.0,0.0,0.0,0.0,0.0,0.0,0.0,0.0,0.0,0.0,0.0,0.2544,0.3349,0.3378,0.4731,0.5014,0.4416,0.4416,0.3899,0.3077,0.3434,0.0,0.0,0.0,0.0,0.0,0.0,0.0,0.0,0.0,0.0,0.0,0.0,0.0,0.0,0.0,0.0,0.0,0.0,0.0,0.0,0.0,0.0,0.2701,0.293,0.2505,0.2192,0.2616,0.0,0.0,0.0,0.0,0.0,0.0,0.0,0.0,0.0,0.0,0.0,0.4285,0.3998,0.3429,0.2217,0.1536,0.0911,0.0285,-0.0171,-0.0741,-0.148,-0.1851,-0.2274,0.0,0.0,0.0,0.0,0.0,0.0,0.0,0.0,0.0,0.0,0.0,0.0,0.0,0.0,0.0,0.0,0.0,0.0,0.0,0.0,0.0,0.0,0.0,0.0,0.0,0.0,0.0,0.0,0.0,0.0,0.0,0.0,0.1798,0.2461,0.0,0.0,0.0,0.0,0.0,0.0,0.0,0.0,0.0,0.0,0.0,0.0,0.0,0.1367,0.1742,0.2601,0.2936,0.2762,0.4388,0.5142,0.5109,0.5947,0.6223,0.6083,0.6083,0.0,0.396,0.3404,0.0,0.0,0.0,0.0,0.0,0.0,0.0,0.0,0.0,0.0,0.0,0.0,0.0,0.0,0.0,0.0,0.0,0.0,0.0,0.0,0.0,0.0,0.1824,0.2375,0.2039,0.1642,0.1825,0.2503,0.3102,0.3186,0.3355,0.3697,0.0,0.0,0.0,0.0,0.0,0.0,0.5636,0.4363,0.3394,0.3215,0.1642,0.0518,0.0305,-0.0183,-0.0701,-0.122,-0.1828,-0.2287,-0.2547,-0.3038,0.0,0.0,0.0,0.0,0.0,0.0,0.0,0.0,0.0,0.0,0.0,0.0,0.0,0.0,0.0,0.0,0.0,0.0,0.0,0.0,0.0,0.0,0.0,0.0,0.0,0.0,0.0,0.0,0.0,0.2865,0.2857,0.3244,0.0757,-0.1321,0.0,0.0,0.0,0.0,0.0,0.0,0.0,0.0,0.0,0.2503,0.2609,0.2854,0.3236,0.3654,0.3767,0.3622,0.4676,0.5142,0.5142,0.6052,0.6199,0.5776,0.5861,0.5478,0.4798,0.4729,0.4693,0.475,0.0,0.0,0.0,0.0,0.475,0.4558,0.4233,0.4065,0.3946,0.3682,0.0,0.0,0.0,0.0,0.0,0.0,0.0,0.3369,0.2963,0.2497,0.2122,0.2157,0.2339,0.2519,0.2581,0.3306,0.3858,0.3509,0.4007,0.4611,0.5096,0.534,0.0,0.0,0.0,0.5888,0.5793,0.4752,0.3989,0.3925,0.2674,0.1786,0.1601,0.1078,0.0524,0.0,-0.0831,-0.1377,-0.154,-0.2051,-0.2307,0.0,0.0,0.0,0.0,0.0,0.0,0.0,0.0,0.0,0.0,0.0,0.0,0.0,0.0,0.0,0.0,0.0,0.0,0.0,0.0,0.0,0.0,0.0,0.0,0.0,0.0,0.0,0.0,0.3639,0.3904,0.4393,0.1775,0.0062,0.0,0.0,0.0,0.0,0.0,0.0,0.3052,0.3135,0.3345,0.3705,0.3826,0.4036,0.4332,0.4479,0.4496,0.4409,0.5226,0.5582,0.5526,0.6448,0.6416,0.5694,0.5942,0.5746,0.5261,0.5527,0.5296,0.4823,0.5351,0.5578,0.5586,0.5371,0.5057,0.4744,0.4952,0.4816,0.457,0.457,0.4687,0.4747,0.4369,0.0,0.0,0.0,0.0,0.423,0.3022,0.2845,0.2892,0.258,0.3111,0.3672,0.3672,0.4357,0.4711,0.4003,0.4564,0.5245,0.5601,0.5823,0.0,0.6142,0.6115,0.6084,0.6018,0.5299,0.4706,0.4516,0.3643,0.2925,0.2643,0.2109,0.1575,0.104,0.0126,-0.0439,-0.0561,-0.112,-0.1333,-0.117,0.0,0.0,0.0,0.0,0.0,0.0,0.0,0.0,0.0,0.0,0.0,0.0,0.0,0.0,0.0,0.0,0.0,0.0,0.0,0.0,0.0,0.0,0.0,0.0,0.0,0.0,0.0,0.0,0.0,0.6574,0.6167,0.0,0.0,0.0,0.0,0.5373,0.5012,0.4792,0.4776,0.4783,0.4787,0.4814,0.4719,0.4643,0.4664,0.5231,0.5538,0.5542,0.6915,0.7398,0.7096,0.7787,0.761,0.677,0.7339,0.665,0.5104,0.4989,0.5245,0.5764,0.599,0.6104,0.6069,0.5308,0.5375,0.5703,0.4836,0.4881,0.5343,0.5343,0.5473,0.5659,0.5757,0.5932,0.0,0.0,0.4728,0.4504,0.3361,0.35,0.3931,0.3898,0.4331,0.4728,0.4728,0.5318,0.5528,0.4559,0.4506,0.4819,0.5402,0.0,0.5835,0.6726,0.6748,0.6715,0.6817,0.6077,0.541,0.5084,0.4091,0.3266,0.2741,0.2306,0.1839,0.1306,0.0635,0.0198,0.0064,-0.0577,-0.0885,-0.0831,-0.04,0.0,0.0,0.0,0.0,0.0,0.0,0.0,0.0,0.0,0.0,0.0,0.0,0.0,0.0,0.0,0.0,0.0,0.0,0.0,0.0,0.0,0.0,0.0,0.0,0.0,0.0,0.0,0.0,0.6378,0.6388,0.0,0.6708,0.6475,0.6182,0.5828,0.5609,0.5308,0.4928,0.4973,0.4981,0.4901,0.5478,0.5744,0.5676,0.6441,0.6832,0.6837,0.7717,0.8086,0.7968,0.8145,0.772,0.6878,0.7364,0.6912,0.5856,0.656,0.6307,0.5515,0.6032,0.6327,0.6427,0.614,0.6185,0.6375,0.6017,0.6061,0.6257,0.6325,0.6398,0.6485,0.6517,0.6596,0.6498,0.5705,0.5498,0.5299,0.4429,0.435,0.4577,0.477,0.543,0.6096,0.6293,0.699,0.7441,0.6935,0.6722,0.6712,0.704,0.7177,0.7237,0.7288,0.7232,0.7134,0.6913,0.6539,0.6207,0.598,0.551,0.4978,0.4287,0.392,0.332,0.2452,0.1612,0.107,0.0894,0.043,0.0197,0.0228,0.0608,0.0666,0.0,0.0,0.0,0.0,0.0,0.0,0.0,0.0,0.0,0.0,0.0,0.0,0.0,0.0,0.0,0.0,0.0,0.0,0.0,0.0,0.0,0.0,0.0,0.0,0.0,0.6036,0.6448,0.6961,0.7117,0.7224,0.7278,0.7171,0.6956,0.6605,0.6177,0.5882,0.5782,0.5738,0.472,0.2582,0.5437,0.5806,0.3334,0.6396,0.7927,0.7809,0.8522,0.8851,0.868,0.63,0.4807,0.4098,0.4481,0.4184,0.363,0.6866,0.7458,0.6379,0.6705,0.6908,0.6966,0.7039,0.7021,0.6937,0.6806,0.6778,0.6778,0.6881,0.6913,0.6913,0.6979,0.7012,0.6876,0.6338,0.6174,0.6038,0.5477,0.5474,0.5705,0.6023,0.6715,0.7381,0.7577,0.8079,0.8479,0.8463,0.8209,0.7992,0.8047,0.8139,0.8074,0.7722,0.7624,0.7461,0.7138,0.7036,0.6839,0.6548,0.6412,0.6013,0.5186,0.4891,0.4323,0.3324,0.252,0.195,0.168,0.121,0.0975,0.0975,0.1155,0.1046,0.0688,0.0,0.0,0.0,0.0,0.0,0.0,0.0,0.0,0.0,0.0,0.0,0.0,0.0,0.0,0.0,0.0,0.0,0.0,0.0,0.0,0.0,0.0,0.0,0.6312,0.6362,0.6977,0.8441,0.8718,0.8857,0.8982,0.8488,0.8131,0.8111,0.6966,0.6639,0.7486,0.7175,0.4254,-0.1679,0.4721,0.4947,-0.1942,0.5297,0.8816,0.8498,0.9402,0.963,0.9007,0.2417,-0.0891,-0.144,-0.1055,-0.1252,-0.1285,0.5905,0.8705,0.8433,0.8054,0.783,0.7731,0.7923,0.7814,0.7489,0.7106,0.6979,0.6979,0.6946,0.6946,0.6979,0.7171,0.7237,0.7167,0.6839,0.6741,0.6704,0.6531,0.6868,0.733,0.7674,0.8144,0.8511,0.8517,0.8517,0.8641,0.8958,0.877,0.8479,0.8269,0.8236,0.8204,0.8047,0.7857,0.0,0.7554,0.7521,0.7326,0.6806,0.6741,0.6309,0.5253,0.512,0.4722,0.3859,0.3291,0.282,0.2417,0.168,0.1311,0.1311,0.1176,0.0908,0.0506,0.0,0.0,0.0,0.0,0.0,0.0,0.0,0.0,0.0,0.0,0.0,0.0,0.0,0.0,0.0,0.0,0.0,0.0,0.0,0.0,0.0,0.7566,0.77,0.7771,0.7605,0.7791,0.8639,0.8857,0.8956,0.9008,0.8949,0.8805,0.8622,0.8279,0.8121,0.8219,0.8114,0.7292,0.5624,0.8024,0.8433,0.6473,0.9155,1.0462,1.0369,1.0616,0.8173,0.3327,0.0987,-0.0263,-0.0553,-0.0447,0.2154,0.647,0.9052,1.0066,0.9879,0.8546,0.8116,0.8207,0.8158,0.8413,0.8786,0.8689,0.8624,0.8565,0.8182,0.8057,0.8057,0.8122,0.8155,0.8122,0.8019,0.8019,0.7987,0.7949,0.8019,0.8214,0.856,0.8759,0.8926,0.9157,0.9227,0.9318,0.9664,0.9664,0.9504,0.9189,0.9151,0.9055,0.8759,0.8662,0.8538,0.8247,0.8214,0.8182,0.8037,0.7587,0.7092,0.6658,0.5815,0.499,0.422,0.3153,0.2485,0.2253,0.1546,0.1277,0.1513,0.1109,0.0908,0.0,0.0,0.0,0.0,0.0,0.0,0.0,0.0,0.0,0.0,0.0,0.0,0.0,0.0,0.0,0.0,0.0,0.0,0.0,0.0,0.0,0.0,0.3229,0.4882,0.528,0.6929,0.8335,0.8982,0.9106,0.9241,0.9447,0.9487,0.9499,0.9484,0.9188,0.9112,0.9377,0.9218,0.7945,0.5385,0.8717,0.9101,0.61,0.9546,0.9839,0.6919,0.7062,0.3576,-0.3084,-0.6307,-0.7845,-0.7797,-0.5059,-0.3313,-0.1936,0.4118,0.4988,0.293,0.0,0.0,0.0,0.0,0.9448,0.9805,0.9793,0.9703,0.9524,0.899,0.8829,0.8797,0.8576,0.8517,0.8517,0.8517,0.8517,0.8549,0.8673,0.8705,0.8797,0.9119,0.9312,0.9472,0.967,0.983,1.0021,1.0206,1.0244,0.0,0.9989,1.0168,1.0155,0.9614,0.9767,0.9735,0.9204,0.9145,0.8979,0.8554,0.8415,0.8054,0.7335,0.6915,0.0,0.0,0.0,0.3476,0.245,0.148,0.0,0.0,0.0,0.0841,0.0975,0.0842,0.0,0.0,0.1033,0.1145,0.0,0.0,0.0,0.0,0.0,0.0,0.0,0.0,0.0,0.0,0.0,0.0,0.0,0.0,0.0,0.0,-0.3625,-0.049,0.011,0.3855,0.6978,0.8204,0.8352,0.8567,0.9119,0.9072,0.9146,0.9469,0.8881,0.8501,0.8481,0.8135,0.0,0.0,0.0,0.6292,-0.0076,0.6188,0.6225,0.0053,0.0344,-0.3078,-0.9895,-1.5888,-1.862,-1.8331,-1.2544,-1.2956,-1.678,-0.4859,-0.3427,-0.7513,0.4786,0.9926,1.0453,1.0679,1.0766,1.0766,1.0777,0.0,0.0,0.9678,0.9492,0.9396,0.8835,0.8673,0.8673,0.8673,0.8673,0.877,0.9087,0.9177,0.9247,0.9542,0.9862,1.0079,1.0079,0.9756,0.9482,0.9513,0.96,0.9693,0.9724,1.0719,1.1298,1.0553,1.0979,1.1097,1.0388,1.0262,0.9913,0.8994,0.0,0.0,0.7877,0.8264,0.8103,0.7065,0.6371,0.5022,0.2876,0.1746,0.1212,0.1377,0.1077,0.101,0.1109,0.101,0.1345,0.2078,0.1477,0.1591,0.0,0.0,0.0,0.0,0.0,0.0,0.0,0.0,0.0,0.0,0.0,0.0,0.0,0.0,0.0,-0.7236,-0.6362,-0.5496,-0.5376,-0.5085,-0.3242,0.1287,0.1913,0.2381,0.3393,0.3453,0.3556,0.384,0.3724,0.1234,-0.4354,-0.4722,-0.5292,-0.6493,-0.5182,-0.5111,-0.6516,-0.5135,-0.5133,-0.6474,-0.6313,0.0,-1.6464,-1.7613,-1.8227,-1.8313,-1.7047,-1.4149,-1.0141,-0.7556,-0.7245,-0.7622,0.0263,0.6512,1.1212,1.205,1.2358,1.2358,1.2358,1.232,1.2081,1.1017,1.0672,1.0553,0.9913,0.9696,0.0,0.9696,0.9824,0.9951,1.0047,1.0174,1.0301,1.0371,1.0434,1.0466,1.0466,0.6305,0.2621,0.2893,0.345,0.4002,0.4266,0.8381,1.1571,1.1298,1.1927,1.2319,1.2043,1.2012,1.1835,1.1377,1.0965,1.0551,1.0154,0.9386,0.8549,0.7757,0.6183,0.4701,0.3409,0.338,0.3284,0.305,0.2248,0.2214,0.2984,0.2214,0.2313,0.3176,0.2312,0.2307,0.0,0.0,0.0,0.0,0.0,0.0,0.0,0.0,0.0,0.0,0.0,-0.5142,-0.7948,0.0,-1.2283,-1.5025,-1.2981,-1.1194,-1.1612,-0.9597,-0.709,-0.4379,-0.1031,0.1318,0.2034,0.5496,0.7817,0.8136,0.4673,0.1008,-0.2545,-0.6285,-0.8273,-0.821,-0.8258,-0.8227,-0.8045,-0.8141,-0.9868,-1.3144,-1.3097,-1.6631,-2.3256,-2.308,-2.3047,-2.2965,-1.954,-1.8044,-1.7993,-1.7866,-1.5763,-1.2292,-0.8707,-0.1359,0.7713,1.1944,1.3485,1.3515,1.3614,1.3532,1.326,1.2381,1.2097,1.1973,1.1416,1.1024,1.0748,1.0748,1.0611,1.0466,1.0466,1.053,1.0593,1.0593,0.8168,0.6879,1.0633,0.6318,0.2855,0.6784,0.7869,0.8219,0.8381,1.1216,1.3278,1.2832,1.3347,1.3678,1.3295,1.3235,1.3023,1.2419,1.2143,1.1811,1.1329,1.0501,0.9679,0.8892,0.7052,0.5614,0.4737,0.4077,0.3747,0.3751,0.2915,0.2815,0.3487,0.2915,0.3113,0.4008,0.3613,0.3616,0.0,0.0,0.0,0.0,0.0,0.0,0.0,0.0305,-0.2101,-0.2074,-0.6025,-1.0841,-1.534,-1.6578,-1.8331,-2.2711,-1.9804,-1.7222,-1.7821,-1.4349,-1.17,-1.1616,-0.4698,0.0799,0.2686,0.7109,0.9958,1.0243,0.3384,-0.1461,-0.2962,-0.8743,-1.1972,-1.1905,-1.2005,-1.194,-1.1669,-1.1838,-1.4586,-1.9893,-1.9855,-2.2752,-2.8112,-2.7954,-2.7911,-2.763,-2.2053,-2.2679,-2.7595,-2.7317,-2.3925,-1.875,-1.6856,-0.9761,0.0328,0.7661,1.1191,1.2376,1.253,1.2422,1.2311,1.3104,1.244,1.151,1.2324,1.1289,0.9786,0.9786,0.95,0.9155,0.9155,0.9186,0.955,1.0951,0.6299,0.3608,1.1038,0.7565,0.4832,1.0883,1.2175,1.2291,1.2291,1.4005,1.5108,1.4293,1.4697,1.4902,1.4398,1.4309,1.3983,1.3179,1.3144,1.2856,1.2027,1.1516,1.0885,1.0085,0.8393,0.7103,0.6326,0.4869,0.4209,0.4544,0.3647,0.3547,0.4312,0.391,0.4243,0.5233,0.5371,0.5312,-0.4815,-0.7271,-0.9006,-1.2882,-1.0354,-0.7913,0.0,-0.9651,-0.6666,-0.6021,-1.0255,-1.4252,-1.488,-1.8955,-2.2442,-2.3049,-2.3328,-2.3436,-2.3349,-2.413,-2.4548,-2.4142,-1.3686,-0.3541,0.4129,-0.0024,-0.3187,-0.3155,-0.9718,-1.671,-2.357,-2.4729,-2.5274,-2.5496,-2.5527,-2.5512,-2.5465,-2.5513,-2.5874,-2.6597,-2.6494,-2.6905,-2.7745,-2.7615,-2.7615,-2.7683,-2.6664,-2.6653,-2.7334,-2.7066,-2.6485,-2.5129,-1.8455,-1.4947,-1.2858,-0.5941,0.0492,0.5778,0.5774,0.5778,0.6634,1.2121,0.9753,0.5791,1.1279,0.8622,0.3688,0.3688,0.3854,0.4014,0.4014,0.4151,0.5875,1.2139,0.8305,0.5174,1.2271,0.858,0.4126,0.4952,0.5684,0.6192,0.6192,1.1628,1.5719,1.4914,1.5352,1.5711,1.5527,1.5362,1.5059,1.4519,1.4112,1.3519,1.2582,1.2258,1.1704,1.0923,0.9939,0.8884,0.7795,0.6666,0.6243,0.656,0.4978,0.5173,0.7242,0.6117,0.6351,0.7772,0.7804,0.7321,-0.5235,-0.4665,-0.4365,-1.3105,-1.1318,-0.7894,-0.9733,-1.0992,-1.171,-1.1386,-1.5761,-1.9635,-1.9635,-2.1524,-2.3247,-2.3673,-2.4462,-2.5301,-2.6128,-2.7075,-2.6158,-2.2097,-1.2635,-0.6737,-0.7524,-0.2405,-0.0986,-0.5756,-1.2886,-1.8426,-2.1664,-2.6114,-2.8605,-2.8638,-2.8912,-2.8944,-2.8753,-2.8866,-2.8914,-2.8914,-2.8868,-2.8866,-2.8926,-2.8785,-2.8523,-2.8135,-2.7768,-2.7499,-2.735,-2.7236,-2.7104,-2.6649,-2.3519,-2.2316,-2.0968,-0.9865,-0.3958,-0.1539,-0.2056,-0.2222,-0.1786,0.0812,-0.0296,-0.2149,0.0464,-0.1035,-0.3645,-0.3645,-0.3797,-0.285,0.1905,0.3197,0.5133,1.2575,0.9151,0.6137,1.3174,0.9418,0.5982,1.0358,1.148,1.0459,0.6473,1.1622,1.3475,0.5142,1.0684,1.573,1.5546,1.5449,1.5118,1.4359,1.413,1.3619,1.2683,1.2834,1.2618,1.1735,1.1286,1.0593,0.9597,0.8495,0.78,0.754,0.6813,0.6756,0.7423,0.7111,0.7344,0.8079,0.8172,0.7972,-0.9433,-0.7575,-0.6467,-1.5068,-1.4041,-1.0927,-1.0934,-1.406,-1.697,-1.697,-2.0177,-2.3047,-2.3257,-2.3292,-2.358,-2.4444,-2.5363,-2.6353,-2.7459,-2.816,-2.6701,-2.1669,-1.3791,-1.1752,-1.9377,-0.6346,0.0134,-0.5775,-1.5165,-2.0635,-2.0712,-2.6054,-2.9107,-2.9105,-2.9438,-2.9506,-2.9246,-2.9403,-2.9472,-2.9472,-2.9523,-2.9557,-2.9557,-2.9386,-2.9017,-2.8465,-2.7928,-2.7583,-2.7394,-2.7326,-2.7174,-2.6993,-2.6993,-2.6993,-2.5787,-1.5707,-1.0676,-0.8974,-0.9677,-0.9894,-0.9509,-0.7693,-0.8374,-0.9597,-0.7765,-0.8811,-1.0636,-1.0636,-1.0886,-0.9788,-0.3834,-0.2296,-0.0395,0.7121,0.3755,0.0792,0.7841,0.5529,0.3723,0.9157,1.0379,0.8933,0.3953,0.7328,0.7359,-0.2557,0.4042,1.0786,1.249,1.4294,1.5089,1.433,1.424,1.3941,1.3194,1.3692,1.3575,1.248,1.2311,1.1781,1.0683,0.9589,0.8769,0.8291,0.8091,0.7902,0.7689,0.7869,0.8166,0.8506,0.8689,0.878,-2.1925,-2.1881,-2.1823,-2.2184,-2.2156,-2.203,-2.2099,-2.2235,-2.2371,-2.2451,-2.2603,-2.2936,-2.366,-2.3781,-2.4165,-2.5364,-2.6613,-2.742,-2.7409,-2.8488,-2.8913,-2.7915,-2.1203,-1.9763,-2.7663,-1.4037,-0.4789,-0.502,-1.8936,-2.7531,-2.7778,-2.801,-2.8288,-2.8607,-2.8626,-2.8626,-2.8626,-2.8626,-2.8643,-2.8626,-2.8831,-2.8939,-2.8922,-2.8651,-2.8521,-2.8465,-2.7725,-2.7414,-2.7373,-2.7127,-2.7014,-2.6993,-2.6993,-2.6993,-2.7019,-2.7237,-2.2683,-1.6406,-1.6693,-1.6634,-1.5344,-0.8906,-1.134,-1.5595,-0.9141,-1.1702,-1.6824,-1.6824,-1.6551,-1.6229,-1.5979,-1.5908,-1.4129,-0.7043,-1.0755,-1.3934,-0.6869,-0.5505,-0.5584,-0.5377,-0.4796,-0.4404,-0.4634,-0.407,-0.3711,-0.4133,-0.3958,-0.1408,0.5146,1.1499,1.5264,1.4922,1.4863,1.4775,1.4469,1.5001,1.4658,1.307,1.2921,1.215,1.0573,0.9538,0.9,0.8985,0.8323,0.8323,0.8952,0.8775,0.9037,0.974,1.0085,1.0238,-1.5844,-1.5792,-1.6765,-2.083,-2.184,-2.1838,-2.1868,-2.1868,-2.2001,-2.2465,-2.2672,-2.2981,-2.3671,-2.3949,-2.4517,-2.59,-2.6894,-2.7823,-2.8777,-2.9521,-2.9872,-2.9589,-2.2355,-1.8432,-2.1107,-1.6518,-1.5633,-2.1111,-2.6267,-2.9194,-2.93,-2.9477,-2.9626,-2.9728,-2.9929,-3.0005,-2.9865,-2.9865,-2.9768,-2.9593,-2.9572,-2.9556,-2.9552,-2.9006,-2.8784,-2.8724,-2.8175,-2.7938,-2.7938,-2.7922,-2.7915,-2.7915,-2.7915,-2.7915,-2.7969,-2.8319,-2.6783,-2.453,-2.4923,-2.5002,-2.4558,-2.2321,-2.3169,-2.4646,-2.2398,-2.3278,-2.5072,-2.5072,-2.4972,-2.3621,-1.8177,-1.6782,-1.4871,-0.7333,-0.7353,-0.8495,-0.6454,-0.6007,-0.6007,-0.6007,-0.5829,-0.71,-1.1651,-0.8162,-0.4613,-0.4243,-0.4307,-0.3573,-0.1305,0.0913,0.3934,0.8321,0.8524,1.0109,1.4518,1.5216,1.4932,1.3846,1.3678,1.3158,1.2058,1.1188,1.0281,0.9364,0.9314,0.9,0.8339,0.8721,0.9017,0.928,0.9734,0.9862,-1.5479,-1.5441,-1.6389,-2.0369,-2.1369,-2.1385,-2.1447,-2.1462,-2.1658,-2.236,-2.2651,-2.3091,-2.405,-2.4381,-2.4963,-2.6409,-2.7078,-2.7859,-2.9181,-2.9696,-3.0008,-3.0145,-2.5334,-2.2009,-2.2009,-2.2009,-2.297,-2.5333,-2.8227,-2.9896,-2.9896,-2.9979,-3.0011,-3.0011,-3.0123,-3.0123,-3.0011,-2.9989,-2.9946,-2.9805,-2.9745,-2.9723,-2.9701,-2.915,-2.8881,-2.8795,-2.8317,-2.8128,-2.8152,-2.8226,-2.8266,-2.8266,-2.8266,-2.8266,-2.8275,-2.8405,-2.8405,-2.8396,-2.8795,-2.8912,-2.8858,-2.8936,-2.8959,-2.8982,-2.9075,-2.9029,-2.8959,-2.8959,-2.8912,-2.7631,-2.2365,-2.1013,-1.9749,-1.4736,-1.3552,-1.3645,-1.3933,-1.4006,-1.4006,-1.4006,-1.381,-1.5046,-1.9446,-1.601,-1.2445,-1.1832,-1.1808,-1.0051,-0.5056,-0.2321,0.0858,0.5317,0.5537,0.8126,1.4984,1.569,1.5294,1.4213,1.4064,1.3515,1.2405,1.1864,1.0951,0.9518,0.9831,0.9384,0.8182,0.8732,0.9055,0.9183,0.9606,0.967,-2.086,-2.0861,-2.0893,-2.1007,-2.1039,-2.1102,-2.1276,-2.134,-2.155,-2.2329,-2.2669,-2.3241,-2.4727,-2.5008,-2.5452,-2.6846,-2.7104,-2.7506,-2.8556,-2.9029,-2.9391,-2.9772,-2.9842,-2.9858,-2.9858,-2.9874,-2.6641,-1.8795,-2.5454,-2.9896,-2.9896,-2.9621,-2.947,-2.947,-2.9236,-2.9075,-2.9075,-2.9052,-2.9121,-2.9243,-2.9287,-2.9316,-2.9316,-2.8982,-2.8772,-2.863,-2.8171,-2.798,-2.798,-2.7995,-2.7995,-2.7995,-2.7995,-2.7995,-2.7995,-2.7995,-2.8079,-2.8235,-2.8558,-2.8549,-2.842,-2.8629,-2.8685,-2.8732,-2.8982,-2.8889,-2.8685,-2.8685,-2.8549,-2.8411,-2.8411,-2.8411,-2.8411,-2.8411,-2.8411,-2.8411,-2.8411,-2.8411,-2.8411,-2.8411,-2.7888,-2.7442,-2.7396,-2.6857,-2.6195,-2.545,-2.5037,-2.0125,-0.7083,0.0104,0.4261,0.4949,0.5323,0.8356,1.5364,1.6226,1.571,1.4085,1.3995,1.3282,1.1654,1.1591,1.0951,0.9518,0.9799,0.9486,0.8447,0.8797,0.9119,0.9452,0.9676,0.9772,-2.0359,-2.0308,-2.0308,-2.0273,-2.0273,-2.0291,-2.0357,-2.0393,-2.0771,-2.202,-2.2598,-2.3314,-2.4753,-2.5123,-2.5489,-2.6357,-2.6386,-2.6586,-2.7429,-2.8046,-2.8429,-2.8554,-2.9166,-2.9531,-2.9305,-2.9486,-2.8654,-2.6347,-2.8299,-2.9598,-2.9598,-2.935,-2.919,-2.919,-2.9137,-2.9006,-2.8803,-2.8558,-2.8453,-2.8486,-2.8389,-2.8365,-2.8365,-2.8171,-2.8073,-2.8008,-2.789,-2.784,-2.7855,-2.7955,-2.7995,-2.7995,-2.7995,-2.7995,-2.7995,-2.7995,-2.8005,-2.8054,-2.8152,-2.8275,-2.8411,-2.8468,-2.8493,-2.8493,-2.8565,-2.8541,-2.8493,-2.8493,-2.8444,-2.8411,-2.8411,-2.8411,-2.8411,-2.8411,-2.8411,-2.8411,-2.8411,-2.8411,-2.8411,-2.8411,-2.8273,-2.7996,-2.7488,-2.7257,-2.6888,-2.6157,-2.1592,-1.8474,-1.9136,-1.7543,-1.423,-0.8732,-0.3901,0.1856,0.9079,1.3811,1.571,1.4085,1.3995,1.3282,1.1654,1.1591,1.0951,0.9518,0.9582,0.9005,0.7754,0.8079,0.8441,0.8776,0.9055,0.9414,-2.0115,-2.0061,-2.0028,-1.9937,-1.9902,-1.9937,-2.0025,-2.0292,-2.0885,-2.2123,-2.2879,-2.3676,-2.478,-2.5084,-2.5289,-2.5672,-2.5535,-2.5664,-2.6498,-2.6946,-2.7288,-2.7626,-2.8408,-2.8821,-2.8679,-2.9062,-2.9259,-2.9098,-2.9236,-2.9312,-2.9312,-2.9075,-2.8936,-2.8936,-2.8858,-2.8692,-2.8486,-2.8235,-2.8088,-2.8014,-2.8005,-2.793,-2.7815,-2.7815,-2.7765,-2.77,-2.77,-2.77,-2.7715,-2.779,-2.7815,-2.7815,-2.7815,-2.7815,-2.7815,-2.7815,-2.7855,-2.7905,-2.7905,-2.8054,-2.8226,-2.8299,-2.8323,-2.8323,-2.8372,-2.8411,-2.8411,-2.8411,-2.8411,-2.8411,-2.8411,-2.8411,-2.8411,-2.8411,-2.8411,-2.8411,-2.8411,-2.8411,-2.8411,-2.8411,-2.8411,-2.8288,-2.7904,-2.7842,-2.7596,-2.6903,-2.324,-2.1633,-2.455,-2.1798,-1.792,-1.351,-0.9842,-0.3704,0.625,1.0194,1.2663,1.3921,1.3995,1.3282,1.1654,1.1591,1.0951,0.9518,0.9486,0.8909,0.7722,0.7922,0.8187,0.8517,0.8861,0.9151,-2.0076,-2.0008,-1.9973,-1.9866,-1.983,-1.9869,-2.008,-2.0577,-2.128,-2.2269,-2.3104,-2.39,-2.474,-2.4882,-2.493,-2.4989,-2.4771,-2.4873,-2.5648,-2.5863,-2.6146,-2.6782,-2.7561,-2.805,-2.8005,-2.8635,-2.9029,-2.9021,-2.9021,-2.9006,-2.9052,-2.8795,-2.8637,-2.8637,-2.8453,-2.8299,-2.8162,-2.8054,-2.793,-2.779,-2.7905,-2.7815,-2.76,-2.7715,-2.77,-2.76,-2.76,-2.76,-2.76,-2.76,-2.76,-2.76,-2.76,-2.76,-2.76,-2.76,-2.7675,-2.7765,-2.7765,-2.784,-2.798,-2.8113,-2.8162,-2.8186,-2.8323,-2.8363,-2.8348,-2.8372,-2.8363,-2.8323,-2.8323,-2.8348,-2.8348,-2.8299,-2.8348,-2.8387,-2.8348,-2.8372,-2.8411,-2.8411,-2.8411,-2.8411,-2.8411,-2.8411,-2.8211,-2.7626,-2.7094,-2.651,-2.585,-1.9799,-1.5301,-1.4585,-1.2914,-0.7178,0.4439,0.7002,0.9707,1.3758,1.3995,1.3282,1.1654,1.1591,1.0989,0.9646,0.955,0.9043,0.8079,0.7982,0.8117,0.8447,0.8765,0.8937,-2.0115,-2.008,-2.0063,-1.9973,-1.997,-2.0008,-2.0218,-2.0399,-2.0783,-2.1674,-2.2157,-2.281,-2.41,-2.434,-2.4477,-2.493,-2.4771,-2.4595,-2.4596,-2.507,-2.5472,-2.5595,-2.6887,-2.7695,-2.7543,-2.8288,-2.87,-2.8541,-2.8517,-2.8597,-2.8756,-2.8573,-2.8405,-2.8284,-2.8259,-2.8177,-2.8044,-2.789,-2.7815,-2.779,-2.77,-2.765,-2.76,-2.7625,-2.7625,-2.76,-2.76,-2.76,-2.76,-2.76,-2.76,-2.76,-2.76,-2.76,-2.76,-2.76,-2.7625,-2.7625,-2.7625,-2.765,-2.77,-2.7955,-2.8029,-2.8054,-2.8186,-2.8152,-2.8079,-2.8186,-2.8152,-2.8029,-2.7915,-2.8063,-2.8162,-2.7825,-2.8088,-2.8339,-2.8118,-2.8241,-2.8411,-2.8411,-2.8411,-2.8411,-2.8411,-2.8411,-2.8365,-2.8242,-2.753,-2.68,-2.6199,-2.4173,-2.2571,-2.1924,-1.2,-0.429,-0.1469,0.8563,1.4515,1.4037,1.3995,1.3282,1.1654,1.1591,1.1209,1.0326,0.9779,0.9134,0.8431,0.7847,0.7754,0.8084,0.8447,0.8679,-2.0168,-2.01,-2.008,-2.0023,-2.0005,-2.0061,-2.0306,-2.0655,-2.1101,-2.1774,-2.2294,-2.2828,-2.3515,-2.0944,-1.9976,-2.3803,-2.1477,-2.0422,-2.3958,-2.4642,-2.4795,-2.4795,-2.5759,-2.6554,-2.6849,-2.7574,-2.813,-2.8381,-2.8411,-2.8444,-2.8549,-2.8396,-2.821,-2.8103,-2.8039,-2.7965,-2.7905,-2.7765,-2.7665,-2.759,-2.7514,-2.7463,-2.7397,-2.7397,-2.7423,-2.7488,-2.7488,-2.7488,-2.7514,-2.7575,-2.7549,-2.7514,-2.7575,-2.76,-2.76,-2.76,-2.76,-2.76,-2.76,-2.76,-2.7625,-2.7765,-2.784,-2.793,-2.8054,-2.8054,-2.8005,-2.8079,-2.8054,-2.7955,-2.7815,-2.789,-2.794,-2.7675,-2.78,-2.7989,-2.7995,-2.8103,-2.8177,-2.8177,-2.8299,-2.8411,-2.8411,-2.8411,-2.8411,-2.8411,-2.766,-2.6993,-2.671,-2.5842,-2.4927,-2.4013,-1.4645,-0.7025,-0.3379,0.6242,1.2788,1.4453,1.4568,1.3815,1.2155,1.2065,1.1731,1.1028,1.0294,0.9594,0.89,0.8185,0.7884,0.8054,0.819,0.8279,-2.0202,-2.015,-2.0133,-2.0078,-2.0183,-2.0314,-2.0441,-2.0043,-1.9708,-1.9999,-1.9476,-1.9013,-1.9178,-1.5146,-1.3581,-1.8987,-1.6842,-1.6339,-2.1691,-2.3543,-2.4364,-2.4364,-2.4924,-2.5595,-2.6318,-2.6972,-2.7625,-2.8301,-2.8323,-2.8339,-2.8363,-2.821,-2.8103,-2.7955,-2.784,-2.779,-2.7765,-2.765,-2.7549,-2.7437,-2.7427,-2.735,-2.7233,-2.7207,-2.7258,-2.7376,-2.7401,-2.7401,-2.7427,-2.7549,-2.7524,-2.7437,-2.7549,-2.76,-2.76,-2.76,-2.76,-2.76,-2.76,-2.76,-2.76,-2.76,-2.7675,-2.779,-2.793,-2.793,-2.793,-2.7955,-2.793,-2.788,-2.7715,-2.7715,-2.7765,-2.77,-2.765,-2.7675,-2.8005,-2.8094,-2.8054,-2.798,-2.8217,-2.8372,-2.8275,-2.8323,-2.8372,-2.8275,-2.7595,-2.7071,-2.6967,-2.6351,-2.5528,-2.4585,-1.6352,-0.9474,-0.5911,0.408,1.0894,1.2598,1.4199,1.4312,1.2586,1.2485,1.2241,1.1717,1.0717,0.9962,0.9521,0.8468,0.8009,0.8115,0.804,0.7992,-2.0287,-2.0287,-2.0287,-2.027,-2.0731,-2.1113,-2.0836,-1.7184,-1.3793,-1.354,-0.9264,-0.5782,-0.6459,-0.6104,-0.5935,-0.6624,-1.1606,-1.5398,-1.5411,-2.0712,-2.4569,-2.4569,-2.5008,-2.5595,-2.6318,-2.6903,-2.7515,-2.8165,-2.8103,-2.8079,-2.821,-2.8079,-2.7955,-2.7815,-2.7815,-2.774,-2.7625,-2.7625,-2.76,-2.7575,-2.7463,-2.7401,-2.7376,-2.7258,-2.7207,-2.7233,-2.735,-2.7401,-2.7427,-2.7549,-2.76,-2.7575,-2.76,-2.76,-2.76,-2.76,-2.76,-2.76,-2.76,-2.76,-2.76,-2.76,-2.7625,-2.765,-2.779,-2.774,-2.765,-2.779,-2.774,-2.7575,-2.7321,-2.7423,-2.7675,-2.7905,-2.779,-2.775,-2.825,-2.8363,-2.825,-2.789,-2.8128,-2.8275,-2.7915,-2.8152,-2.8275,-2.7915,-2.7418,-2.6967,-2.6616,-2.6177,-2.5851,-2.5739,-1.3242,-0.7203,-1.2896,0.5188,1.3434,0.5426,1.133,1.4312,1.2586,1.2485,1.2485,1.2417,1.0648,0.9921,1.0199,0.8433,0.7735,0.8115,0.804,0.7928,-2.0443,-2.0373,-2.0304,-2.0304,-2.0557,-1.9891,-1.6371,-1.4029,-1.1614,-0.8046,-0.5425,-0.3882,-0.4191,-0.1141,0.011,-0.3865,0.0,0.0,-0.7846,-1.4239,-1.8478,-1.8354,-2.2209,-2.5106,-2.5672,-2.6304,-2.7079,-2.8119,-2.7989,-2.789,-2.7965,-2.7905,-2.7815,-2.7675,-2.759,-2.7514,-2.7488,-2.7412,-2.7335,-2.7248,-2.717,-2.7119,-2.7041,-2.6989,-2.7015,-2.7067,-2.7144,-2.7196,-2.7284,-2.7412,-2.7488,-2.7488,-2.7575,-2.76,-2.76,-2.76,-2.76,-2.76,-2.76,-2.76,-2.76,-2.76,-2.76,-2.7625,-2.765,-2.765,-2.7625,-2.765,-2.765,-2.7549,-2.7269,-2.7155,-2.7233,-2.7665,-2.7437,-2.7233,-2.7705,-2.7865,-2.7865,-2.7615,-2.8005,-2.8348,-2.8177,-2.8103,-2.7989,-2.7815,-2.7188,-2.668,-2.651,-2.615,-2.5893,-2.5893,-1.6662,-1.1592,-1.4335,0.1599,0.9673,0.4861,1.1657,1.5017,1.3175,1.3104,1.3104,1.3104,1.1177,1.0266,1.0411,0.8707,0.7948,0.8092,0.7827,0.768,-2.0108,-2.046,-2.0426,-2.0357,-1.9366,-1.7277,-1.3107,-0.9676,-0.6207,-0.208,0.023,0.1469,0.1367,0.4972,0.6533,0.0,0.0,0.3692,-0.0669,-0.7174,-1.2207,-1.4138,-1.8653,-2.2625,-2.5164,-2.6074,-2.6933,-2.7997,-2.7865,-2.774,-2.774,-2.774,-2.77,-2.76,-2.7463,-2.7401,-2.7401,-2.7258,-2.7155,-2.7041,-2.7029,-2.6951,-2.6873,-2.6806,-2.6846,-2.6951,-2.6977,-2.7041,-2.7144,-2.7299,-2.7376,-2.7401,-2.7499,-2.7575,-2.76,-2.76,-2.7499,-2.7331,-2.7331,-2.7331,-2.7331,-2.7331,-2.7423,-2.7524,-2.7524,-2.7575,-2.76,-2.7549,-2.7473,-2.7386,-2.7181,-2.6963,-2.691,-2.7372,-2.7155,-2.6963,-2.7325,-2.7423,-2.7382,-2.7167,-2.7715,-2.8088,-2.7645,-2.7685,-2.765,-2.7199,-2.68,-2.6457,-2.6324,-2.6084,-2.5893,-2.5893,-2.1176,-1.7223,-1.5264,-0.1299,0.6575,0.4699,1.1695,1.5188,1.3564,1.3492,1.3346,1.2966,1.123,1.0222,0.9959,0.8466,0.7872,0.8102,0.7561,0.7253,-1.9028,-2.0645,-2.0745,-2.0544,-1.6917,-1.3182,-1.2461,-0.3727,0.4347,0.4737,0.9659,1.3815,1.3488,1.3474,1.3807,1.4651,0.0,0.0,0.566,-0.01,-0.6996,-1.3971,-1.4672,-1.7525,-2.497,-2.6482,-2.7204,-2.777,-2.7675,-2.76,-2.76,-2.76,-2.76,-2.76,-2.7463,-2.7401,-2.7401,-2.7258,-2.7207,-2.7207,-2.7067,-2.7003,-2.6977,-2.6873,-2.6806,-2.6806,-2.6951,-2.7003,-2.7003,-2.7144,-2.7284,-2.7401,-2.7401,-2.7488,-2.76,-2.76,-2.7229,-2.6709,-2.6709,-2.6709,-2.6709,-2.6709,-2.7011,-2.7401,-2.7401,-2.7488,-2.7575,-2.7437,-2.7196,-2.7003,-2.7003,-2.6899,-2.6858,-2.713,-2.7089,-2.7063,-2.735,-2.7229,-2.6993,-2.659,-2.7203,-2.7342,-2.5876,-2.6849,-2.7291,-2.5849,-2.612,-2.6365,-2.5975,-2.5893,-2.5893,-2.5893,-2.5838,-2.3136,-1.6651,-0.2268,0.5613,0.373,1.0724,1.4482,1.3528,1.3492,1.2929,1.1749,1.0548,0.9497,0.8718,0.7506,0.7326,0.8063,0.7288,0.6676,-0.9811,-1.2054,-1.4023,-1.0022,-0.7968,-0.5847,-0.1706,0.1881,0.5485,0.9541,1.1966,1.3312,1.322,1.3252,1.3632,1.4572,1.2941,0.0,1.3304,0.3215,-0.4922,-0.6597,-1.5313,-2.2474,-2.5737,-2.6214,-2.6719,-2.774,-2.7675,-2.76,-2.76,-2.7514,-2.7463,-2.7463,-2.7335,-2.7196,-2.6989,-2.6963,-2.6817,-2.6606,-2.6645,-2.6618,-2.6527,-2.6474,-2.6447,-2.6447,-2.65,-2.658,-2.6657,-2.6709,-2.6788,-2.6959,-2.7181,-2.7284,-2.7346,-2.7524,-2.7229,-2.6709,-2.6709,-2.6642,-2.6563,-2.6563,-2.659,-2.6736,-2.7141,-2.7284,-2.7321,-2.7284,-2.7144,-2.7003,-2.7003,-2.6899,-2.6832,-2.7011,-2.6867,-2.6669,-2.6762,-2.7049,-2.7141,-2.659,-2.6834,-2.6894,-2.6144,-2.6158,-2.6146,-2.5686,-2.5864,-2.6042,-2.5921,-2.5893,-2.5893,-2.5893,-2.5893,-2.3231,-1.6661,-0.6974,0.0129,0.3383,1.0724,1.4482,1.3528,1.2696,1.2087,1.1712,0.9712,0.8552,0.8291,0.7203,0.683,0.7065,0.683,0.6563,0.0,-0.656,-0.8362,-0.473,-0.2373,0.0,0.3658,0.6115,0.8625,1.2175,1.2998,1.3081,1.3012,1.3238,1.3754,1.4769,1.52,1.4857,1.3267,0.5414,-0.1972,-0.6929,-1.7523,-2.4904,-2.6204,-2.6115,-2.6492,-2.7725,-2.7675,-2.7575,-2.7539,-2.7386,-2.7299,-2.717,-2.7093,-2.6922,-2.6686,-2.6633,-2.65,-2.6313,-2.6365,-2.6379,-2.6313,-2.6313,-2.6313,-2.6313,-2.6313,-2.6353,0.0,-2.6418,-2.6498,-2.6642,-2.6841,-2.6841,-2.6707,-2.6941,-2.6481,-2.5769,-2.5837,-2.596,-2.6041,-2.581,-2.596,-2.6297,-2.6604,-2.6907,-2.7104,-2.7104,-2.7015,-2.6925,-2.6925,-2.6806,-2.6698,-2.6788,-2.6563,-2.6365,-2.6365,-2.6604,-2.6724,-2.6365,-2.6493,-2.6477,-2.5849,-2.5863,-2.5823,-2.5439,-2.5674,-2.5893,-2.5893,-2.5893,-2.5893,-2.5893,-2.3668,-1.9546,-1.2912,-0.8052,-0.172,0.679,1.1757,1.3905,1.2849,1.2094,1.1261,1.0355,0.885,0.7872,0.7425,0.6865,0.6521,0.6328,0.6521,0.649,0.0,-0.3262,-0.3523,-0.3015,0.0907,0.4678,0.4803,0.9085,0.0,1.2861,1.3034,1.3179,1.3013,1.3436,1.417,1.531,1.5979,1.4059,0.7471,0.5813,0.0097,-1.3828,-2.0894,-2.5134,-2.6337,-2.6245,-2.6553,-2.77,-2.765,-2.7539,-2.7386,-2.7233,-2.7026,-2.6779,-2.6753,-2.6659,-2.6484,-2.6353,-2.6286,-2.6286,-2.6286,-2.6286,-2.6286,-2.6286,-2.6286,-2.6286,-2.6286,-2.6286,-2.6286,-2.6286,-2.6353,-2.6457,-2.6484,-2.6188,-2.5809,-2.6027,-2.5301,-2.4253,-2.4423,-2.4879,-2.5231,-2.4652,-2.5203,-2.6041,-2.5825,-2.634,-2.6977,-2.6977,-2.6899,-2.6779,-2.6779,-2.6618,-2.6484,-2.6484,-2.6285,-2.6084,-2.6029,-2.5948,-2.5866,-2.5784,-2.6055,-2.5987,-2.502,-2.566,-2.596,-2.4991,-2.5439,-2.5866,-2.5839,-2.5866,-2.5893,-2.5893,-2.002,-1.3416,-0.6781,-0.5758,-0.0067,1.271,1.3492,1.2959,1.1749,1.1557,1.0392,0.8134,0.8024,0.7387,0.6261,0.6447,0.6289,0.5864,0.6328,0.6451,0.8314,0.0,0.2837,0.6966,0.8965,0.9954,0.0,1.1186,1.2186,1.2268,1.2432,1.2609,1.2808,1.3372,1.4149,1.5245,1.5675,1.3797,0.7866,-0.2131,-1.2187,-2.1233,-2.397,-2.5389,-2.6039,-2.651,-2.7013,-2.759,-2.7423,-2.7284,-2.7258,-2.6867,-2.6604,-2.6404,-2.6326,-2.6245,-2.6192,-2.6245,-2.6206,-2.6002,-2.6084,-2.6084,-2.5975,-2.5975,-2.5975,-2.5975,-2.5975,-2.5975,-2.5975,-2.5975,-2.6002,-2.6069,-2.627,-2.6,-2.5522,-2.5946,-2.5342,-2.4308,-2.4452,-2.4538,-2.4509,-2.4263,-2.4978,-2.5729,-2.4639,-2.5495,-2.6846,-2.6846,-2.6712,-2.6578,-2.6578,-2.6445,-2.6326,-2.6218,-2.6138,-2.5948,-2.537,-2.5495,-2.5425,-2.4597,-2.4313,-2.4026,-2.3505,-2.3962,-2.4166,-2.3284,-2.4724,-2.5688,-2.505,-2.5536,-2.5893,-2.5893,-2.002,-1.3416,-0.6781,-0.1582,0.4786,1.2984,1.3492,1.2959,1.1749,1.0023,0.8784,0.8096,0.7199,0.6405,0.5754,0.5831,0.5712,0.5437,0.5712,0.5906,1.1293,0.9388,0.8065,1.0971,1.1644,1.1628,1.1703,0.0,0.0,0.0,0.0,1.2126,1.2412,1.0644,1.0458,1.4543,1.0438,0.5653,0.2624,-1.0013,-1.9231,-1.988,-2.3229,-2.561,-2.5978,-2.66,-2.7155,-2.758,-2.7346,-2.7181,-2.7119,-2.6657,-2.6351,-2.619,-2.6084,-2.6002,-2.6002,-2.6084,-2.6029,-2.5893,-2.5975,-2.5907,-2.5716,-2.5839,-2.5839,-2.5716,-2.5853,-2.5893,-2.5893,-2.5893,-2.5893,-2.5921,-2.6069,-2.5756,-2.5231,-2.5328,-2.4781,-2.3972,-2.3884,-2.3826,-2.3796,-2.4002,-2.4551,-2.4921,-2.4063,-2.4739,-2.5878,-2.6163,-2.6338,-2.6418,-2.6484,-2.6365,-2.6111,-2.5756,-2.5633,-2.5411,-2.4694,-2.4654,-2.4599,-2.4021,-2.3995,-2.3852,-2.3284,-2.3745,-2.4066,-2.3644,-2.4268,-2.4909,-2.5203,-2.2696,-2.0978,-2.1349,-1.2813,-0.5602,-0.2006,0.4351,0.9214,1.1782,1.1931,1.0941,0.8675,0.7387,0.6679,0.6528,0.6402,0.6064,0.5598,0.5598,0.5479,0.5321,0.5401,0.5556,1.0718,1.115,1.1578,1.1528,1.1418,1.1352,1.1402,0.0,0.0,0.0,0.0,0.0,1.0942,0.7737,0.7056,1.283,0.3819,-0.424,-0.5261,-1.6826,-2.2924,-1.6769,-2.1816,-2.5836,-2.5994,-2.6667,-2.7252,-2.7504,-2.7269,-2.7052,-2.691,-2.6472,-2.619,-2.6056,-2.5921,-2.5853,-2.5853,-2.5853,-2.5866,-2.5893,-2.5811,-2.5661,-2.5494,-2.5757,-2.5716,-2.5522,-2.5771,-2.5893,-2.5893,-2.5893,-2.5893,-2.5893,-2.5893,-2.5536,-2.4977,-2.4723,-2.4192,-2.3547,-2.3215,-2.3155,-2.3305,-2.3767,-2.3985,-2.3972,-2.3695,-2.4079,-2.4726,-2.5134,-2.5605,-2.6015,-2.6122,-2.5974,-2.5646,-2.5147,-2.5006,-2.4793,-2.4034,-2.3816,-2.3741,-2.3535,-2.3891,-2.3981,-2.3289,-2.3923,-2.4485,-2.437,-2.3965,-2.4182,-2.5536,-1.9394,-1.5196,-1.6009,-0.4294,0.36,0.36,0.9362,1.2004,0.9734,0.992,0.8449,0.4829,0.4642,0.4503,0.4219,0.5395,0.5789,0.5362,0.5479,0.544,0.5243,0.5282,0.5362,1.0102,1.0565,1.0972,1.0744,1.0675,1.0718,1.0947,0.0,0.0,0.0,0.0,0.0,0.0,0.9035,1.1336,0.8595,0.1376,-0.6062,-1.2228,-1.9789,-2.4306,-2.3167,-2.4872,-2.6099,-2.6016,-2.7028,-2.756,-2.7295,-2.6945,-2.6683,-2.6431,-2.6123,-2.5948,-2.5921,-2.5702,-2.5578,-2.5578,-2.5578,-2.5674,-2.5893,-2.537,-2.5272,-2.5494,-2.555,-2.555,-2.5522,-2.5771,-2.5893,-2.5893,-2.5893,-2.5893,-2.5893,-2.5893,-2.5536,-2.5033,-2.5189,-2.4553,-2.3547,-2.3215,-2.3352,-2.3636,-2.3228,-2.3365,-2.3547,-2.2823,-2.3429,-2.4266,-2.3774,-2.4108,-2.4595,-2.4624,-2.4496,-2.431,-2.4195,-2.4595,-2.4679,-2.3505,-2.3535,-2.3475,-2.2396,-2.2044,-2.1865,-2.1741,-2.2809,-2.3467,-2.2834,-2.3761,-2.4599,-2.4867,-1.9033,-1.5196,-1.6009,-0.4294,0.36,0.36,0.7902,0.9654,0.7384,0.9048,0.8145,0.3791,0.3461,0.2966,0.2075,0.3789,0.4572,0.4341,0.5007,0.5246,0.5054,0.5207,0.5126,0.9629,0.9991,1.036,1.0641,1.0922,1.1175,1.1301,1.1498,0.0,0.0,0.0,0.0,0.4479,0.2908,-0.0401,-0.909,-1.0171,-1.1012,-1.4205,-2.0498,-2.3336,-1.9341,-2.3312,-2.6252,-2.5909,-2.6982,-2.7549,-2.7233,-2.6814,-2.651,-2.631,-2.6042,-2.5893,-2.5893,-2.5647,-2.5494,-2.5494,-2.499,-2.4977,-2.5425,-2.5118,-2.4977,-2.4977,-2.5341,-2.5411,-2.5244,0.0,-2.5893,-2.5893,-2.5893,-2.5893,-2.5893,-2.5893,-2.5729,-2.5467,-2.5412,-2.4753,-2.3826,-2.3577,-2.3412,-2.3275,-2.2909,-2.2939,-2.3005,-2.2543,-2.2793,-2.3173,-2.2811,-2.3399,-2.415,-2.4263,-2.415,-2.3933,-2.3581,-2.3682,-2.3607,-2.2659,-2.2494,-2.2329,-2.1745,-2.1796,-2.1784,-2.1368,-2.2175,-2.2774,-2.2463,-1.9941,-1.8437,-1.9294,-1.2664,-0.8177,-0.9,-0.0477,0.5281,0.5281,0.8248,0.8632,0.5119,0.4734,0.3707,0.1637,0.2032,0.2074,0.1607,0.2969,0.3828,0.4107,0.446,0.4776,0.5018,0.5093,0.4935,0.9237,0.955,0.9991,1.0557,0.0,1.1394,1.1759,1.1981,0.0,0.0,0.0,1.0381,0.4388,-0.2129,-0.967,-1.8997,-1.7363,-1.5377,-1.667,-2.1453,-2.2699,-1.7032,-2.21,-2.5962,-2.5716,-2.6677,-2.7208,-2.7049,-2.6709,-2.6404,-2.6217,-2.6015,-2.5839,-2.5702,-2.5411,-2.5201,-2.5047,-2.4276,-2.4218,-2.4878,-2.475,-2.4593,-2.4436,-2.5075,-2.5257,-2.5033,-2.5647,-2.5893,-2.5893,-2.5893,-2.5893,-2.5893,-2.5893,-2.5921,-2.5893,-2.5508,-2.5077,-2.4567,-2.3946,-2.3636,-2.3412,-2.2987,-2.2818,-2.2757,-2.2622,-2.2469,-2.2328,-2.2216,-2.2811,-2.3564,-2.3767,-2.3636,-2.3357,-2.2919,-2.2829,-2.2647,-2.1987,-2.1757,-2.1577,-2.142,-2.1784,-2.192,-2.1316,-2.1616,-2.1923,-2.1923,-1.736,-1.443,-1.5844,-0.8686,-0.3404,-0.3124,0.2318,0.5928,0.5929,0.753,0.6817,0.2871,0.0977,0.0,0.0,0.0784,0.1215,0.1215,0.219,0.2932,0.3443,0.3832,0.4265,0.474,0.4898,0.474,0.8831,0.9413,0.9994,1.0038,1.0087,0.0,1.1939,1.1877,0.0,1.2288,0.0,1.0704,0.491,-0.0933,-0.5186,-0.6113,-1.1021,-1.687,-2.3009,-2.4102,-2.4012,-2.3359,-2.414,-2.4918,-2.5375,-2.5967,-2.6367,-2.6546,-2.651,-2.6324,-2.5948,-2.5921,-2.5647,-2.509,-2.4723,-2.4308,-2.3754,-2.3365,-2.3619,-2.4523,-2.3956,-2.3852,-2.4147,-2.4778,-2.5033,-2.5033,-2.5647,-2.5893,-2.5893,-2.5893,-2.5893,-2.5893,-2.5893,-2.5975,-2.6002,-2.5411,-2.5674,-2.6054,-2.4253,-2.4323,-2.4993,-2.3686,-2.3165,-2.3058,-2.3058,-2.2671,-2.2228,-2.2197,-2.2123,-2.2111,-2.2309,-2.2092,-2.1874,-2.1956,-2.2322,-2.2463,-2.1843,-2.2037,-2.2156,-2.1514,-2.1336,-2.1285,-2.1221,-2.0853,-2.054,-2.054,-1.9135,-1.8392,-1.9243,-1.2833,-0.6884,-0.347,0.0933,0.3645,0.3621,0.3787,0.2832,0.0392,0.0078,0.0,0.0,0.0079,0.0118,0.0118,0.098,0.1449,0.1488,0.3051,0.383,0.391,0.4659,0.4584,0.856,0.9073,0.964,0.9736,0.9803,0.0,0.0,1.2591,1.2636,1.2735,1.3023,1.1273,0.4842,-0.0747,-0.5836,-1.0228,-1.2989,-1.6882,-2.3502,-2.4213,-2.4024,-2.3882,-2.423,-2.4652,-2.5114,-2.5638,-2.5845,-2.5658,-2.5563,-2.5329,-2.4921,-2.4921,-2.4836,-2.4694,-2.4408,-2.4031,-2.3607,-2.3108,-2.303,-2.3378,-2.3318,-2.3467,-2.3793,-2.4247,-2.4664,-2.5033,-2.5467,-2.5743,-2.5893,-2.5893,-2.5893,-2.5893,-2.5893,-2.5975,-2.6056,-2.5839,-2.5783,-2.5701,-2.4881,-2.4368,-2.4008,-2.3374,-2.3148,-2.3027,-2.2641,-2.2641,-2.2671,-2.2142,-2.1906,-2.1843,-2.2135,-2.1949,-2.173,-2.1874,-2.187,-2.1784,-2.1557,-2.1588,-2.1588,-2.1305,-2.057,-1.9955,-1.9955,-1.9138,-1.8468,-1.8468,-1.4993,-1.2528,-1.2825,-0.9693,-0.6917,-0.5496,-0.3287,-0.0823,0.1999,0.2235,0.1588,0.0078,0.0,0.0,0.0,0.0,0.0,0.0,0.0314,0.0745,0.1293,0.1918,0.2776,0.3791,0.3795,0.38,0.8421,0.8817,0.9309,0.9484,0.0,0.0,1.2096,1.2762,1.3132,1.337,1.3643,1.2446,0.7904,0.0604,-0.6184,-1.0674,-1.4945,-1.9211,-2.3591,-2.4051,-2.3861,-2.3668,-2.3852,-2.4051,-2.4264,-2.4725,-2.4904,-2.4682,-2.4541,-2.4355,-2.4066,-2.4105,-2.4005,-2.3745,-2.3771,-2.3577,-2.3143,-2.2757,-2.2537,-2.2525,-2.2726,-2.2987,-2.333,-2.375,-2.4234,-2.4736,-2.5159,-2.5508,-2.5771,-2.5866,-2.5893,-2.5893,-2.5893,-2.5893,-2.5907,-2.6016,-2.5743,-2.5328,-2.5189,-2.4511,-2.3699,-2.3416,-2.3207,-2.3027,-2.2561,-2.2549,-2.2628,-2.2037,-2.1769,-2.1686,-2.198,-2.1781,-2.1592,-2.1706,-2.1526,-2.1336,-2.1336,-2.1253,-2.1051,-2.0634,-1.9846,-1.906,-1.8652,-1.7532,-1.6686,-1.6686,-1.3009,-1.0219,-1.0219,-0.9408,-0.8463,-0.74,-0.5121,-0.2565,0.0193,0.0077,-0.0271,-0.0588,-0.0588,-0.0431,0.0,0.0,0.0,0.0,0.0,0.0275,0.0902,0.1176,0.1879,0.301,0.2935,0.3015,0.848,0.8692,0.9061,0.9342,0.0,0.0,1.1731,1.2242,1.2864,1.4203,1.4284,1.4226,1.4628,0.3471,-0.5468,-0.4454,-1.5659,-2.4395,-2.4046,-2.3882,-2.3668,-2.3341,-2.3157,-2.2982,-2.2717,-2.3045,-2.339,-2.3661,-2.3618,-2.355,-2.3466,-2.3644,-2.3229,-2.2115,-2.2731,-2.2811,-2.2185,-2.2185,-2.2197,-2.2197,-2.2197,-2.2383,-2.2708,-2.3322,-2.3796,-2.4118,-2.4736,-2.5188,-2.5522,-2.5771,-2.5893,-2.5893,-2.5893,-2.5716,-2.5522,-2.5798,-2.5619,-2.5202,-2.5061,-2.4878,-2.4582,-2.4005,-2.3475,-2.3058,-2.2919,-2.2427,-2.1894,-2.1894,-2.1663,-2.1431,-2.1624,-2.1466,-2.1221,-2.1368,-2.1305,-2.119,-2.119,-2.119,-2.0784,-1.9466,-1.9192,-1.8752,-1.7508,-1.6235,-1.5369,-1.5369,-1.4314,-1.3492,-1.3492,-1.3492,-1.2221,-0.8943,-0.3734,-0.0845,-0.1835,-0.3004,-0.3198,-0.1993,-0.1916,-0.133,-0.0079,0.0,0.0,0.0,0.0,0.0,0.0,0.0862,0.1293,0.1332,0.2113,0.2271,0.8942,0.8916,0.8891,0.9585,1.0018,0.0,0.0,1.1821,0.0,0.0,1.3672,1.2679,0.8894,0.4522,-0.1172,-0.9357,-1.4238,-1.861,-2.3216,-2.3545,-2.3238,-2.3038,-2.2443,-2.2144,-2.2396,-2.2099,-2.1826,-2.1665,-2.1377,-2.1108,-2.083,-2.087,-2.0796,-2.0549,-2.1416,-2.1702,-2.1285,-2.1737,-2.1999,-2.1999,-2.2123,-2.2383,-2.2708,-2.3078,-2.3573,-2.4118,-2.4494,-2.485,-2.5159,-2.523,-2.5411,-2.5619,-2.5619,-2.5578,-2.5522,-2.5798,-2.5811,-2.5702,-2.5647,-2.4992,-2.4166,-2.3888,-2.3416,-2.2859,-2.2254,-2.2211,-2.2279,-2.1714,-2.1494,-2.14,-2.136,-2.1265,-2.1221,-2.1368,-2.1305,-2.119,-2.119,-2.0473,-1.9673,-1.9269,-1.776,-1.64,-1.6027,-1.4898,-1.4078,-1.4078,-1.3731,-1.3229,-1.2542,-1.2425,-1.1527,-0.912,-0.6623,-0.4939,-0.4554,-0.3742,-0.3122,-0.2773,-0.2462,-0.2034,-0.1369,-0.0471,0.0,0.0,0.0,0.0,0.0,0.0275,0.0706,0.1293,0.1216,0.1412,0.8626,0.8864,0.9213,0.9644,1.0246,1.0866,1.1403,1.2219,1.3019,1.3472,1.2073,0.9679,0.6121,0.0997,-0.4997,-1.194,-1.5729,-1.9043,-2.2636,-2.2838,-2.2475,-2.2105,-2.1534,-2.116,-2.1104,-2.0746,-2.0345,-2.0,-1.9552,-1.9181,-1.897,-1.9028,-1.9018,-1.8873,-1.9716,-2.007,-1.9863,-2.0268,-2.0692,-2.116,-2.1357,-2.1784,-2.2402,-2.2635,-2.3047,-2.3573,-2.4118,-2.4679,-2.5188,-2.5033,-2.5188,-2.5494,-2.5341,-2.5216,-2.5159,-2.5578,-2.5564,-2.5411,-2.5784,-2.4951,-2.3728,-2.3699,-2.3118,-2.2304,-2.1769,-2.1839,-2.2021,-2.1545,-2.1368,-2.1305,-2.1221,-2.119,-2.1221,-2.1305,-2.0869,-2.0398,-2.0398,-1.9378,-1.8318,-1.7794,-1.646,-1.5236,-1.4728,-1.4013,-1.3492,-1.3492,-1.3149,-1.2549,-1.1527,-1.1044,-1.034,-0.9112,-0.7952,-0.6796,-0.5684,-0.4988,-0.4407,-0.3902,-0.3474,-0.3164,-0.289,-0.137,-0.0353,0.0,0.0,0.0,0.0,0.0,0.0275,0.0784,0.051,0.0628,0.802,0.872,0.9735,0.9639,1.0595,1.1659,1.2148,1.2869,1.3529,1.3949,0.9882,0.5932,0.4918,-0.5303,-1.3501,-1.3332,-1.9015,-2.3113,-2.21,-2.1852,-2.1496,-2.0782,-2.047,-2.0016,-1.9244,-1.9089,-1.8896,-1.8555,-1.8008,-1.7659,-1.7603,-1.7788,-1.7636,-1.7173,-1.781,-1.8187,-1.8187,-1.8248,-1.8779,-1.9806,-2.0083,-2.0715,-2.1658,-2.2044,-2.2445,-2.28,-2.3662,-2.4549,-2.5355,-2.5047,-2.5103,-2.5383,-2.5061,-2.4736,-2.4523,-2.5159,-2.5033,-2.4624,-2.5425,-2.4654,-2.3344,-2.3391,-2.2616,-2.1624,-2.1431,-2.1388,-2.1388,-2.1388,-2.1273,-2.1158,-2.1051,-2.1019,-2.0987,-2.088,-1.9987,-1.9159,-1.906,-1.804,-1.6789,-1.5607,-1.5298,-1.4863,-1.3702,-1.3492,-1.3455,-1.3382,-1.2579,-1.1601,-1.049,-0.9556,-0.896,-0.8884,-0.7897,-0.6857,-0.5841,-0.6272,-0.6198,-0.5184,-0.4683,-0.4411,-0.4334,-0.2464,-0.1019,-0.0118,-0.0118,-0.0079,0.0,0.0,0.0,0.0,0.0,0.0,0.9051,0.8973,0.8989,1.0137,1.1555,1.2953,1.4039,1.0682,0.8279,1.1517,0.8744,0.4186,-0.0924,-0.7325,-1.3324,-1.7907,-1.9898,-2.0908,-2.0992,-2.0841,-2.0495,-1.9851,-1.9271,-1.8732,-1.817,-1.755,-1.7145,-1.7066,-1.6467,-1.6074,-1.6087,-1.6096,-1.6069,-1.5977,-1.6815,-1.7296,-1.7296,-1.7842,-1.819,-1.8275,-1.9077,-1.9565,-1.9851,-2.1716,-2.2739,-2.3047,-2.3497,-2.3956,-2.4392,-2.4332,-2.4463,-2.4694,-2.4637,-2.4337,-2.4005,-2.4523,-2.4709,-2.4612,-2.4339,-2.4005,-2.3594,-2.2877,-2.2094,-2.1431,-2.1285,-2.1253,-2.1253,-2.1253,-2.1221,-2.0955,-1.9912,-1.964,-1.9367,-1.8395,-1.8696,-1.8928,-1.7915,-1.6711,-1.5721,-1.5439,-1.4593,-1.384,-1.3564,-1.3492,-1.3229,-1.2425,-1.2124,-1.1341,-0.9561,-0.915,-0.8699,-0.7902,-0.6465,-0.596,-0.7011,-0.5461,-0.488,-0.589,-0.5279,-0.4579,-0.3947,-0.2854,-0.184,-0.1019,-0.1019,-0.0667,0.0,0.0,0.0,0.0,0.0,0.0,0.8827,0.9268,0.995,1.0954,1.1844,1.262,1.3403,1.1019,0.9163,1.098,0.3949,-0.3458,-0.6415,-1.1524,-1.6228,-1.916,-1.984,-1.9948,-1.9762,-1.9594,-1.9179,-1.8401,-1.795,-1.7562,-1.7257,-1.6634,-1.6189,-1.6056,-1.5497,-1.5128,-1.5079,-1.508,-1.5051,-1.5051,-1.5552,-1.5789,-1.5718,-1.6105,-1.6487,-1.6911,-1.7466,-1.8314,-1.9413,-2.1236,-2.2314,-2.2749,-2.3174,-2.3603,-2.3943,-2.3835,-2.391,-2.4134,-2.3728,-2.3607,-2.3632,-2.3783,-2.3702,-2.3546,-2.3627,-2.3272,-2.2719,-2.2482,-2.1889,-2.1273,-2.1221,-2.119,-2.119,-2.119,-2.0741,-2.0085,-1.9367,-1.8752,-1.7972,-1.6677,-1.6917,-1.7216,-1.6538,-1.5377,-1.4486,-1.4486,-1.3941,-1.3492,-1.3492,-1.3112,-1.2432,-1.1415,-1.0858,-1.0002,-0.8466,-0.828,-0.8012,-0.7288,-0.643,-0.6157,-0.6822,-0.5506,-0.5004,-0.586,-0.5323,-0.4779,-0.4265,-0.3795,-0.2974,-0.1763,-0.1724,-0.1451,-0.0902,-0.0902,-0.0902,-0.0902,-0.0902,-0.0746,0.8422,0.9492,1.1027,1.1565,1.1825,1.205,1.2359,1.1576,1.0634,1.0179,-0.0461,-0.9537,-0.9035,-1.4431,-1.882,-1.8439,-1.8939,-1.9082,-1.8315,-1.8089,-1.7654,-1.6641,-1.6407,-1.6304,-1.6189,-1.5748,-1.54,-1.5294,-1.4736,-1.4419,-1.4515,-1.4417,-1.4387,-1.4387,-1.4455,-1.4357,-1.4169,-1.4207,-1.4683,-1.5576,-1.5888,-1.7097,-1.9028,-2.0204,-2.1229,-2.213,-2.2608,-2.3085,-2.3518,-2.3348,-2.3382,-2.3535,-2.2864,-2.2829,-2.3108,-2.2889,-2.2537,-2.2256,-2.2797,-2.2402,-2.1674,-2.2051,-2.1733,-2.119,-2.119,-2.1051,-2.0848,-2.0848,-1.989,-1.8818,-1.8609,-1.777,-1.6651,-1.5377,-1.5067,-1.5067,-1.5067,-1.425,-1.3492,-1.3492,-1.3346,-1.3193,-1.3003,-1.2285,-1.1415,-1.0378,-0.9523,-0.8623,-0.7638,-0.7484,-0.733,-0.6938,-0.6822,-0.663,-0.624,-0.5786,-0.5521,-0.5598,-0.521,-0.4898,-0.4701,-0.4701,-0.3995,-0.2549,-0.243,-0.2195,-0.1882,-0.1882,-0.1882,-0.1882,-0.1882,-0.1569,0.9114,0.9631,1.0342,1.1107,1.1966,1.2856,1.3584,0.9391,0.5465,0.5901,0.1294,-0.2972,-0.3464,-1.0541,-1.6312,-1.631,-1.6778,-1.6913,-1.6282,-1.6164,-1.5764,-1.469,-1.4553,-1.4532,-1.4531,-1.3974,-1.3953,-1.4745,-1.3825,-1.3601,-1.4446,-1.4109,-1.389,-1.389,-1.4178,-1.4079,-1.3601,-1.3881,-1.4127,-1.4252,-1.5117,-1.5993,-1.6938,-1.7687,-1.9193,-2.1272,-2.1637,-2.2018,-2.242,-2.2616,-2.2725,-2.2743,-2.2622,-2.2402,-2.2063,-2.1753,-2.1667,-2.1631,-2.1144,-2.1259,-2.1581,-2.142,-2.1285,-2.119,-2.119,-2.0398,-1.9466,-1.9466,-1.8552,-1.7303,-1.6192,-1.5782,-1.5342,-1.4042,-1.3731,-1.3731,-1.3731,-1.363,-1.3492,-1.3492,-1.2806,-1.1903,-1.105,-1.0789,-1.0378,-0.9334,-0.9074,-0.8623,-0.7638,-0.7484,-0.733,-0.6938,-0.6553,-0.6279,-0.6202,-0.5515,-0.521,-0.5559,-0.521,-0.4898,-0.4701,-0.4701,-0.4428,-0.3843,-0.329,-0.2624,-0.1882,-0.1882,-0.1882,-0.1882,-0.1882,-0.1648,0.9445,0.9289,0.925,0.9597,0.9661,0.9687,1.0044,0.7541,0.4992,0.4459,0.0807,-0.3006,-0.5381,-1.0788,-1.4903,-1.4899,-1.5102,-1.5171,-1.4926,-1.4895,-1.4641,-1.3897,-1.3816,-1.3786,-1.3704,-1.3472,-1.3411,-1.3704,-1.3282,-1.3191,-1.364,-1.345,-1.3359,-1.3359,-1.348,-1.3428,-1.3094,-1.3255,-1.3467,-1.3722,-1.4864,-1.5623,-1.6026,-1.6767,-1.8121,-1.9907,-2.0352,-2.0938,-2.1583,-2.1723,-2.194,-2.2144,-2.1573,-2.1396,-2.1376,-2.0656,-2.042,-2.0441,-2.015,-2.042,-2.091,-2.0784,-2.0955,-2.1126,-2.0828,-2.0031,-1.917,-1.8882,-1.7576,-1.6096,-1.5545,-1.4863,-1.4178,-1.363,-1.3492,-1.3492,-1.3492,-1.3492,-1.3339,-1.2769,-1.2027,-1.136,-1.0913,-1.0383,-0.9857,-0.941,-0.8656,-0.7936,-0.7249,-0.7173,-0.6903,-0.6251,-0.598,-0.5786,-0.5553,-0.521,-0.5057,-0.5249,-0.4976,-0.474,-0.4543,-0.4428,-0.4233,-0.3921,-0.3763,-0.3448,-0.2978,-0.2978,-0.2978,-0.2978,-0.2978,-0.2549,0.9293,0.893,0.8608,0.8038,0.7551,0.7136,0.6836,0.6064,0.5099,0.4053,0.019,-0.381,-0.6567,-1.0837,-1.3894,-1.3729,-1.3927,-1.4028,-1.3805,-1.3781,-1.3588,-1.3078,-1.3025,-1.3025,-1.3025,-1.2934,-1.2895,-1.2978,-1.2765,-1.2742,-1.2978,-1.2887,-1.2834,-1.2834,-1.2895,-1.2842,-1.2613,-1.2858,-1.3155,-1.3502,-1.4647,-1.5206,-1.5332,-1.594,-1.6889,-1.8108,-1.8976,-1.9824,-2.0586,-2.0817,-2.1087,-2.1253,-2.0632,-2.0528,-2.0624,-1.9726,-1.9407,-1.9407,-1.9407,-1.966,-2.0009,-2.0139,-2.0334,-2.0452,-2.0053,-1.9147,-1.8174,-1.7823,-1.6349,-1.4934,-1.4934,-1.4214,-1.3492,-1.3492,-1.3492,-1.3492,-1.3492,-1.3302,-1.2849,-1.1946,-1.1211,-1.0657,-1.0507,-0.9863,-0.9372,-0.9372,-0.8394,-0.7522,-0.7096,-0.698,-0.6556,-0.5676,-0.5598,-0.5443,-0.5015,-0.5018,-0.4979,-0.4937,-0.4779,-0.4582,-0.4345,-0.4194,-0.3999,-0.3802,-0.396,-0.396,-0.3802,-0.3802,-0.3724,-0.3608,-0.3608,-0.3096,0.8404,0.8753,0.8924,0.6759,0.69,0.7265,0.6137,0.5061,0.4258,0.4186,0.0257,-0.3245,-0.345,-0.8836,-1.3099,-1.2655,-1.3485,-1.3814,-1.2749,-1.2596,-1.2366,-1.1771,-1.1716,-1.1872,-1.2305,-1.1965,-1.205,-1.2917,-1.2166,-1.2042,-1.2948,-1.2566,-1.2336,-1.2336,-1.2644,-1.2582,-1.2151,-1.3025,-1.348,-1.3511,-1.4198,-1.4545,-1.4565,-1.4595,-1.5039,-1.5876,-1.7672,-1.8702,-1.9186,-2.0084,-2.0166,-1.9745,-2.021,-2.0107,-1.9605,-1.9042,-1.8841,-1.8841,-1.8841,-1.8875,-1.8975,-1.9473,-1.9199,-1.8626,-1.8593,-1.7201,-1.5572,-1.558,-1.4629,-1.3601,-1.3601,-1.3564,-1.3492,-1.3492,-1.3492,-1.3492,-1.3492,-1.2732,-1.1903,-1.1254,-1.0351,-0.9485,-0.8927,-0.878,-0.8737,-0.8737,-0.8365,-0.791,-0.7522,-0.7134,-0.6556,-0.5676,-0.5598,-0.5443,-0.5015,-0.5018,-0.4937,-0.474,-0.4701,-0.4506,-0.4118,-0.4118,-0.3999,-0.3802,-0.3802,-0.3802,-0.3802,-0.3802,-0.3569,-0.3141,-0.3141,-0.2707,0.8009,0.7744,0.7502,0.6129,0.512,0.418,0.3148,0.1822,0.0463,-0.0692,-0.2954,-0.5023,-0.5938,-0.8669,-1.0752,-1.0609,-1.1097,-1.1401,-1.1132,-1.1101,-1.1045,-1.0965,-1.0972,-1.1028,-1.1185,-1.1059,-1.1185,-1.1732,-1.1459,-1.1529,-1.2073,-1.1926,-1.184,-1.184,-1.1965,-1.1934,-1.1778,-1.2712,-1.3169,-1.3191,-1.407,-1.4515,-1.4515,-1.4714,-1.498,-1.5264,-1.6422,-1.7355,-1.8051,-1.8392,-1.8788,-1.9134,-1.9019,-1.9013,-1.9008,-1.8472,-1.8506,-1.8741,-1.8414,-1.8418,-1.859,-1.8422,-1.8089,-1.7663,-1.7322,-1.6383,-1.5334,-1.4969,-1.4222,-1.3492,-1.3492,-1.3492,-1.3382,-1.301,-1.2936,-1.2826,-1.2415,-1.1848,-1.1248,-1.0625,-0.9911,-0.9349,-0.9127,-0.9089,-0.9013,-0.8742,-0.8589,-0.8055,-0.6822,-0.6784,-0.6479,-0.5326,-0.521,-0.5171,-0.5018,-0.4898,-0.4779,-0.4701,-0.4467,-0.4233,-0.4118,-0.396,-0.3882,-0.3802,-0.3491,-0.3335,-0.3335,-0.3335,-0.3139,-0.2707,-0.2707,-0.2431,0.7782,0.719,0.6629,0.551,0.4043,0.2541,0.127,-0.0368,-0.2045,-0.3511,-0.4803,-0.5994,-0.6924,-0.7934,-0.8844,-0.9544,-0.9862,-1.0059,-1.0269,-1.0301,-1.0371,-1.0593,-1.0593,-1.0593,-1.0593,-1.0593,-1.0688,-1.0933,-1.094,-1.109,-1.1404,-1.1435,-1.1466,-1.1591,-1.1591,-1.1591,-1.1591,-1.2382,-1.2834,-1.3009,-1.3851,-1.4378,-1.4556,-1.4793,-1.497,-1.5088,-1.5575,-1.6287,-1.7051,-1.7384,-1.7779,-1.8186,-1.8214,-1.824,-1.8315,-1.8094,-1.8245,-1.8472,-1.811,-1.7978,-1.7896,-1.7531,-1.6964,-1.6323,-1.5983,-1.5359,-1.4692,-1.4322,-1.3876,-1.3455,-1.3236,-1.3046,-1.279,-1.2378,-1.2305,-1.212,-1.1521,-1.1074,-1.07,-1.0443,-0.9809,-0.9359,-0.9473,-0.9511,-0.9354,-0.897,-0.878,-0.8203,-0.6822,-0.6784,-0.6479,-0.5326,-0.5212,-0.5135,-0.5018,-0.4859,-0.4779,-0.4701,-0.4467,-0.4235,-0.4118,-0.3802,-0.3645,-0.3569,-0.3139,-0.2826,-0.2707,-0.2826,-0.2707,-0.2314,-0.2314,-0.2079,0.0,0.0,0.0,0.4905,0.3875,0.2706,0.077,-0.1205,-0.2878,-0.3613,-0.4918,-0.5888,-0.5888,-0.6453,-0.7559,-0.9602,-0.992,-0.999,-1.0206,-1.0238,-1.0333,-1.053,-1.0561,-1.0561,-1.0561,-1.0561,-1.0561,-1.0593,-1.0593,-1.0719,-1.1059,-1.109,-1.1247,-1.1591,-1.1591,-1.1591,-1.1591,-1.2058,-1.2544,-1.3009,-1.3541,-1.4121,-1.4715,-1.4715,-1.4902,-1.5215,-1.5215,-1.5546,-1.6144,-1.7072,-1.7183,-1.6879,-1.7819,-1.7853,-1.7432,-1.7852,-1.7974,-1.7974,-1.7974,-1.7476,-1.6828,-1.6828,-1.5799,-1.4573,-1.4573,-1.4086,-1.3492,-1.3499,-1.3455,-1.3346,-1.2716,-1.215,-1.1706,-1.1669,-1.1669,-1.1521,-1.0887,-1.0481,-1.0331,-1.07,-0.9992,-0.9435,-0.9809,-0.9884,-0.9733,-0.9322,-0.8937,-0.8394,-0.7599,-0.7134,-0.6595,-0.5715,-0.5637,-0.5443,-0.5057,-0.5018,-0.4937,-0.4701,-0.4701,-0.4506,-0.4118,-0.3643,-0.3292,-0.3141,-0.2707,-0.2314,-0.196,-0.2314,-0.2275,-0.1882,-0.1882,-0.1687,0.6806,0.0,0.0,0.0,0.0,0.0,0.1303,-0.0367,-0.1904,-0.3113,-0.4519,-0.5624,-0.5848,-0.6445,-0.7171,-0.8069,-0.8194,-0.8323,-0.8721,-0.878,-0.8947,-0.9402,-0.9562,-0.9658,-0.9658,-0.9734,-0.9894,-1.0142,-1.0174,-1.0339,-1.0719,-1.0965,-1.1247,-1.1591,-1.1591,-1.1591,-1.1591,-1.2058,-1.2544,-1.3009,-1.364,-1.421,-1.4715,-1.4961,-1.5117,-1.5215,-1.5313,-1.5449,-1.5594,-1.5859,-1.6098,-1.6366,-1.691,-1.7229,-1.7432,-1.7852,-1.7647,-1.7182,-1.7182,-1.6332,-1.5242,-1.5242,-1.4573,-1.3804,-1.3804,-1.3666,-1.3419,-1.2973,-1.2863,-1.2709,-1.2114,-1.1818,-1.1595,-1.1149,-1.1037,-1.0887,-1.0293,-1.0067,-1.003,-1.0143,-0.9916,-0.9695,-0.9506,-0.9473,-0.9246,-0.8522,-0.8594,-0.8318,-0.7211,-0.7211,-0.7019,-0.6128,-0.6054,-0.586,-0.5482,-0.5285,-0.5051,-0.474,-0.4428,-0.4272,-0.4309,-0.3567,-0.3452,-0.4034,-0.3176,-0.2902,-0.3292,-0.2902,-0.2276,-0.1452,-0.1452,-0.1414,0.5811,0.5484,0.5223,0.5259,0.0,0.0,0.1234,-0.02,-0.1604,-0.3318,-0.4592,-0.5458,-0.565,-0.6247,-0.6782,-0.7003,-0.7036,-0.7265,-0.7917,-0.8107,-0.8333,-0.8753,-0.9011,-0.921,-0.9306,-0.9376,-0.951,-0.9766,-0.9798,-0.9958,-1.0339,-1.0839,-1.1185,-1.1373,-1.1529,-1.1591,-1.1591,-1.1872,-1.2236,-1.2712,-1.339,-1.3992,-1.4529,-1.4961,-1.5235,-1.5284,-1.5362,-1.541,-1.541,-1.541,-1.5557,-1.584,-1.6279,-1.6519,-1.6683,-1.7092,-1.6896,-1.6411,-1.6411,-1.5596,-1.4601,-1.4601,-1.4086,-1.3492,-1.3492,-1.3309,-1.3046,-1.2709,-1.2224,-1.1781,-1.1409,-1.1149,-1.085,-1.0519,-1.0406,-1.0331,-0.9992,-0.9884,-0.9884,-0.9884,-0.9771,-0.9587,-0.9322,-0.9165,-0.8822,-0.8178,-0.8289,-0.8131,-0.7249,-0.7365,-0.7249,-0.6553,-0.6318,-0.6051,-0.5637,-0.5326,-0.5051,-0.474,-0.4548,-0.4467,-0.4384,-0.3565,-0.3448,-0.4151,-0.2862,-0.2589,-0.3372,-0.3057,-0.2588,-0.1924,-0.1846,-0.1805,0.0,0.0,0.0,0.4821,0.4389,0.0,0.1033,-0.02,-0.1436,-0.3522,-0.4561,-0.5123,-0.5193,-0.5752,-0.6185,-0.6284,-0.6284,-0.6613,-0.7503,-0.7917,-0.8204,-0.8425,-0.8721,-0.8985,-0.921,-0.9242,-0.9274,-0.9382,-0.9414,-0.9574,-0.9983,-1.0618,-1.0996,-1.0996,-1.1373,-1.1529,-1.1498,-1.156,-1.184,-1.2305,-1.2934,-1.3563,-1.4213,-1.4843,-1.5225,-1.541,-1.5323,-1.5352,-1.5381,-1.5264,-1.5235,-1.5342,-1.5798,-1.5782,-1.5546,-1.5945,-1.5867,-1.5569,-1.5569,-1.51,-1.4466,-1.4466,-1.4013,-1.3492,-1.3419,-1.3046,-1.2562,-1.2452,-1.1595,-1.0738,-1.07,-1.0331,-0.9954,-0.996,-0.9922,-0.9922,-0.9922,-0.9922,-0.9922,-0.9922,-0.9582,-0.9284,-0.9246,-0.8899,-0.8518,-0.8102,-0.8025,-0.7872,-0.7484,-0.7442,-0.7288,-0.6861,-0.6433,-0.6051,-0.5637,-0.5287,-0.4976,-0.474,-0.4898,-0.4818,-0.4462,-0.364,-0.3407,-0.3919,-0.2433,-0.2119,-0.3022,-0.3056,-0.3017,-0.2863,-0.2628,-0.2511,0.3445,0.3585,0.4025,0.3854,0.4123,0.0,0.2177,0.1203,0.02,-0.141,-0.2514,-0.3411,-0.4013,-0.445,-0.4921,-0.5491,-0.5594,-0.5921,-0.6913,-0.7396,-0.7754,-0.8047,-0.8236,-0.8495,-0.8867,-0.8753,-0.8651,-0.8689,-0.8861,-0.9253,-0.9951,-1.0142,-1.0301,-1.046,-1.0933,-1.1122,-1.0965,-1.1373,-1.184,-1.2305,-1.2551,-1.3213,-1.4213,-1.4499,-1.4922,-1.5381,-1.4883,-1.4942,-1.5323,-1.4282,-1.4201,-1.4723,-1.5114,-1.5083,-1.483,-1.5321,-1.5213,-1.4816,-1.4816,-1.433,-1.3702,-1.3702,-1.3637,-1.3419,-1.2936,-1.2673,-1.2415,-1.1409,-1.0738,-1.0293,-1.0105,-1.0218,-1.0331,-1.018,-1.0143,-1.0143,-1.0143,-1.0143,-1.0143,-1.0143,-0.9695,-0.9208,-0.8856,-0.8479,-0.8063,-0.7676,-0.7599,-0.748,-0.7057,-0.7019,-0.6822,-0.6395,-0.624,-0.6051,-0.5637,-0.5521,-0.5326,-0.4976,-0.4818,-0.4779,-0.4898,-0.4114,-0.3997,-0.4742,-0.4272,-0.4153,-0.4309,-0.3331,-0.3018,-0.3253,-0.2744,-0.2511,0.241,0.2479,0.2817,0.2917,0.3387,0.0,0.0,0.1037,0.0401,-0.104,-0.2078,-0.2811,-0.3178,-0.3747,-0.432,-0.4791,-0.509,-0.5455,-0.6053,-0.6609,-0.7134,-0.7689,-0.7814,-0.8009,-0.8468,-0.8274,-0.8242,-0.863,-0.8797,-0.9151,-0.9734,-0.976,-0.9849,-1.0053,-1.0649,-1.0902,-1.0807,-1.1341,-1.1716,-1.1965,-1.2305,-1.281,-1.3394,-1.4163,-1.4677,-1.4942,-1.4617,-1.4677,-1.4883,-1.3893,-1.3502,-1.3571,-1.4105,-1.4101,-1.3867,-1.4239,-1.4156,-1.3821,-1.3988,-1.3622,-1.3046,-1.3046,-1.2863,-1.2562,-1.2224,-1.1929,-1.1521,-1.0625,-1.0218,-1.0067,-1.0067,-1.0218,-1.0368,-1.0368,-1.0255,-1.0218,-1.0218,-1.0105,-1.0067,-1.0067,-0.9657,-0.9208,-0.8889,-0.8441,-0.7949,-0.7561,-0.7326,-0.7134,-0.6942,-0.6707,-0.6472,-0.624,-0.6015,-0.5825,-0.5598,-0.5404,-0.5171,-0.4859,-0.4859,-0.4859,-0.4859,-0.4268,-0.3917,-0.3921,-0.4426,-0.4426,-0.3921,-0.3608,-0.3567,-0.3724,-0.3331,-0.3137,0.1373,0.1442,0.1643,0.2047,0.2485,0.245,0.0,0.0,0.0,-0.104,-0.1776,-0.221,-0.2377,-0.3045,-0.3716,-0.4018,-0.4553,-0.499,-0.5263,-0.576,-0.6379,-0.7199,-0.7228,-0.7419,-0.8004,-0.7754,-0.7829,-0.8544,-0.87,-0.8926,-0.9285,-0.9364,-0.9498,-0.9734,-1.0364,-1.0744,-1.0807,-1.1341,-1.1591,-1.1622,-1.2097,-1.2389,-1.2543,-1.3614,-1.4201,-1.4291,-1.4163,-1.4192,-1.4261,-1.3472,-1.2887,-1.2543,-1.31,-1.3108,-1.2827,-1.3037,-1.3017,-1.2876,-1.3085,-1.282,-1.2415,-1.2415,-1.2003,-1.1521,-1.1521,-1.1111,-1.0519,-0.996,-0.9884,-0.996,-0.9992,-1.0143,-1.0293,-1.0406,-1.0331,-1.0218,-1.0218,-1.0067,-0.9954,-0.9954,-0.9695,-0.9392,-0.9117,-0.8518,-0.7949,-0.7561,-0.7173,-0.6822,-0.6672,-0.6325,-0.6051,-0.5973,-0.567,-0.5482,-0.5482,-0.5174,-0.4937,-0.4779,-0.4898,-0.4937,-0.4779,-0.4423,-0.3876,-0.3137,-0.4075,-0.4155,-0.3297,-0.3806,-0.404,-0.404,-0.3882,-0.3802,0.0,0.0875,0.1311,0.1277,0.1745,0.2013,0.1209,0.0,0.0807,0.0,0.0,-0.0505,-0.1176,0.0,0.0,-0.3182,-0.3789,-0.4295,-0.4797,-0.493,-0.5359,-0.6416,-0.6276,-0.6465,-0.7489,-0.7237,-0.7209,-0.7797,-0.7829,-0.8079,-0.8587,-0.8882,-0.9204,-0.9518,-1.0079,-1.0491,-1.0807,-1.1341,-1.1591,-1.1591,-1.1685,-1.1981,-1.2512,-1.2665,-1.3039,-1.3571,-1.3,-1.3061,-1.3511,-1.232,-1.2104,-1.2512,-1.2573,-1.2422,-1.2098,-1.1884,-1.1985,-1.2153,-1.1978,-1.1855,-1.1781,-1.1781,-1.1409,-1.0887,-1.0887,-1.0481,-0.9922,-0.9473,-0.9771,-1.0067,-0.9544,-0.9922,-1.0438,-1.0255,-1.0218,-1.0218,-1.0218,-1.018,-1.018,-1.018,-1.0143,-0.9916,-0.9359,-0.8637,-0.7949,-0.7561,-0.7173,-0.6633,-0.5828,-0.5712,-0.5521,-0.5171,-0.5093,-0.5057,-0.5057,-0.5018,-0.4979,-0.4976,-0.4979,-0.4979,-0.4976,-0.474,-0.4504,-0.4229,-0.4194,-0.4118,-0.4001,-0.3882,-0.3841,-0.3841,-0.3802,-0.3802,-0.1467,-0.1923,-0.2494,-0.1102,-0.1486,-0.1897,-0.0734,-0.0469,-0.057,-0.0873,0.0,0.0,0.0,0.0,0.0,0.0,-0.3357,-0.3828,-0.4161,-0.4295,-0.4791,-0.598,-0.598,-0.6079,-0.6544,-0.6581,-0.6745,-0.7101,-0.7396,-0.7847,-0.8458,-0.8436,-0.863,-0.9081,-0.9498,-0.9786,-0.9945,-1.0737,-1.1153,-1.1153,-1.1435,-1.174,-1.1973,-1.2336,-1.2665,-1.2917,-1.2634,-1.2665,-1.2856,-1.1957,-1.1584,-1.1507,-1.1507,-1.1437,-1.1283,-1.1049,-1.1145,-1.1405,-1.1484,-1.1359,-1.1111,-1.0775,-1.0481,-1.0218,-0.9997,-0.9771,-0.9473,-0.9051,-0.9316,-0.9657,-0.9511,-0.9884,-1.0331,-1.0368,-1.0293,-1.0218,-1.0218,-1.0105,-1.003,-1.003,-1.003,-0.9954,-0.9695,-0.8975,-0.8246,-0.7599,-0.6938,-0.6286,-0.5676,-0.5404,-0.5174,-0.5018,-0.5018,-0.5018,-0.5018,-0.5018,-0.5018,-0.5018,-0.4898,-0.4818,-0.4818,-0.4621,-0.4426,-0.4233,-0.4157,-0.404,-0.3921,-0.3841,-0.3802,-0.3802,-0.3802,-0.3802,-0.4286,-0.4887,-0.557,-0.3346,-0.378,-0.4208,-0.22,-0.1743,-0.1743,-0.1743,-0.1544,0.0,0.0,0.0,-0.2217,0.0,0.0,-0.3627,-0.3355,-0.3692,-0.4323,-0.5345,-0.5583,-0.5657,-0.5591,-0.5921,-0.6218,-0.6478,-0.6937,-0.7489,-0.8199,-0.8079,-0.8279,-0.8926,-0.9177,-0.9434,-0.9716,-1.0453,-1.0863,-1.1028,-1.1404,-1.1591,-1.1622,-1.2035,-1.2243,-1.2243,-1.2243,-1.2243,-1.2212,-1.1615,-1.1153,-1.0776,-1.0485,-1.039,-1.0391,-1.0274,-1.0423,-1.0682,-1.0855,-1.0754,-1.0475,-0.9922,-0.9733,-0.9657,-0.9241,-0.9208,-0.9208,-0.8818,-0.9089,-0.9473,-0.9511,-0.9809,-1.0143,-1.0293,-1.0218,-1.0105,-1.0105,-0.9997,-0.9884,-0.9771,-0.9733,-0.9695,-0.9576,-0.9084,-0.8475,-0.7787,-0.6934,-0.6209,-0.5676,-0.5326,-0.5135,-0.5018,-0.5054,-0.5054,-0.5018,-0.5054,-0.5054,-0.4937,-0.4779,-0.4662,-0.4545,-0.4387,-0.4231,-0.4038,-0.3999,-0.396,-0.3802,-0.3802,-0.3802,-0.3802,-0.3802,-0.3802,-0.9065,-0.7404,-0.651,-0.498,-0.3941,-0.307,-0.2278,-0.2079,-0.2079,-0.2079,-0.2079,-0.2079,-0.2079,0.0,0.0,0.0,0.0,0.0,0.0,-0.3119,-0.3956,-0.432,-0.4818,-0.5057,-0.4864,-0.5196,-0.5561,-0.5892,-0.6251,-0.6741,-0.7489,-0.7819,-0.8404,-0.9274,-0.9306,-0.9779,-1.0744,-1.0776,-1.1059,-1.156,-1.1591,-1.1591,-1.1591,-1.1622,-1.1622,-1.1622,-1.1622,-1.1622,-1.1591,-1.1059,-1.0839,-1.0706,-0.9722,-0.9338,-0.9367,-0.955,-0.978,-0.9985,-0.9744,-0.9765,-0.9846,-0.9435,-0.9322,-0.9246,-0.8856,-0.8975,-0.9208,-0.8818,-0.9273,-0.9809,-0.9397,-0.962,-0.9922,-0.9916,-0.9922,-0.9922,-0.9922,-0.9922,-0.9771,-0.9397,-0.9322,-0.9203,-0.8818,-0.8703,-0.8546,-0.8161,-0.7399,-0.6556,-0.5715,-0.5598,-0.5443,-0.5054,-0.5168,-0.5207,-0.5015,-0.5168,-0.5126,-0.474,-0.4701,-0.4506,-0.4118,-0.4118,-0.3999,-0.3802,-0.3802,-0.3802,-0.3802,-0.3802,-0.3802,-0.3802,-0.3802,-0.3802,0.0,-1.1458,-1.1741,-0.8822,-0.8791,-0.866,-0.5458,-0.4472,-0.4209,-0.4209,-0.348,-0.3149,-0.4212,0.0,0.0,0.0,0.0,0.0,0.0,-0.3391,-0.3558,-0.3923,-0.4192,-0.4459,-0.4661,-0.5126,-0.5462,-0.5561,-0.6086,-0.6515,-0.6741,-0.7106,-0.7531,-0.8107,-0.8339,-0.8694,-0.928,-0.9939,-1.0376,-1.0566,-1.1272,-1.1591,-1.1591,-1.1591,-1.1591,-1.1591,-1.1591,-1.1404,-1.1059,-1.0863,-1.0421,-0.9786,-0.9434,-0.9081,-0.8776,-0.8853,-0.8973,-0.9059,-0.9037,-0.9062,-0.9084,-0.8932,-0.8899,-0.8822,-0.8441,-0.8594,-0.8822,-0.8403,-0.8899,-0.9473,-0.9322,-0.9397,-0.9511,-0.9511,-0.9511,-0.943,-0.916,-0.9316,-0.9392,-0.8975,-0.8899,-0.8856,-0.8742,-0.8475,-0.8174,-0.7748,-0.7249,-0.6595,-0.5715,-0.5598,-0.5482,-0.5246,-0.5129,-0.5132,-0.5207,-0.5129,-0.4976,-0.4701,-0.4582,-0.4387,-0.4118,-0.396,-0.3882,-0.3802,-0.3802,-0.3802,-0.3802,-0.3921,-0.3921,-0.3802,-0.3921,-0.3921,-1.4401,-1.4811,0.0,-1.2098,-1.1896,-1.1571,-0.8201,-0.7025,-0.6648,-0.6648,-0.5676,-0.5315,-0.696,-0.5676,0.0,0.0,0.0,0.0,0.0,-0.3224,-0.3023,-0.3021,-0.3491,-0.3961,-0.4292,-0.4791,-0.516,-0.5292,-0.5756,-0.6185,-0.6552,-0.6548,-0.6835,-0.7489,-0.7554,-0.7852,-0.8376,-0.9358,-0.9926,-1.0117,-1.1108,-1.1591,-1.1591,-1.1591,-1.1591,-1.1591,-1.1404,-1.1122,-1.0776,-1.0421,-0.9881,-0.9274,-0.9087,-0.8732,-0.8317,-0.8317,-0.8371,-0.8461,-0.8632,-0.8703,-0.8665,-0.8513,-0.8475,-0.8441,-0.8178,-0.8365,-0.8665,-0.856,-0.9018,-0.9511,-0.9511,-0.9397,-0.9284,-0.9284,-0.9208,-0.9013,-0.8742,-0.8899,-0.8975,-0.8551,-0.8475,-0.8437,-0.8284,-0.8059,-0.7829,-0.7714,-0.7365,-0.6865,-0.6135,-0.5983,-0.5828,-0.5553,-0.5401,-0.5323,-0.5321,-0.5051,-0.4781,-0.4506,-0.4423,-0.4309,-0.4118,-0.3921,-0.3894,-0.4086,-0.3897,-0.3857,-0.3968,-0.4056,-0.3999,-0.3802,-0.3999,-0.3999]},{"header":{"parameterUnit":"m.s-1","parameterCategory":1,"la1":30.6,"la2":29.2853,"lo1":-89.7004,"lo2":-87.6739,"dy":0.0162,"dx":0.0183,"nx":112,"ny":82,"refTime":"2023-07-22T06:00:00:Z","depth":0,"parameterNumber":3,"parameterNumberName":"V-component_of_WINDS"},"data":[0.0,0.0,0.0,0.0,0.0,0.0,0.0,0.0,0.0,0.0,0.0,0.0,0.0,0.0,0.0,0.0,0.0,0.0,0.0,0.0,0.0,0.0,0.0,0.0,0.0,0.0,0.0,0.0,0.0,0.0,0.0,0.0,0.0,0.0,0.0,0.0,0.0,0.0,0.0,0.0,0.0,0.0,0.0,0.0,0.0,0.0,0.0,0.0,0.0,0.0,0.0,0.0,0.0,0.0,0.0,0.0,0.0,0.0,0.0,0.0,0.0,0.0,0.0,0.0,0.0,0.0,0.0,0.0,0.0,0.0,0.0,0.0,0.0,0.0,0.0,0.0,0.0,0.0,0.0,0.0,0.0,0.0,0.0,0.0,0.0,0.0,0.0,0.0,0.0,0.0,2.0995,2.0996,2.1659,2.2357,2.3034,2.3096,2.3036,2.2903,0.0,0.0,0.0,0.0,0.0,0.0,0.0,0.0,0.0,0.0,0.0,0.0,0.0,0.0,0.0,0.0,0.0,0.0,0.0,0.0,0.0,0.0,0.0,0.0,0.0,0.0,0.0,0.0,0.0,0.0,0.0,0.0,0.0,0.0,0.0,0.0,0.0,0.0,0.0,0.0,0.0,0.0,0.0,0.0,0.0,0.0,0.0,0.0,0.0,0.0,0.0,0.0,0.0,0.0,0.0,0.0,0.0,0.0,0.0,0.0,0.0,0.0,0.0,0.0,0.0,0.0,0.0,0.0,0.0,0.0,0.0,0.0,0.0,0.0,0.0,0.0,0.0,0.0,0.0,0.0,0.0,0.0,0.0,0.0,0.0,0.0,0.0,0.0,0.0,0.0,0.0,0.0,0.0,0.0,0.0,0.0,0.0,0.0,0.0,0.0,0.0,0.0,0.0,0.0,2.2714,2.2714,2.285,2.2964,2.3097,2.3091,2.304,2.2906,0.0,0.0,0.0,0.0,0.0,0.0,0.0,0.0,0.0,0.0,0.0,0.0,0.0,0.0,0.0,0.0,0.0,0.0,0.0,0.0,0.0,0.0,0.0,0.0,0.0,0.0,0.0,0.0,0.0,0.0,0.0,0.0,0.0,0.0,0.0,0.0,0.0,0.0,0.0,0.0,0.0,0.0,0.0,0.0,0.0,0.0,0.0,0.0,0.0,0.0,0.0,0.0,0.0,0.0,0.0,0.0,0.0,0.0,0.0,0.0,0.0,0.0,0.0,0.0,0.0,0.0,0.0,0.0,0.0,0.0,0.0,0.0,0.0,0.0,0.0,0.0,0.0,0.0,0.0,0.0,0.0,0.0,0.0,0.0,0.0,0.0,0.0,0.0,0.0,0.0,0.0,0.0,0.0,0.0,0.0,0.0,0.0,0.0,0.0,0.0,0.0,0.0,0.0,2.2842,2.328,2.3748,2.3808,2.3999,2.4464,2.4519,2.4451,2.4315,2.344,0.0,0.0,0.0,0.0,0.0,0.0,0.0,0.0,0.0,0.0,0.0,0.0,0.0,0.0,0.0,0.0,0.0,0.0,0.0,0.0,0.0,0.0,0.0,0.0,0.0,0.0,0.0,0.0,0.0,0.0,0.0,0.0,0.0,0.0,0.0,0.0,0.0,0.0,0.0,0.0,0.0,0.0,0.0,0.0,0.0,0.0,0.0,0.0,0.0,0.0,0.0,0.0,0.0,0.0,0.0,0.0,0.0,0.0,0.0,0.0,0.0,0.0,0.0,0.0,0.0,0.0,0.0,0.0,0.0,0.0,0.0,0.0,0.0,0.0,0.0,0.0,0.0,0.0,0.0,0.0,0.0,0.0,0.0,0.0,0.0,0.0,0.0,0.0,0.0,0.0,0.0,0.0,0.0,0.0,0.0,0.0,0.0,0.0,0.0,0.0,0.0,0.0,2.3678,2.3938,2.4617,2.4707,2.4976,2.5637,2.5691,2.5641,2.5486,2.4846,0.0,0.0,0.0,0.0,0.0,0.0,0.0,0.0,0.0,0.0,0.0,0.0,0.0,0.0,0.0,0.0,0.0,0.0,0.0,0.0,0.0,0.0,0.0,0.0,0.0,0.0,0.0,0.0,0.0,0.0,0.0,0.0,0.0,0.0,0.0,0.0,0.0,0.0,0.0,0.0,0.0,0.0,0.0,0.0,0.0,0.0,0.0,0.0,0.0,0.0,0.0,0.0,0.0,0.0,0.0,0.0,0.0,0.0,0.0,0.0,0.0,0.0,0.0,0.0,0.0,0.0,0.0,0.0,0.0,0.0,0.0,0.0,0.0,0.0,0.0,0.0,0.0,0.0,0.0,0.0,0.0,0.0,0.0,0.0,0.0,0.0,0.0,0.0,0.0,0.0,0.0,0.0,0.0,0.0,0.0,0.0,0.0,0.0,0.0,0.0,0.0,0.0,2.5362,2.5385,2.5502,2.5566,2.5622,2.57,2.5693,2.5618,2.5412,2.536,0.0,0.0,0.0,0.0,0.0,0.0,0.0,0.0,0.0,0.0,0.0,0.0,0.0,0.0,0.0,0.0,0.0,0.0,0.0,0.0,0.0,0.0,0.0,0.0,0.0,0.0,0.0,0.0,0.0,0.0,0.0,0.0,0.0,0.0,0.0,0.0,0.0,0.0,0.0,0.0,0.0,0.0,0.0,0.0,0.0,0.0,0.0,0.0,0.0,0.0,0.0,0.0,0.0,0.0,0.0,0.0,0.0,0.0,0.0,0.0,0.0,0.0,0.0,0.0,0.0,0.0,0.0,0.0,0.0,0.0,0.0,0.0,0.0,0.0,0.0,0.0,0.0,0.0,0.0,0.0,0.0,0.0,0.0,0.0,0.0,0.0,0.0,0.0,0.0,0.0,0.0,0.0,0.0,0.0,0.0,0.0,0.0,0.0,0.0,0.0,0.0,0.0,2.5556,2.557,2.5609,2.5654,2.5703,2.57,2.5694,2.5647,2.5526,0.0,0.0,0.0,0.0,0.0,0.0,0.0,0.0,0.0,0.0,0.0,0.0,0.0,0.0,0.0,0.0,0.0,0.0,0.0,0.0,0.0,0.0,0.0,0.0,0.0,0.0,0.0,0.0,0.0,0.0,0.0,0.0,0.0,0.0,0.0,0.0,0.0,0.0,0.0,0.0,0.0,0.0,0.0,0.0,0.0,0.0,0.0,0.0,0.0,0.0,0.0,0.0,0.0,0.0,0.0,0.0,0.0,0.0,0.0,0.0,0.0,0.0,0.0,0.0,0.0,0.0,0.0,0.0,0.0,0.0,0.0,0.0,0.0,0.0,0.0,0.0,0.0,0.0,0.0,0.0,0.0,0.0,0.0,0.0,0.0,0.0,0.0,0.0,0.0,0.0,0.0,0.0,0.0,0.0,0.0,0.0,0.0,0.0,0.0,0.0,0.0,0.0,2.5487,2.5557,2.5591,2.5563,2.5645,2.5703,2.57,2.5692,2.5668,2.5566,0.0,0.0,0.0,0.0,0.0,0.0,0.0,0.0,0.0,0.0,0.0,0.0,0.0,0.0,0.0,0.0,0.0,0.0,0.0,0.0,0.0,0.0,0.0,0.0,0.0,0.0,0.0,0.0,0.0,0.0,0.0,0.0,0.0,0.0,0.0,0.0,0.0,0.0,0.0,0.0,0.0,0.0,0.0,0.0,0.0,0.0,0.0,0.0,0.0,0.0,0.0,0.0,0.0,0.0,0.0,0.0,0.0,0.0,0.0,0.0,0.0,0.0,0.0,0.0,0.0,0.0,0.0,0.0,0.0,0.0,0.0,0.0,0.0,0.0,0.0,0.0,0.0,0.0,0.0,0.0,0.0,0.0,0.0,0.0,0.0,0.0,0.0,0.0,0.0,0.0,0.0,0.0,0.0,0.0,0.0,0.0,0.0,0.0,0.0,0.0,0.0,0.0,2.5418,2.5526,2.5564,2.5515,2.5629,2.5703,2.57,2.5709,2.5641,0.0,0.0,0.0,0.0,0.0,0.0,0.0,0.0,0.0,0.0,0.0,0.0,0.0,0.0,0.0,0.0,0.0,0.0,0.0,0.0,0.0,0.0,0.0,0.0,0.0,0.0,0.0,0.0,0.0,0.0,0.0,0.0,0.0,0.0,0.0,0.0,0.0,0.0,0.0,0.0,0.0,0.0,0.0,0.0,0.0,0.0,0.0,0.0,0.0,0.0,0.0,0.0,0.0,0.0,0.0,0.0,0.0,0.0,0.0,0.0,0.0,0.0,0.0,0.0,0.0,0.0,0.0,0.0,0.0,0.0,0.0,0.0,0.0,0.0,0.0,0.0,0.0,0.0,0.0,0.0,0.0,0.0,0.0,0.0,0.0,0.0,0.0,0.0,0.0,0.0,0.0,0.0,0.0,0.0,0.0,0.0,0.0,0.0,0.0,0.0,0.0,0.0,0.0,2.5345,2.5453,2.552,2.5506,2.5614,2.57,2.5701,2.5709,2.5666,2.5589,0.0,0.0,0.0,0.0,0.0,0.0,0.0,0.0,0.0,0.0,0.0,0.0,0.0,0.0,0.0,0.0,0.0,0.0,0.0,0.0,0.0,0.0,0.0,0.0,0.0,0.0,0.0,0.0,0.0,0.0,0.0,0.0,0.0,0.0,0.0,0.0,0.0,0.0,0.0,0.0,0.0,0.0,0.0,0.0,0.0,0.0,0.0,0.0,0.0,0.0,0.0,0.0,0.0,0.0,0.0,0.0,0.0,0.0,0.0,0.0,0.0,0.0,0.0,0.0,0.0,0.0,0.0,0.0,0.0,0.0,0.0,0.0,0.0,0.0,0.0,0.0,0.0,0.0,0.0,0.0,0.0,0.0,0.0,0.0,0.0,0.0,0.0,0.0,0.0,0.0,0.0,0.0,0.0,0.0,0.0,0.0,0.0,0.0,0.0,0.0,0.0,0.0,2.5335,2.543,2.5502,2.5544,2.5605,2.5675,2.5702,2.5692,2.5673,2.5603,0.0,0.0,0.0,0.0,0.0,0.0,0.0,0.0,0.0,0.0,0.0,0.0,0.0,0.0,0.0,0.0,0.0,0.0,0.0,0.0,0.0,0.0,0.0,0.0,0.0,0.0,0.0,0.0,0.0,0.0,0.0,0.0,0.0,0.0,0.0,0.0,0.0,0.0,0.0,0.0,0.0,0.0,0.0,0.0,0.0,0.0,0.0,0.0,0.0,0.0,0.0,0.0,0.0,0.0,0.0,0.0,0.0,0.0,0.0,0.0,0.0,0.0,0.0,0.0,0.0,0.0,0.0,0.0,0.0,0.0,0.0,0.0,0.0,0.0,0.0,0.0,0.0,0.0,0.0,0.0,0.0,0.0,0.0,0.0,0.0,0.0,0.0,0.0,0.0,0.0,0.0,0.0,0.0,0.0,0.0,0.0,0.0,0.0,0.0,0.0,0.0,0.0,2.5367,2.5459,2.5513,2.5582,2.5606,2.5631,2.5683,2.5696,2.5677,2.5603,0.0,0.0,0.0,0.0,0.0,0.0,0.0,0.0,0.0,0.0,0.0,0.0,0.0,0.0,0.0,0.0,0.0,0.0,0.0,0.0,0.0,0.0,0.0,0.0,0.0,0.0,0.0,0.0,0.0,0.0,0.0,0.0,0.0,0.0,0.0,0.0,0.0,0.0,0.0,0.0,0.0,0.0,0.0,0.0,0.0,0.0,0.0,0.0,0.0,0.0,0.0,0.0,0.0,0.0,0.0,0.0,0.0,0.0,0.0,0.0,2.3128,2.2757,0.0,0.0,0.0,0.0,0.0,0.0,0.0,0.0,0.0,0.0,0.0,0.0,0.0,0.0,0.0,0.0,0.0,0.0,0.0,0.0,0.0,0.0,0.0,0.0,0.0,0.0,0.0,0.0,0.0,0.0,0.0,0.0,0.0,0.0,0.0,0.0,0.0,0.0,0.0,0.0,2.5244,2.5387,2.5511,2.5524,2.5629,2.5681,2.5703,2.5696,2.5677,2.5603,2.5605,0.0,0.0,0.0,0.0,0.0,0.0,0.0,0.0,0.0,0.0,0.0,0.0,0.0,0.0,0.0,0.0,0.0,0.0,0.0,0.0,0.0,0.0,0.0,0.0,0.0,0.0,0.0,0.0,0.0,0.0,0.0,0.0,0.0,0.0,0.0,0.0,0.0,0.0,0.0,0.0,0.0,0.0,0.0,0.0,0.0,0.0,0.0,0.0,0.0,0.0,0.0,0.0,0.0,0.0,0.0,0.0,0.0,0.0,0.0,2.4222,2.3636,0.0,0.0,0.0,0.0,0.0,0.0,0.0,0.0,0.0,0.0,0.0,0.0,0.0,0.0,0.0,0.0,0.0,0.0,0.0,0.0,0.0,0.0,0.0,0.0,0.0,0.0,0.0,0.0,0.0,0.0,0.0,0.0,0.0,0.0,0.0,0.0,0.0,0.0,0.0,0.0,2.5298,2.5359,2.5434,2.5537,2.5606,2.5657,2.5703,2.57,2.5666,2.5591,2.5602,0.0,0.0,0.0,0.0,0.0,0.0,0.0,0.0,0.0,0.0,0.0,0.0,0.0,0.0,0.0,0.0,0.0,0.0,0.0,0.0,0.0,0.0,0.0,0.0,0.0,0.0,0.0,0.0,0.0,0.0,0.0,0.0,0.0,0.0,0.0,0.0,0.0,0.0,0.0,0.0,0.0,0.0,0.0,0.0,0.0,0.0,0.0,0.0,0.0,0.0,0.0,0.0,0.0,2.5832,2.5878,2.5874,2.5681,2.5647,2.5698,2.5698,2.4793,2.3372,2.4053,0.0,0.0,0.0,0.0,0.0,0.0,0.0,0.0,0.0,0.0,0.0,0.0,0.0,0.0,0.0,0.0,0.0,0.0,0.0,0.0,0.0,0.0,2.5973,2.5968,2.6012,2.6041,2.5982,0.0,0.0,0.0,0.0,0.0,0.0,0.0,0.0,0.0,0.0,0.0,2.5779,2.5786,2.5828,2.5999,2.6048,2.6097,2.6151,2.6152,2.6122,2.6071,2.6067,2.5994,0.0,0.0,0.0,0.0,0.0,0.0,0.0,0.0,0.0,0.0,0.0,0.0,0.0,0.0,0.0,0.0,0.0,0.0,0.0,0.0,0.0,0.0,0.0,0.0,0.0,0.0,0.0,0.0,0.0,0.0,0.0,0.0,2.0546,2.1186,0.0,0.0,0.0,0.0,0.0,0.0,0.0,0.0,0.0,0.0,0.0,0.0,0.0,2.4552,2.5311,2.6121,2.6537,2.6556,2.7128,2.7412,2.7399,2.7249,2.7227,2.7299,2.7299,0.0,2.5001,2.522,0.0,0.0,0.0,0.0,0.0,0.0,0.0,0.0,0.0,0.0,0.0,0.0,0.0,0.0,0.0,0.0,0.0,0.0,0.0,0.0,0.0,0.0,2.7831,2.7848,2.7855,2.7842,2.785,2.6601,2.5495,2.5485,2.5483,2.5692,0.0,0.0,0.0,0.0,0.0,0.0,2.7395,2.7547,2.7644,2.7685,2.7842,2.7944,2.7967,2.7968,2.794,2.7942,2.7889,2.7522,2.6754,2.6663,0.0,0.0,0.0,0.0,0.0,0.0,0.0,0.0,0.0,0.0,0.0,0.0,0.0,0.0,0.0,0.0,0.0,0.0,0.0,0.0,0.0,0.0,0.0,0.0,0.0,0.0,0.0,0.0,0.0,2.1765,2.1885,2.2206,2.0396,1.8605,0.0,0.0,0.0,0.0,0.0,0.0,0.0,0.0,0.0,2.4855,2.5354,2.5544,2.5439,2.5797,2.5978,2.5979,2.6187,2.6299,2.6299,2.6084,2.607,2.6187,2.6168,2.5772,2.5271,2.6317,2.6958,2.7285,0.0,0.0,0.0,0.0,2.7285,2.7238,2.6915,2.6803,2.6801,2.6838,0.0,0.0,0.0,0.0,0.0,0.0,0.0,2.7942,2.7615,2.7837,2.8143,2.8199,2.8145,2.809,2.8085,2.7419,2.6814,2.6881,2.6812,2.6833,2.7163,2.7156,0.0,0.0,0.0,2.7701,2.7701,2.7839,2.7939,2.7929,2.8096,2.8186,2.8197,2.8222,2.8237,2.8242,2.821,2.8033,2.7652,2.76,2.7403,0.0,0.0,0.0,0.0,0.0,0.0,0.0,0.0,0.0,0.0,0.0,0.0,0.0,0.0,0.0,0.0,0.0,0.0,0.0,0.0,0.0,0.0,0.0,0.0,0.0,0.0,0.0,0.0,2.2817,2.2872,2.3002,2.0548,1.8906,0.0,0.0,0.0,0.0,0.0,0.0,2.4419,2.5078,2.5406,2.5356,2.5989,2.6037,2.5375,2.5568,2.5664,2.5659,2.5685,2.571,2.5722,2.5506,2.5494,2.5685,2.5609,2.5653,2.5857,2.6719,2.7244,2.753,2.7691,2.7885,2.8083,2.8124,2.8143,2.8158,2.7904,2.7848,2.787,2.787,2.8009,2.8177,2.8179,0.0,0.0,0.0,0.0,2.8516,2.8453,2.857,2.8722,2.8771,2.8699,2.8613,2.8613,2.8517,2.8342,2.8036,2.7831,2.7791,2.8,2.7995,0.0,2.8286,2.8312,2.8319,2.8313,2.8416,2.8501,2.8512,2.8636,2.8738,2.8765,2.881,2.8844,2.8868,2.8847,2.8747,2.8549,2.8513,2.8406,2.8198,0.0,0.0,0.0,0.0,0.0,0.0,0.0,0.0,0.0,0.0,0.0,0.0,0.0,0.0,0.0,0.0,0.0,0.0,0.0,0.0,0.0,0.0,0.0,0.0,0.0,0.0,0.0,0.0,0.0,2.3309,2.3319,0.0,0.0,0.0,0.0,2.4616,2.4911,2.5093,2.5156,2.5194,2.5214,2.5208,2.5306,2.536,2.5316,2.6002,2.6338,2.6357,2.6858,2.7135,2.7195,2.7046,2.7096,2.7278,2.7151,2.7307,2.7539,2.597,2.578,2.6549,2.73,2.8114,2.8861,2.8991,2.8998,2.8836,2.8142,2.7857,2.7812,2.7812,2.8324,2.8944,2.8945,2.9487,0.0,0.0,2.9645,3.0134,2.9497,2.9854,3.0372,3.0376,3.0337,3.0278,3.0278,3.016,2.9645,2.8188,2.7861,2.8046,2.8795,0.0,2.9168,2.9877,2.9972,2.998,2.9977,3.0036,3.0104,3.018,3.0311,3.0431,3.0561,3.0577,3.0609,3.0675,3.0618,3.0234,2.9473,2.9369,2.8971,2.821,2.822,0.0,0.0,0.0,0.0,0.0,0.0,0.0,0.0,0.0,0.0,0.0,0.0,0.0,0.0,0.0,0.0,0.0,0.0,0.0,0.0,0.0,0.0,0.0,0.0,0.0,0.0,0.0,0.0,2.4334,2.4372,0.0,2.4711,2.4814,2.4908,2.4994,2.5043,2.5109,2.5206,2.5735,2.5773,2.5212,2.6191,2.6454,2.5869,2.6574,2.69,2.6919,2.7025,2.708,2.7115,2.7063,2.7146,2.7331,2.7245,2.7343,2.7549,2.6807,2.6787,2.726,2.7491,2.8105,2.8843,2.8886,2.9256,2.9674,2.941,2.9301,2.928,2.9286,2.947,2.9711,2.9704,2.9906,3.0087,2.987,3.0028,3.0242,3.0086,3.0235,3.0399,3.033,3.0219,3.0132,3.0091,2.9977,2.9707,2.9167,2.9117,2.9219,2.9464,2.9471,2.9577,2.9926,2.998,3.0003,3.0095,3.0118,3.0169,3.0235,3.0284,3.0356,3.0501,3.055,3.0621,3.0723,3.0758,3.0645,3.0358,3.0309,3.0175,2.9882,2.9349,2.9074,0.0,0.0,0.0,0.0,0.0,0.0,0.0,0.0,0.0,0.0,0.0,0.0,0.0,0.0,0.0,0.0,0.0,0.0,0.0,0.0,0.0,0.0,0.0,0.0,0.0,2.4904,2.4821,2.4682,2.4617,2.4586,2.457,2.4601,2.4663,2.4759,2.4889,2.5101,2.5425,2.6015,2.5624,2.4061,2.614,2.646,2.4698,2.6264,2.7086,2.7121,2.6926,2.684,2.6814,2.5624,2.517,2.5335,2.525,2.534,2.5623,2.6669,2.724,2.7492,2.7796,2.823,2.8738,2.9042,2.9528,3.0049,3.0079,3.0106,3.0106,3.0102,3.0095,3.0095,3.008,3.0072,3.0083,3.0142,3.0176,3.0183,3.029,3.0271,3.0228,3.0107,2.998,2.9883,2.9834,2.9763,2.9692,2.9636,2.9727,2.9827,2.9771,2.9726,2.9744,2.9857,2.9883,2.9924,3.0022,3.0026,3.0072,3.0157,3.0166,3.0228,3.0381,3.0449,3.0516,3.066,3.0737,3.0778,3.0774,3.0796,3.0805,3.0805,3.0232,2.9962,3.0031,0.0,0.0,0.0,0.0,0.0,0.0,0.0,0.0,0.0,0.0,0.0,0.0,0.0,0.0,0.0,0.0,0.0,0.0,0.0,0.0,0.0,0.0,0.0,2.4855,2.4823,2.4636,2.4257,2.42,2.417,2.4103,2.422,2.4301,2.4328,2.47,2.5215,2.5893,2.5981,2.4754,2.1948,2.5166,2.5302,2.1926,2.5191,2.6934,2.7056,2.6735,2.6549,2.6438,2.2998,2.1485,2.1612,2.1478,2.1624,2.2209,2.5577,2.699,2.7158,2.8087,2.8474,2.8602,2.9441,2.9813,2.9897,3.003,3.008,3.008,3.0087,3.0087,3.008,3.0014,2.9999,2.9996,3.0072,3.0094,3.0082,3.008,3.0045,2.9956,2.9809,2.9745,2.9683,2.9701,2.9701,2.9645,2.9531,2.9607,2.9692,2.969,2.9699,2.9708,2.9771,2.9842,0.0,2.988,2.9888,2.9937,3.0079,3.0094,3.0168,3.0369,3.0392,3.0456,3.0597,3.0664,3.0691,3.0706,3.0774,3.0792,3.0792,3.0798,3.0826,3.0894,0.0,0.0,0.0,0.0,0.0,0.0,0.0,0.0,0.0,0.0,0.0,0.0,0.0,0.0,0.0,0.0,0.0,0.0,0.0,0.0,0.0,2.4462,2.442,2.4459,2.4491,2.4432,2.4228,2.417,2.4113,2.4094,2.4095,2.4356,2.5041,2.5198,2.5659,2.657,2.6643,2.6293,2.55,2.6874,2.7158,2.6205,2.7562,2.8263,2.8297,2.8205,2.7156,2.527,2.4433,2.4081,2.4115,2.4117,2.526,2.721,2.8068,2.8426,2.8389,2.7737,2.7845,2.8388,2.8687,2.9101,2.9541,2.957,2.9589,2.9626,2.9755,2.9809,2.9809,2.9792,2.9783,2.9792,2.9799,2.9799,2.9808,2.9798,2.9799,2.9746,2.9608,2.957,2.954,2.949,2.9488,2.944,2.9307,2.9307,2.9359,2.948,2.9471,2.9501,2.957,2.9598,2.9655,2.9737,2.9746,2.9755,2.9734,2.9872,2.9973,3.0032,3.0267,3.0433,3.051,3.0639,3.072,3.0777,3.0781,3.0794,3.0803,3.08,3.0807,0.0,0.0,0.0,0.0,0.0,0.0,0.0,0.0,0.0,0.0,0.0,0.0,0.0,0.0,0.0,0.0,0.0,0.0,0.0,0.0,0.0,0.0,2.2267,2.2844,2.2755,2.3675,2.4293,2.4103,2.4036,2.4152,2.4449,2.4476,2.4827,2.5709,2.5857,2.6277,2.7136,2.7253,2.6715,2.5472,2.7233,2.7498,2.6033,2.7822,2.8175,2.712,2.7062,2.565,2.3037,2.1639,2.0984,2.1064,2.2244,2.3025,2.3612,2.6182,2.6587,2.5712,0.0,0.0,0.0,0.0,2.8864,2.9198,2.9161,2.9212,2.9312,2.9521,2.9569,2.9579,2.9664,2.9701,2.9701,2.9701,2.9701,2.9692,2.9636,2.9626,2.9579,2.9481,2.9421,2.937,2.9326,2.9272,2.9207,2.9123,2.913,0.0,2.9218,2.9115,2.9079,2.9262,2.9191,2.9201,2.9414,2.9453,2.9483,2.9589,2.9588,2.9668,2.9834,2.9954,0.0,0.0,0.0,3.0506,3.0703,3.0804,0.0,0.0,0.0,3.0828,3.0805,3.0867,0.0,0.0,2.9572,2.9138,0.0,0.0,0.0,0.0,0.0,0.0,0.0,0.0,0.0,0.0,0.0,0.0,0.0,0.0,0.0,0.0,1.9092,2.0424,2.0234,2.2147,2.3558,2.3574,2.3584,2.386,2.4553,2.4674,2.5042,2.5839,2.6068,2.6358,2.6795,2.6923,0.0,0.0,0.0,2.6208,2.3105,2.6153,2.6566,2.4336,2.4236,2.2801,2.012,1.6964,1.5486,1.5587,1.804,1.7915,1.6418,2.2029,2.2929,2.1291,2.6465,2.8724,2.9014,2.8849,2.8795,2.8795,2.8729,0.0,0.0,2.9241,2.9322,2.9353,2.9588,2.9636,2.9636,2.9636,2.9636,2.9607,2.9491,2.9443,2.9441,2.9368,2.9262,2.9167,2.9167,2.8844,2.8544,2.8534,2.8484,2.8453,2.8442,2.8479,2.8591,2.8895,2.8694,2.8628,2.8934,2.8979,2.91,2.9418,0.0,0.0,2.9655,2.955,2.9594,2.9859,2.9975,3.021,3.0568,3.0751,3.0836,3.077,3.0841,3.0843,3.0781,3.0843,3.081,3.0672,3.0746,3.0349,0.0,0.0,0.0,0.0,0.0,0.0,0.0,0.0,0.0,0.0,0.0,0.0,0.0,0.0,0.0,1.7361,1.7658,1.7906,1.7861,1.8493,1.9636,2.1426,2.1595,2.1745,2.2203,2.2273,2.2613,2.3418,2.3515,2.3072,2.2015,2.1979,2.1728,2.1155,2.1795,2.1812,2.1148,2.1806,2.1907,2.1426,2.1657,0.0,1.7387,1.6935,1.6593,1.6381,1.6899,1.8069,1.969,2.0903,2.1116,2.0941,2.4139,2.6738,2.8646,2.8303,2.817,2.817,2.817,2.8166,2.829,2.87,2.883,2.8895,2.9203,2.9296,0.0,2.9296,2.9254,2.9211,2.9178,2.9134,2.9089,2.9085,2.9062,2.9051,2.9051,2.7309,2.5746,2.5638,2.5352,2.5093,2.499,2.6888,2.846,2.8591,2.827,2.8081,2.82,2.8213,2.8309,2.8517,2.8658,2.8792,2.8975,2.9213,2.9448,2.9727,3.0054,3.0321,3.0513,3.0556,3.0605,3.063,3.0699,3.0701,3.0636,3.0701,3.0675,3.0538,3.0655,3.0597,0.0,0.0,0.0,0.0,0.0,0.0,0.0,0.0,0.0,0.0,0.0,1.8943,1.7798,0.0,1.5236,1.4072,1.4802,1.555,1.5729,1.6876,1.8115,1.9254,2.0521,2.1542,2.2133,2.3226,2.4239,2.5039,2.4042,2.3083,2.2336,2.1218,2.0671,2.0843,2.0699,2.0753,2.1096,2.0934,2.0177,1.886,1.9011,1.7525,1.4603,1.4917,1.4967,1.4878,1.6396,1.7048,1.7074,1.7291,1.8335,1.9864,2.1085,2.3476,2.6355,2.7307,2.7648,2.7634,2.7607,2.7669,2.78,2.8139,2.8241,2.8293,2.8523,2.8718,2.8844,2.8844,2.8957,2.9051,2.9051,2.9028,2.9005,2.9005,2.7911,2.721,2.8345,2.6443,2.4817,2.5883,2.5942,2.5772,2.5699,2.6747,2.7683,2.7915,2.7672,2.751,2.7718,2.7747,2.7848,2.8058,2.8179,2.834,2.8578,2.8851,2.9138,2.9428,2.9802,3.0106,3.0335,3.0451,3.0513,3.0552,3.0623,3.0633,3.0603,3.0623,3.0584,3.044,3.0529,3.0548,0.0,0.0,0.0,0.0,0.0,0.0,0.0,2.1482,2.0635,2.0599,1.8681,1.6457,1.4621,1.3788,1.2776,1.0954,1.2166,1.3456,1.3799,1.5488,1.6748,1.6901,1.938,2.1528,2.2693,2.4192,2.5361,2.6004,2.408,2.2668,2.2127,2.035,1.9441,1.962,1.9352,1.9484,2.001,1.9751,1.8544,1.6399,1.6476,1.5202,1.2775,1.3072,1.3164,1.3253,1.5767,1.5623,1.3683,1.4145,1.5836,1.8147,1.8436,2.0294,2.3103,2.5454,2.6525,2.677,2.6719,2.6792,2.7014,2.755,2.7535,2.7365,2.7844,2.7942,2.7925,2.7925,2.8085,2.8282,2.8282,2.8272,2.8336,2.8621,2.6749,2.5468,2.758,2.5849,2.4429,2.6273,2.6561,2.6508,2.6508,2.6619,2.6841,2.7239,2.7068,2.7023,2.7294,2.7341,2.7444,2.7709,2.7791,2.7968,2.8334,2.8504,2.873,2.9082,2.9391,2.973,3.0084,3.0314,3.0433,3.0404,3.0525,3.0537,3.0438,3.0473,3.0428,3.0254,3.0269,3.0319,1.8787,1.84,1.777,1.5017,1.6814,1.8474,0.0,1.68,1.8566,1.8395,1.6531,1.4855,1.4591,1.2937,1.1496,1.1242,1.1472,1.1781,1.2122,1.2695,1.3363,1.4044,1.709,2.0081,2.2555,2.1797,2.1168,2.1271,1.9815,1.788,1.5416,1.5043,1.4739,1.4352,1.4296,1.4324,1.4407,1.4361,1.4195,1.392,1.4198,1.4006,1.342,1.3731,1.3731,1.3502,1.4252,1.4396,1.4154,1.4619,1.5023,1.555,1.7552,1.8582,1.9244,2.1884,2.3725,2.4905,2.4886,2.4905,2.5196,2.6908,2.6525,2.5723,2.7398,2.6935,2.5832,2.5832,2.5788,2.5704,2.5704,2.5663,2.5965,2.7264,2.6339,2.5576,2.7161,2.5366,2.3548,2.3807,2.3562,2.3313,2.3313,2.5007,2.6487,2.6905,2.6725,2.6606,2.6691,2.6742,2.6891,2.7164,2.74,2.7719,2.8178,2.8192,2.8343,2.8736,2.8967,2.9288,2.9738,3.0071,3.0181,3.0054,3.0356,3.0304,2.9877,3.0068,3.0039,2.9784,2.9775,2.9918,1.7393,1.8039,1.8536,1.4587,1.5941,1.7886,1.6481,1.6144,1.6117,1.6037,1.4253,1.269,1.269,1.1931,1.137,1.161,1.1865,1.2238,1.2814,1.3499,1.4649,1.6501,1.9181,2.0812,2.0603,2.241,2.3163,2.2155,2.0275,1.8669,1.7504,1.5885,1.497,1.4948,1.4455,1.4391,1.4769,1.4589,1.4495,1.4495,1.463,1.4589,1.4383,1.4706,1.5166,1.5756,1.6316,1.6728,1.7007,1.7226,1.7434,1.7806,1.875,1.9102,1.9383,2.1647,2.2883,2.3485,2.3798,2.3901,2.4035,2.4811,2.4647,2.426,2.5035,2.4959,2.4575,2.4575,2.467,2.5014,2.6024,2.6271,2.6559,2.7753,2.6388,2.5201,2.6713,2.4941,2.3448,2.4777,2.4903,2.4565,2.3844,2.5139,2.5816,2.4585,2.5636,2.6572,2.6657,2.6691,2.6858,2.7293,2.7434,2.7692,2.8154,2.8,2.8012,2.833,2.8469,2.8714,2.9103,2.9504,2.9756,2.9823,2.9958,3.0011,2.9913,2.9908,2.9872,2.9763,2.9717,2.9751,1.566,1.6574,1.7412,1.4112,1.4894,1.647,1.6442,1.5143,1.3958,1.3927,1.2639,1.1554,1.1659,1.1676,1.1885,1.2556,1.2819,1.3283,1.4294,1.4934,1.6123,1.8385,2.0688,2.131,1.9293,2.2785,2.4648,2.3379,2.0921,1.9454,1.9314,1.7326,1.6259,1.6341,1.5735,1.5647,1.6128,1.5882,1.5794,1.5794,1.5698,1.5592,1.5509,1.5831,1.6459,1.7358,1.8137,1.8693,1.9004,1.9134,1.9383,1.9701,1.9701,1.9701,1.9877,2.1421,2.2195,2.2495,2.2797,2.2959,2.31,2.3417,2.3244,2.2957,2.3291,2.3333,2.3271,2.3271,2.3478,2.3999,2.5277,2.56,2.5876,2.7047,2.5506,2.4206,2.5747,2.4561,2.3674,2.5329,2.5529,2.514,2.427,2.4738,2.4647,2.2885,2.4315,2.5721,2.6112,2.6464,2.6874,2.7308,2.7355,2.7509,2.7896,2.7612,2.7604,2.8031,2.8063,2.8268,2.8764,2.9188,2.9485,2.9644,2.9678,2.975,2.9866,2.9758,2.9698,2.9664,2.957,2.9523,1.2531,1.2569,1.2631,1.2551,1.2599,1.2623,1.2503,1.242,1.2337,1.219,1.2113,1.2195,1.258,1.2645,1.3086,1.4387,1.4225,1.4579,1.6347,1.6241,1.6483,1.7869,1.999,2.0826,1.9505,2.1927,2.3541,2.3493,2.053,1.8526,1.8082,1.7974,1.7719,1.7274,1.7243,1.7243,1.7243,1.7243,1.7253,1.7243,1.6898,1.675,1.6741,1.7088,1.7265,1.7358,1.8481,1.8974,1.9033,1.9483,1.9672,1.9701,1.9701,1.9701,1.9766,2.0292,2.1153,2.207,2.1755,2.1874,2.2325,2.3506,2.287,2.1863,2.3059,2.2599,2.1679,2.1679,2.1815,2.1982,2.2044,2.2047,2.2447,2.3967,2.313,2.2408,2.3956,2.4206,2.4188,2.4255,2.3839,2.3477,2.3433,2.3081,2.2786,2.2713,2.2883,2.3434,2.4604,2.5902,2.6775,2.6989,2.7022,2.707,2.7213,2.6923,2.7067,2.7869,2.7787,2.8111,2.895,2.9246,2.9436,2.9502,2.9635,2.9635,2.9512,2.9504,2.9445,2.9323,2.9186,2.9112,1.4969,1.5052,1.48,1.3754,1.3515,1.3481,1.3433,1.3433,1.3515,1.3767,1.369,1.3706,1.4188,1.4142,1.437,1.5409,1.5645,1.6145,1.7333,1.7914,1.8351,1.8805,2.0846,2.2064,2.162,2.2425,2.2482,2.1342,2.0246,1.9553,1.9393,1.9051,1.8783,1.8621,1.8296,1.8208,1.8436,1.8436,1.8556,1.8762,1.8794,1.8784,1.8826,1.9657,2.0015,2.0066,2.0896,2.1244,2.1244,2.1329,2.1371,2.1371,2.1371,2.1371,2.1365,2.1291,2.1641,2.2086,2.1522,2.1401,2.1584,2.1982,2.1748,2.1424,2.182,2.166,2.1319,2.1319,2.1375,2.1692,2.2851,2.3151,2.3456,2.4655,2.4527,2.4155,2.4193,2.4207,2.4207,2.4207,2.405,2.3685,2.2867,2.2968,2.3059,2.2752,2.282,2.3045,2.344,2.3908,2.4491,2.5328,2.557,2.5994,2.6809,2.6757,2.6939,2.747,2.751,2.7741,2.8321,2.8676,2.9034,2.9363,2.9318,2.9436,2.9691,2.9561,2.9492,2.9431,2.9304,2.9262,1.5786,1.5851,1.5586,1.4462,1.4177,1.4154,1.4095,1.4071,1.42,1.4625,1.45,1.4499,1.5175,1.5161,1.5372,1.6302,1.6593,1.7114,1.8279,1.8782,1.9164,1.9529,2.0884,2.177,2.177,2.177,2.1561,2.1069,2.0461,2.0118,2.0118,1.9889,1.977,1.977,1.9562,1.9562,1.977,1.9802,1.9868,2.0009,2.0063,2.0096,2.0128,2.0985,2.142,2.1502,2.2223,2.2525,2.2494,2.2402,2.2383,2.2383,2.2383,2.2383,2.234,2.2142,2.2142,2.2185,2.16,2.1443,2.1549,2.1411,2.138,2.1348,2.1221,2.1285,2.138,2.138,2.1443,2.1831,2.2958,2.3235,2.3381,2.4047,2.4198,2.4056,2.3595,2.3484,2.3484,2.3484,2.3328,2.2949,2.2173,2.2239,2.2221,2.1734,2.1747,2.2056,2.2806,2.3303,2.3832,2.4488,2.4719,2.5289,2.6417,2.6505,2.6758,2.7303,2.738,2.7634,2.8192,2.8466,2.8809,2.9293,2.9169,2.9316,2.9755,2.9598,2.9501,2.9461,2.9347,2.9326,1.4983,1.4949,1.4903,1.4641,1.4595,1.4537,1.4351,1.4292,1.4399,1.4779,1.4616,1.47,1.5639,1.5817,1.6137,1.7185,1.7143,1.7566,1.9171,1.8987,1.9041,1.9987,2.0129,2.014,2.014,2.0151,2.0815,2.2499,2.1076,2.0118,2.0118,2.0453,2.0635,2.0635,2.0999,2.1221,2.1221,2.1253,2.1158,2.0955,2.0794,2.0719,2.0719,2.125,2.1534,2.1721,2.2408,2.2708,2.2708,2.272,2.272,2.272,2.272,2.272,2.272,2.272,2.2586,2.2359,2.1913,2.1956,2.2154,2.1819,2.1714,2.1651,2.1348,2.1474,2.1714,2.1714,2.1956,2.2197,2.2197,2.2197,2.2197,2.2197,2.2197,2.2197,2.2197,2.2197,2.2197,2.2197,2.1789,2.144,2.1404,2.0983,2.0466,1.9929,1.9916,2.0614,2.2464,2.3769,2.4476,2.4326,2.4387,2.4884,2.6017,2.6157,2.6538,2.7348,2.7394,2.7768,2.8574,2.86,2.8809,2.9293,2.918,2.9304,2.9701,2.9579,2.9481,2.9417,2.9344,2.9312,1.5657,1.5724,1.5724,1.5768,1.5768,1.5746,1.5691,1.5613,1.5794,1.6668,1.638,1.6249,1.7292,1.7307,1.7396,1.803,1.8262,1.8659,1.943,1.9775,2.0045,2.0274,2.0422,2.0582,2.0903,2.0646,2.0771,2.1527,2.0892,2.0485,2.0485,2.0839,2.1063,2.1063,2.1169,2.1316,2.1557,2.1913,2.208,2.2006,2.213,2.2161,2.2161,2.2408,2.2531,2.258,2.2787,2.2848,2.286,2.2739,2.272,2.272,2.272,2.272,2.272,2.272,2.2678,2.2616,2.2494,2.234,2.2197,2.2092,2.2061,2.2061,2.1968,2.1999,2.2061,2.2061,2.2123,2.2197,2.2197,2.2197,2.2197,2.2197,2.2197,2.2197,2.2197,2.2197,2.2197,2.2197,2.2089,2.1873,2.1476,2.1296,2.1007,2.0482,2.1498,2.1774,2.0209,2.054,2.1146,2.175,2.2853,2.3912,2.4859,2.5704,2.6538,2.7348,2.7394,2.7768,2.8574,2.86,2.8809,2.9293,2.9272,2.9455,2.9849,2.9763,2.9682,2.9626,2.9501,2.9409,1.6001,1.61,1.611,1.6253,1.6297,1.6253,1.6144,1.6249,1.6539,1.7207,1.7085,1.7123,1.7962,1.7975,1.7956,1.8227,1.8552,1.8904,1.9252,1.9533,1.9826,2.0026,2.031,2.0606,2.0836,2.0873,2.0967,2.119,2.0999,2.086,2.086,2.1221,2.1411,2.1411,2.1549,2.1769,2.2006,2.2359,2.2543,2.2635,2.2678,2.2769,2.2878,2.2878,2.2939,2.2987,2.2987,2.2987,2.3,2.2909,2.2878,2.2878,2.2878,2.2878,2.2878,2.2878,2.286,2.28,2.28,2.2616,2.2402,2.2309,2.2278,2.2278,2.2216,2.2197,2.2197,2.2197,2.2197,2.2197,2.2197,2.2197,2.2197,2.2197,2.2197,2.2197,2.2197,2.2197,2.2197,2.2197,2.2197,2.2101,2.1801,2.1753,2.156,2.1019,2.1958,2.2062,2.0238,2.064,2.1168,2.136,2.2171,2.3222,2.4609,2.5309,2.618,2.7322,2.7394,2.7768,2.8574,2.86,2.8809,2.9293,2.9304,2.9484,2.9857,2.9825,2.9774,2.9701,2.956,2.9471,1.6113,1.6166,1.621,1.634,1.6383,1.6306,1.6044,1.6331,1.6701,1.6857,1.6979,1.7245,1.7851,1.7954,1.7988,1.8073,1.8371,1.8658,1.8892,1.8963,1.9171,1.9593,2.0116,2.0473,2.0534,2.0996,2.1285,2.1328,2.1328,2.1316,2.1253,2.16,2.1776,2.1776,2.208,2.2309,2.2451,2.2616,2.2769,2.2909,2.28,2.2878,2.3108,2.3,2.2987,2.3108,2.3108,2.3108,2.3108,2.3108,2.3108,2.3108,2.3108,2.3108,2.3108,2.3108,2.3017,2.2939,2.2939,2.2848,2.2708,2.2512,2.2451,2.242,2.2278,2.2259,2.2247,2.2216,2.2259,2.2278,2.2278,2.2247,2.2247,2.2309,2.2247,2.2228,2.2247,2.2216,2.2197,2.2197,2.2197,2.2197,2.2197,2.2197,2.2041,2.1584,2.194,2.2097,2.1547,2.233,2.2685,2.2036,2.22,2.3028,2.4702,2.5035,2.5792,2.7295,2.7394,2.7768,2.8574,2.86,2.8815,2.9251,2.9283,2.9464,2.9763,2.9789,2.9773,2.9701,2.9589,2.9578,1.6001,1.6044,1.6066,1.621,1.6244,1.6166,1.5903,1.583,1.5875,1.6185,1.6024,1.6083,1.7033,1.7202,1.7379,1.7988,1.8371,1.8703,1.8959,1.9367,1.9678,1.9773,2.0399,2.0917,2.1182,2.1462,2.1726,2.1999,2.203,2.1894,2.162,2.1925,2.2142,2.2297,2.2328,2.2463,2.2659,2.2787,2.2878,2.2909,2.2987,2.3047,2.3108,2.3078,2.3078,2.3108,2.3108,2.3108,2.3108,2.3108,2.3108,2.3108,2.3108,2.3108,2.3108,2.3108,2.3078,2.3078,2.3078,2.3047,2.2987,2.2739,2.2647,2.2616,2.242,2.2494,2.2586,2.242,2.2494,2.2647,2.2757,2.2574,2.2451,2.2836,2.2543,2.229,2.2567,2.2414,2.2197,2.2197,2.2197,2.2197,2.2197,2.2197,2.2161,2.2065,2.2795,2.3144,2.2525,2.2591,2.2424,2.1828,2.3237,2.4173,2.4018,2.5227,2.6389,2.7328,2.7394,2.7768,2.8574,2.86,2.8731,2.906,2.9228,2.9415,2.9645,2.9805,2.9849,2.9782,2.9701,3.002,1.5935,1.5988,1.6044,1.6178,1.62,1.61,1.5758,1.5849,1.5973,1.582,1.5866,1.6058,1.6542,1.7458,1.8066,1.7774,1.8877,1.9508,1.8887,1.9123,1.9372,1.9372,1.9945,2.0514,2.093,2.1302,2.1732,2.2173,2.2197,2.2123,2.1956,2.2185,2.2389,2.2555,2.2604,2.2696,2.28,2.2939,2.306,2.315,2.3241,2.33,2.3348,2.3348,2.3318,2.3271,2.3271,2.3271,2.3241,2.3138,2.3168,2.3241,2.3138,2.3108,2.3108,2.3108,2.3108,2.3108,2.3108,2.3108,2.3078,2.2939,2.2848,2.2769,2.2616,2.2616,2.2678,2.2586,2.2616,2.2739,2.2878,2.2787,2.2726,2.3017,2.2866,2.2665,2.272,2.2555,2.2463,2.2463,2.2309,2.2197,2.2197,2.2197,2.2197,2.2197,2.3005,2.3517,2.3218,2.3576,2.35,2.259,2.3782,2.4704,2.483,2.5999,2.7268,2.8519,2.8592,2.8964,2.9804,2.9862,2.9973,3.0198,3.0435,3.0663,3.0912,3.1089,3.1187,3.1143,3.1108,3.1307,1.5891,1.5957,1.5979,1.6078,1.6198,1.6159,1.5614,1.6122,1.65,1.5801,1.6198,1.671,1.6818,1.809,1.8909,1.8295,1.9417,2.0043,1.9107,1.8938,1.8907,1.8907,1.9429,1.9997,2.0562,2.1121,2.1681,2.2211,2.2278,2.229,2.2259,2.2389,2.2555,2.2739,2.2848,2.2909,2.2939,2.3047,2.3168,2.333,2.3373,2.3463,2.3569,2.3599,2.3539,2.3433,2.3403,2.3403,2.3373,2.3168,2.3198,2.333,2.3168,2.3108,2.3108,2.3108,2.3108,2.3108,2.3108,2.3108,2.3108,2.3108,2.3017,2.2909,2.2769,2.2769,2.2769,2.2739,2.2769,2.283,2.3,2.3,2.2939,2.2987,2.3047,2.3017,2.2678,2.2598,2.2616,2.2708,2.2445,2.2216,2.234,2.2278,2.2216,2.234,2.3053,2.3636,2.3754,2.4465,2.4652,2.3689,2.4473,2.5171,2.5476,2.6702,2.8015,2.9322,2.9603,3.009,3.0957,3.0998,3.1074,3.1234,3.157,3.1837,3.2013,3.2307,3.2424,3.2397,3.2396,3.2508,1.5814,1.5814,1.5814,1.5836,1.6197,1.6311,1.5348,1.645,1.7379,1.6352,1.7106,1.8062,1.8495,1.8717,1.9263,2.054,1.9753,1.9272,2.013,1.9314,1.864,1.864,1.932,1.9997,2.0562,2.1209,2.1789,2.2353,2.2555,2.2586,2.2389,2.2586,2.2739,2.2878,2.2878,2.2969,2.3078,2.3078,2.3108,2.3138,2.33,2.3403,2.3433,2.3539,2.3599,2.3569,2.3463,2.3403,2.3373,2.3168,2.3108,2.3138,2.3108,2.3108,2.3108,2.3108,2.3108,2.3108,2.3108,2.3108,2.3108,2.3108,2.3078,2.3047,2.2909,2.2969,2.3047,2.2909,2.2969,2.3138,2.3437,2.3318,2.3017,2.28,2.2909,2.2927,2.2371,2.2259,2.2371,2.2787,2.2525,2.234,2.2757,2.2494,2.234,2.2757,2.3263,2.3754,2.4176,2.4679,2.4964,2.4856,2.5849,2.5973,2.4642,2.6847,2.8323,2.8412,2.9229,3.009,3.0957,3.0998,3.0998,3.1025,3.1594,3.1829,3.1742,3.2316,3.253,3.2397,3.2396,3.2866,1.558,1.5703,1.5792,1.5792,1.5881,1.6,1.6194,1.6682,1.7138,1.7303,1.7744,1.8164,1.8336,1.9341,2.0175,2.0359,0.0,0.0,2.1483,2.043,1.9729,1.9898,1.9434,1.9352,2.0057,2.0644,2.1395,2.2317,2.2665,2.2787,2.2696,2.28,2.2878,2.3017,2.315,2.3241,2.3271,2.336,2.345,2.3582,2.3671,2.373,2.3819,2.3878,2.3848,2.3789,2.37,2.3641,2.3509,2.336,2.3271,2.3271,2.3138,2.3108,2.3108,2.3108,2.3108,2.3108,2.3108,2.3108,2.3108,2.3108,2.3108,2.3078,2.3047,2.3047,2.3078,2.3047,2.3047,2.3168,2.3497,2.3658,2.3569,2.306,2.333,2.3569,2.3042,2.2818,2.2818,2.312,2.2678,2.2247,2.2463,2.2555,2.2665,2.2878,2.3531,2.4076,2.4292,2.4708,2.5005,2.5005,2.5905,2.6267,2.5662,2.7629,2.9119,2.9643,3.0567,3.1485,3.2405,3.2433,3.2433,3.2433,3.3044,3.3318,3.3272,3.3819,3.4086,3.4032,3.4073,3.4287,1.5535,1.5558,1.5603,1.5691,1.5964,1.6324,1.6776,1.7637,1.8416,1.8615,1.9139,1.9476,1.9248,2.0318,2.1204,0.0,0.0,2.2828,2.2724,2.1676,2.0827,2.0571,1.9699,1.9281,1.966,2.0463,2.1423,2.247,2.2818,2.2969,2.2969,2.2969,2.2987,2.3108,2.33,2.3403,2.3403,2.3539,2.3658,2.3819,2.3861,2.3949,2.4037,2.4083,2.4067,2.3949,2.392,2.3819,2.37,2.3522,2.3433,2.3403,2.3228,2.3138,2.3108,2.3108,2.3228,2.3395,2.3395,2.3395,2.3395,2.3395,2.3318,2.3198,2.3198,2.3138,2.3108,2.3168,2.3258,2.339,2.3628,2.3907,2.3966,2.3378,2.3658,2.3907,2.3492,2.3318,2.3335,2.3616,2.3,2.2543,2.2992,2.2975,2.3047,2.3488,2.3972,2.435,2.4494,2.4806,2.5005,2.5005,2.5574,2.6145,2.6572,2.833,2.9811,3.0756,3.1701,3.257,3.3364,3.3393,3.3452,3.3559,3.4056,3.4371,3.4449,3.4926,3.5145,3.5092,3.5193,3.5258,1.579,1.5311,1.5176,1.5446,1.6697,1.7653,1.6801,1.963,2.1977,2.0314,2.1569,2.271,2.1903,2.1774,2.2257,2.3733,0.0,0.0,2.3689,2.289,2.1611,2.0093,2.0194,2.0116,1.9465,2.0923,2.2177,2.2841,2.3017,2.3108,2.3108,2.3108,2.3108,2.3108,2.33,2.3403,2.3403,2.3539,2.3599,2.3599,2.3789,2.3891,2.392,2.4037,2.4083,2.4083,2.3949,2.3891,2.3891,2.37,2.3509,2.3403,2.3403,2.3271,2.3108,2.3108,2.3514,2.4102,2.4102,2.4102,2.4102,2.4102,2.3793,2.3403,2.3403,2.3271,2.3138,2.333,2.3641,2.3891,2.3891,2.4008,2.4024,2.3688,2.3704,2.3734,2.3463,2.3514,2.3725,2.4205,2.3543,2.3352,2.4825,2.3859,2.3412,2.4854,2.4625,2.4478,2.492,2.5005,2.5005,2.5005,2.5006,2.5582,2.6974,2.8817,3.0285,3.1223,3.2166,3.2912,3.3378,3.3393,3.3573,3.388,3.4232,3.4538,3.4804,3.5125,3.5223,3.5101,3.5231,3.5372,1.7518,1.7096,1.6712,1.7713,1.8216,1.8615,1.926,2.0225,2.1115,2.1493,2.2039,2.2375,2.2111,2.2001,2.241,2.3896,2.371,0.0,2.4956,2.3433,2.1975,2.1409,2.0229,1.9666,2.029,2.0945,2.1782,2.2816,2.3017,2.3108,2.3108,2.3241,2.33,2.33,2.345,2.3641,2.3878,2.3907,2.4041,2.4274,2.4203,2.4232,2.4361,2.4419,2.4447,2.4447,2.439,2.4303,2.416,2.4102,2.4015,2.3852,2.3628,2.3509,2.3407,2.3198,2.3514,2.4102,2.4102,2.4147,2.4234,2.4234,2.4205,2.4073,2.3645,2.3509,2.3437,2.3509,2.37,2.3891,2.3891,2.4008,2.4054,2.3793,2.3927,2.4118,2.4044,2.3721,2.3645,2.4205,2.3846,2.369,2.4486,2.45,2.4542,2.5022,2.4922,2.4821,2.4977,2.5005,2.5005,2.5005,2.5005,2.5575,2.699,2.8233,2.9629,3.1204,3.2166,3.2912,3.3378,3.362,3.3781,3.3893,3.4438,3.4784,3.4868,3.5208,3.5342,3.5316,3.5342,3.5412,0.0,1.8147,1.778,1.8708,1.915,1.9551,2.0357,2.1064,2.1688,2.2192,2.2513,2.26,2.2257,2.2032,2.2335,2.3751,2.3803,2.395,2.4755,2.3566,2.2257,2.1324,1.9806,1.9326,2.0519,2.0913,2.1597,2.2804,2.3017,2.3138,2.321,2.339,2.3522,2.3671,2.376,2.3923,2.4187,2.4245,2.439,2.4591,2.4478,2.4492,2.4591,2.4591,2.4591,2.4591,2.4591,2.452,0.0,2.4421,2.4334,2.4147,2.3956,2.3956,2.4047,2.3783,2.4266,2.4993,2.4951,2.4851,2.4766,2.4979,2.4851,2.4523,2.4218,2.391,2.3717,2.3717,2.3848,2.3979,2.3979,2.4083,2.4144,2.4015,2.4234,2.4478,2.4478,2.4218,2.4115,2.4478,2.4224,2.4155,2.4854,2.4867,2.4937,2.5329,2.5175,2.5005,2.5005,2.5005,2.5005,2.5005,2.5492,2.6355,2.777,2.8432,2.9716,3.1943,3.2634,3.316,3.3583,3.38,3.4025,3.427,3.469,3.4965,3.5122,3.5315,3.54,3.5435,3.54,3.5446,0.0,1.8742,1.8555,1.8902,1.9784,2.0568,2.0499,2.207,0.0,2.2502,2.292,2.3175,2.2369,2.198,2.2189,2.3407,2.3358,2.3225,2.3427,2.3209,2.2246,2.0073,1.9146,1.9156,2.0347,2.0876,2.1646,2.2834,2.3047,2.321,2.339,2.3569,2.3806,2.4112,2.4141,2.4216,2.4321,2.452,2.462,2.462,2.462,2.462,2.462,2.462,2.462,2.462,2.462,2.462,2.462,2.462,2.452,2.435,2.4321,2.4582,2.4924,2.4753,2.5467,2.6467,2.6363,2.5933,2.5563,2.6149,2.5591,2.4766,2.5048,2.4563,2.392,2.392,2.4008,2.4112,2.4112,2.4232,2.4321,2.4321,2.4565,2.4806,2.4863,2.4948,2.5033,2.5118,2.478,2.4823,2.5852,2.5161,2.4851,2.5879,2.5439,2.5033,2.5061,2.5033,2.5005,2.5005,2.6268,2.766,2.9083,2.9283,3.0508,3.3218,3.3393,3.3541,3.388,3.3925,3.4259,3.4884,3.493,3.513,3.5507,3.5434,3.5442,3.5515,3.5435,3.5453,2.2018,0.0,2.035,2.16,2.2119,2.2292,0.0,2.262,2.2919,2.2653,2.2719,2.2689,2.2352,2.2589,2.3032,2.3588,2.4194,2.4262,2.3256,2.1634,2.0134,1.9034,1.9281,1.988,2.0852,2.142,2.207,2.2997,2.3318,2.3509,2.3539,2.3927,2.4218,2.4408,2.4549,2.4635,2.4692,2.4635,2.4706,2.4892,2.4806,2.4806,2.492,2.492,2.492,2.492,2.492,2.492,2.492,2.492,2.4892,2.4793,2.4551,2.4781,2.5245,2.4838,2.5453,2.6469,2.6336,2.6256,2.6283,2.6537,2.5865,2.5118,2.6135,2.5328,2.4067,2.4067,2.4157,2.4247,2.4247,2.4392,2.4549,2.4664,2.475,2.4948,2.5536,2.5328,2.5315,2.6147,2.6359,2.6567,2.7159,2.673,2.6546,2.7323,2.6054,2.5188,2.5714,2.5314,2.5005,2.5005,2.6268,2.766,2.9083,3.0193,3.1553,3.328,3.3393,3.3541,3.388,3.4247,3.4586,3.4893,3.5189,3.5422,3.5573,3.556,3.556,3.5583,3.556,3.5528,2.3089,2.2389,2.1861,2.2681,2.2914,2.2944,2.2906,0.0,0.0,0.0,0.0,2.2685,2.2508,2.2253,2.2428,2.3616,2.3103,2.2464,2.2169,2.0193,1.894,1.9366,1.9535,2.0009,2.099,2.1588,2.2236,2.304,2.3407,2.3628,2.373,2.416,2.4465,2.4637,2.4806,2.4892,2.4892,2.4806,2.4863,2.5005,2.492,2.5018,2.5216,2.5061,2.5061,2.5216,2.5075,2.5005,2.5005,2.5005,2.5005,2.4977,2.4793,2.509,2.5619,2.5495,2.6,2.68,2.6878,2.693,2.6956,2.6774,2.627,2.592,2.6666,2.6013,2.4936,2.4666,2.4507,2.4421,2.4321,2.4478,2.4778,2.509,2.5244,2.5467,2.6136,2.6094,2.6092,2.6678,2.6649,2.6724,2.7323,2.6898,2.6611,2.696,2.6426,2.585,2.5591,2.6051,2.6314,2.6014,2.7794,2.9333,3.0109,3.1458,3.2671,3.362,3.3692,3.3924,3.4472,3.4751,3.4973,3.522,3.5402,3.5521,3.5598,3.5598,3.5596,3.5601,3.5608,3.5584,2.3383,2.318,2.297,2.2995,2.3028,2.3082,2.3057,0.0,0.0,0.0,0.0,0.0,2.2435,2.1772,2.1797,2.3325,2.1519,2.0164,2.081,1.9145,1.8399,1.9941,1.9816,2.0005,2.1002,2.1691,2.2365,2.313,2.3497,2.3776,2.3966,2.4363,2.4637,2.4835,2.4977,2.5075,2.5075,2.5075,2.5033,2.5005,2.509,2.5272,2.5494,2.5201,2.5216,2.5467,2.5159,2.5005,2.5005,2.5005,2.5005,2.5005,2.5005,2.537,2.5921,2.6109,2.6575,2.7148,2.7484,2.7534,2.7408,2.6982,2.6814,2.68,2.7019,2.6625,2.5999,2.5632,2.5217,2.485,2.4681,2.4865,2.5203,2.5646,2.5838,2.6069,2.6692,2.686,2.6953,2.7133,2.6768,2.6634,2.7268,2.6686,2.6199,2.6306,2.6675,2.6505,2.5314,2.6878,2.7842,2.7178,2.9612,3.1297,3.1297,3.2649,3.3666,3.4087,3.4033,3.4367,3.5198,3.5262,3.5398,3.565,3.557,3.5547,3.5614,3.5596,3.5602,3.5612,3.5606,3.5614,2.3656,2.3453,2.3265,2.3372,2.3424,2.3383,2.3277,0.0,0.0,0.0,0.0,0.0,0.0,2.2575,2.3568,2.2245,2.1714,2.114,2.0201,1.9152,1.8567,1.8844,1.9873,2.0714,2.1067,2.2083,2.2972,2.3467,2.3839,2.4131,2.4379,2.4736,2.4948,2.4977,2.5257,2.5411,2.5411,2.5411,2.5285,2.5005,2.5536,2.5661,2.5494,2.5439,2.5439,2.5467,2.5159,2.5005,2.5005,2.5005,2.5005,2.5005,2.5005,2.537,2.5866,2.5632,2.6215,2.7148,2.7484,2.7342,2.7071,2.7499,2.7357,2.7148,2.781,2.7251,2.6481,2.6872,2.6599,2.6203,2.6176,2.6269,2.6414,2.652,2.6203,2.6177,2.7159,2.7133,2.7185,2.8155,2.8407,2.8496,2.8591,2.767,2.7115,2.77,2.6857,2.6092,2.5863,2.7182,2.7842,2.7178,2.9612,3.1297,3.1297,3.2912,3.4089,3.4552,3.4214,3.4421,3.5324,3.5535,3.5697,3.5858,3.5678,3.5626,3.5674,3.5626,3.5631,3.5679,3.5637,3.5629,2.3831,2.3682,2.3544,2.3418,2.3289,2.3168,2.3107,2.338,0.0,0.0,0.0,0.0,2.1072,2.1543,2.1637,1.9832,2.0289,2.0711,2.0239,1.9115,1.8729,1.9768,2.0309,2.0742,2.1168,2.2292,2.3168,2.3569,2.3985,2.4292,2.4481,2.4821,2.5005,2.5005,2.5313,2.5494,2.5494,2.5935,2.5921,2.5481,2.5784,2.5921,2.5921,2.5619,2.5578,2.5688,0.0,2.5005,2.5005,2.5005,2.5005,2.5005,2.5005,2.5174,2.5411,2.5412,2.6027,2.693,2.7122,2.7291,2.7433,2.779,2.7765,2.766,2.8088,2.7835,2.7494,2.7795,2.7276,2.6587,2.6537,2.6587,2.6756,2.7067,2.7004,2.7097,2.7919,2.8027,2.8134,2.8661,2.8598,2.8583,2.8943,2.8255,2.775,2.8052,2.8216,2.7988,2.7238,2.9038,3.0121,2.9436,3.1207,3.2424,3.2424,3.3391,3.4302,3.5038,3.5072,3.5274,3.5705,3.5782,3.5838,3.5901,3.5736,3.5674,3.5702,3.5679,3.5678,3.5704,3.5673,3.5676,2.3986,2.3863,2.3682,2.3435,0.0,2.3105,2.3141,2.3641,0.0,0.0,0.0,2.3385,2.1211,2.0475,1.9882,1.8955,1.9583,2.0131,1.9999,1.9022,1.8921,2.0434,2.0518,2.0698,2.1341,2.2385,2.3238,2.3721,2.4102,2.4408,2.4609,2.485,2.5061,2.5202,2.5522,2.5757,2.588,2.6551,2.6604,2.5988,2.6138,2.6258,2.6377,2.5853,2.5702,2.5866,2.5258,2.5005,2.5005,2.5005,2.5005,2.5005,2.5005,2.4977,2.5005,2.5342,2.5742,2.6229,2.6771,2.7071,2.7291,2.77,2.7865,2.7915,2.7999,2.8122,2.8259,2.8372,2.7795,2.7108,2.6982,2.7071,2.7287,2.768,2.7755,2.7904,2.8525,2.8677,2.8764,2.8881,2.8583,2.8503,2.9006,2.8685,2.8377,2.8377,2.9398,2.9751,2.851,3.0669,3.2046,3.1368,3.2633,3.3622,3.384,3.414,3.4668,3.5489,3.5826,3.5996,3.5996,3.5948,3.5917,3.5917,3.5812,3.5759,3.5753,3.5713,3.5703,3.5702,3.5701,3.5702,2.418,2.3896,2.3617,2.3577,2.362,0.0,2.3881,2.4151,0.0,2.3923,0.0,2.3218,2.0956,2.035,2.0607,2.1857,2.117,2.006,1.8883,1.8958,1.9228,1.9471,2.0211,2.0955,2.1625,2.2375,2.3225,2.4166,2.4292,2.4494,2.4948,2.4977,2.5258,2.5811,2.6109,2.6469,2.6967,2.7357,2.7111,2.6297,2.6841,2.6959,2.6642,2.6111,2.5866,2.5866,2.5258,2.5005,2.5005,2.5005,2.5005,2.5005,2.5005,2.492,2.4892,2.5467,2.5175,2.4724,2.6467,2.6428,2.5769,2.6949,2.7424,2.754,2.754,2.7934,2.8387,2.8411,2.8444,2.8429,2.8299,2.8468,2.8636,2.8549,2.8189,2.8052,2.866,2.8462,2.8295,2.8811,2.8967,2.9029,2.9075,2.91,2.9131,2.9131,2.9748,2.9939,2.9212,3.0982,3.2042,3.1371,3.2897,3.4319,3.5185,3.5286,3.5493,3.5935,3.5976,3.5996,3.5996,3.5996,3.5996,3.5996,3.5924,3.5889,3.5887,3.5768,3.5693,3.5704,3.5693,3.5723,2.4257,2.4027,2.3785,2.3724,2.3739,0.0,0.0,2.4316,2.4535,2.3888,2.411,2.3836,2.1953,2.0748,2.027,2.1088,2.0787,2.0075,1.8989,1.9131,1.9368,1.9512,2.0287,2.1148,2.1928,2.2633,2.3631,2.4995,2.5176,2.5439,2.592,2.592,2.6001,2.6136,2.6404,2.6747,2.7097,2.76,2.769,2.7372,2.7423,2.7295,2.7011,2.6578,2.6218,2.5866,2.5467,2.5188,2.5005,2.5005,2.5005,2.5005,2.5005,2.492,2.4835,2.5061,2.5062,2.5091,2.5877,2.6361,2.6663,2.7246,2.7464,2.7565,2.7959,2.7959,2.7934,2.8405,2.8612,2.866,2.846,2.8604,2.8771,2.8636,2.8566,2.8583,2.8803,2.8779,2.8779,2.899,2.9445,2.9794,2.9794,3.0186,3.051,3.051,3.1085,3.1402,3.1155,3.2206,3.2894,3.2626,3.3374,3.4267,3.5197,3.5281,3.5472,3.5976,3.5996,3.5996,3.5996,3.5996,3.5996,3.5996,3.5975,3.5949,3.5895,3.5847,3.5771,3.5698,3.5736,3.5775,2.4284,2.4143,2.3937,2.3847,0.0,0.0,2.4327,2.4712,2.4893,2.4433,2.4237,2.3908,2.3037,2.128,2.0228,2.1063,2.0429,1.9677,1.9189,1.9303,1.9539,1.9772,2.0371,2.1185,2.2234,2.2656,2.3581,2.5336,2.558,2.5946,2.6611,2.6654,2.6718,2.6898,2.6927,2.7122,2.7519,2.7915,2.8143,2.8128,2.794,2.77,2.7437,2.7023,2.6563,2.6123,2.5771,2.5453,2.5159,2.5033,2.5005,2.5005,2.5005,2.5005,2.5018,2.4905,2.5132,2.5495,2.5632,2.6228,2.6964,2.7236,2.7414,2.7565,2.8048,2.8033,2.7944,2.8462,2.8692,2.8779,2.858,2.8708,2.885,2.874,2.8826,2.8967,2.8967,2.9052,2.9175,2.94,2.9843,3.0282,3.0512,3.1147,3.163,3.163,3.2198,3.2657,3.2657,3.3083,3.3478,3.3729,3.4011,3.4514,3.5312,3.5351,3.5507,3.5913,3.5933,3.5954,3.5996,3.5996,3.5996,3.5996,3.5996,3.5975,3.5926,3.5918,3.5849,3.5752,3.5798,3.5811,2.4284,2.4209,2.4074,2.3945,0.0,0.0,2.5519,2.5451,2.5383,2.5624,2.425,2.3214,2.393,2.1914,2.0676,2.2393,2.0407,1.8804,1.9342,1.9512,1.9772,2.0156,2.0398,2.1059,2.2471,2.2303,2.2985,2.5043,2.5272,2.5813,2.6935,2.696,2.7318,2.8179,2.776,2.7795,2.8396,2.8396,2.8411,2.8411,2.8411,2.8266,2.798,2.7367,2.6956,2.6669,2.6123,2.5743,2.5467,2.5159,2.5005,2.5005,2.5005,2.5216,2.5467,2.5131,2.5286,2.5702,2.5839,2.5988,2.6188,2.6718,2.7185,2.754,2.768,2.8131,2.8597,2.8597,2.8748,2.8897,2.8826,2.8944,2.9075,2.8943,2.899,2.9098,2.9098,2.9098,2.9341,3.0046,3.0198,3.0451,3.1183,3.1864,3.2312,3.2312,3.2921,3.3393,3.3393,3.3393,3.3692,3.4424,3.48,3.5224,3.5754,3.5674,3.5658,3.5784,3.5808,3.5854,3.5996,3.5996,3.5996,3.5996,3.5996,3.5996,3.5996,3.5927,3.5895,3.5893,3.5836,3.5846,2.4077,2.4086,2.4262,2.4647,2.4875,0.0,0.0,2.6165,0.0,0.0,2.368,2.3052,2.2506,2.1981,2.1472,2.0955,2.062,2.022,1.9611,1.9888,2.0245,2.0472,2.1066,2.1856,2.2791,2.3186,2.4028,2.5649,2.599,2.6359,2.6902,2.7633,2.8104,2.8284,2.842,2.8669,2.9029,2.8716,2.8541,2.8541,2.8444,2.8266,2.798,2.7625,2.7178,2.6669,2.6324,2.6015,2.5771,2.5674,2.5522,2.5341,2.5341,2.5411,2.5467,2.5131,2.509,2.5202,2.5258,2.5824,2.6546,2.6823,2.7236,2.773,2.8293,2.8301,2.8198,2.8685,2.885,2.892,2.8998,2.9068,2.9075,2.8943,2.899,2.9098,2.9098,2.9512,2.9935,3.0173,3.0995,3.1757,3.1969,3.2597,3.3065,3.3065,3.3253,3.3477,3.3657,3.368,3.3956,3.464,3.4885,3.5143,3.549,3.5605,3.5684,3.5732,3.5775,3.5821,3.5853,3.5954,3.5996,3.5996,3.5996,3.5996,3.5996,3.5975,3.595,3.5895,3.5936,3.5929,2.4192,2.4355,2.4642,2.5043,2.552,2.6153,2.7029,2.6735,2.583,2.4242,2.3441,2.2732,2.1793,2.1246,2.0815,2.0372,2.0452,2.0511,2.0337,2.0608,2.1004,2.1393,2.1913,2.2543,2.3285,2.3656,2.4462,2.5889,2.6302,2.6767,2.7345,2.7946,2.8329,2.8379,2.8421,2.8531,2.8699,2.8414,2.8349,2.8466,2.8342,2.8262,2.8226,2.8014,2.765,2.7178,2.6669,2.6177,2.5743,2.5866,2.5743,2.5494,2.5619,2.5716,2.5771,2.5355,2.5342,2.5467,2.5118,2.5837,2.6938,2.6964,2.7489,2.8229,2.8692,2.859,2.8376,2.8787,2.8943,2.899,2.9075,2.9098,2.9075,2.899,2.9257,2.954,2.954,3.0126,3.0714,3.0976,3.1704,3.2397,3.2695,3.3114,3.3393,3.3393,3.3488,3.3675,3.3956,3.4116,3.4357,3.4763,3.4966,3.517,3.5386,3.5491,3.5568,3.5627,3.5671,3.5719,3.5723,3.5872,3.5975,3.5996,3.5996,3.5996,3.5996,3.5996,3.5975,3.5948,3.5973,3.5971,2.4502,2.4883,2.5196,2.5359,2.639,2.7302,2.7046,2.7056,2.6623,2.4781,2.3494,2.2432,2.1515,2.0053,1.9326,2.0335,2.0082,2.0181,2.1342,2.1568,2.1922,2.268,2.2884,2.323,2.3924,2.3998,2.457,2.5894,2.6324,2.6934,2.7899,2.799,2.8155,2.844,2.8092,2.7872,2.7872,2.7833,2.7972,2.8286,2.809,2.8187,2.8482,2.8407,2.8217,2.7905,2.71,2.6326,2.5633,2.588,2.5825,2.5605,2.5839,2.6123,2.6297,2.5771,2.5866,2.6176,2.5425,2.6094,2.7272,2.7206,2.7929,2.8826,2.8897,2.8904,2.8904,2.8904,2.9013,2.9121,2.9175,2.9198,2.922,2.9273,2.9772,3.0219,3.0282,3.0856,3.1576,3.2176,3.2346,3.2613,3.3286,3.3393,3.3408,3.3437,3.3643,3.3931,3.4311,3.4603,3.4803,3.4822,3.5079,3.5277,3.538,3.5346,3.5379,3.5483,3.5572,3.5607,3.5616,3.5794,3.5923,3.5996,3.5996,3.5996,3.5996,3.5996,3.5996,3.5996,3.5996,3.5996,2.4869,2.525,2.5741,2.6757,2.7389,2.7621,2.7041,2.6439,2.5671,2.4628,2.3942,2.2862,2.0643,1.9989,1.9754,1.9671,2.0426,2.1323,2.2218,2.2546,2.2862,2.3346,2.3851,2.4302,2.4725,2.524,2.5659,2.5968,2.6352,2.6685,2.6905,2.767,2.8115,2.8167,2.8404,2.8503,2.8503,2.8141,2.801,2.8141,2.7628,2.7429,2.7512,2.792,2.7955,2.765,2.7269,2.6841,2.6445,2.6553,2.6406,2.6136,2.619,2.6443,2.6718,2.6297,2.6095,2.6106,2.6388,2.6718,2.7082,2.769,2.8343,2.8897,2.9029,2.9052,2.9052,2.9052,2.9075,2.9243,2.98,2.9956,3.011,3.0691,3.0508,3.0365,3.0951,3.1595,3.2143,3.2279,3.2777,3.3208,3.3364,3.3393,3.3477,3.368,3.3768,3.4019,3.4622,3.4753,3.4889,3.5098,3.5311,3.538,3.5247,3.5481,3.5565,3.5432,3.5587,3.5684,3.5681,3.5765,3.5851,3.5923,3.5923,3.5951,3.5996,3.5996,3.5996,3.5996,3.5996,3.5996,2.5818,2.6264,2.6702,2.7719,2.8072,2.8097,2.771,2.7272,2.6611,2.5404,2.3598,2.1679,1.989,1.937,1.9426,1.9971,2.0861,2.1961,2.3293,2.3612,2.3951,2.453,2.4934,2.5256,2.5465,2.5923,2.6226,2.633,2.6641,2.6875,2.6925,2.7415,2.772,2.772,2.7913,2.8049,2.8066,2.7824,2.7781,2.7937,2.7616,2.7344,2.7153,2.7551,2.7494,2.7111,2.7314,2.7152,2.6826,2.7,2.6907,2.6628,2.6938,2.7097,2.7126,2.6941,2.6909,2.6968,2.7001,2.7308,2.7744,2.8012,2.8527,2.9013,2.9075,2.9098,2.9098,2.9098,2.9348,2.9707,3.011,3.0451,3.0895,3.1613,3.1485,3.13,3.1686,3.233,3.2825,3.2825,3.3144,3.3393,3.3393,3.3502,3.3698,3.3994,3.4176,3.4456,3.4926,3.4991,3.5053,3.5231,3.5338,3.5366,3.5304,3.5513,3.5607,3.5496,3.562,3.5697,3.5703,3.5736,3.5795,3.5894,3.5896,3.5928,3.5946,3.5946,3.5946,3.5946,3.5946,3.5969,2.6916,2.7469,2.7816,2.8357,2.8461,2.8388,2.8255,2.8121,2.7613,2.6176,2.3492,2.111,2.0115,1.9547,1.9702,2.1211,2.1786,2.2691,2.4471,2.4784,2.5096,2.5872,2.6067,2.6155,2.6226,2.647,2.6674,2.6758,2.7069,2.7261,2.7299,2.7329,2.7345,2.7345,2.733,2.736,2.7436,2.7438,2.7542,2.7743,2.7588,2.7294,2.6924,2.718,2.7111,2.6787,2.7304,2.739,2.7174,2.7397,2.7316,2.7133,2.7675,2.7755,2.76,2.7705,2.7893,2.8042,2.7655,2.7975,2.8568,2.8352,2.8646,2.9098,2.9098,2.9175,2.9296,2.9296,2.9838,3.041,3.0516,3.1012,3.1649,3.233,3.2497,3.2497,3.2497,3.297,3.3393,3.3393,3.3452,3.3491,3.3545,3.3752,3.3994,3.4345,3.4632,3.4908,3.5176,3.5209,3.5242,3.5281,3.5304,3.534,3.5391,3.5528,3.561,3.5598,3.5656,3.5701,3.5707,3.5707,3.5754,3.5886,3.5875,3.589,3.5908,3.5908,3.5908,3.5908,3.5908,3.5942,2.7638,2.8371,2.8805,2.8561,2.8275,2.7968,2.7622,2.6987,2.6274,2.5558,2.5221,2.4646,2.318,2.2669,2.2816,2.3842,2.4017,2.4494,2.5869,2.6058,2.6301,2.6916,2.7013,2.7046,2.7114,2.7426,2.7459,2.7086,2.7502,2.7657,2.7313,2.7467,2.7557,2.7557,2.7454,2.7483,2.7657,2.7539,2.7502,2.7525,2.6993,2.6551,2.6145,2.6658,2.7094,2.7473,2.7262,2.7557,2.8186,2.7929,2.7815,2.7775,2.7874,2.81,2.8367,2.8606,2.8622,2.8576,2.9035,2.8927,2.8639,2.8881,2.9029,2.9098,2.9098,2.954,3.0046,3.0046,3.0573,3.1297,3.1864,3.2091,3.2347,3.3081,3.3253,3.3253,3.3253,3.3316,3.3393,3.3393,3.3578,3.3847,3.4135,3.4218,3.4345,3.4684,3.4773,3.4908,3.5176,3.5209,3.5242,3.5281,3.5355,3.5385,3.5398,3.5571,3.5656,3.5604,3.5656,3.5701,3.5707,3.5707,3.5742,3.581,3.5806,3.5841,3.5908,3.5908,3.5908,3.5908,3.5908,3.5939,2.8433,2.9018,2.9338,2.9103,2.8979,2.8847,2.8662,2.8391,2.7956,2.7195,2.739,2.6903,2.4274,2.3673,2.3967,2.5044,2.5196,2.5564,2.6652,2.6803,2.6965,2.7422,2.7485,2.75,2.7562,2.7698,2.7728,2.7562,2.7768,2.7811,2.7659,2.773,2.7774,2.7774,2.7716,2.7763,2.7922,2.7868,2.7766,2.7597,2.6954,2.6522,2.628,2.6255,2.6366,2.6598,2.6825,2.7287,2.7875,2.7741,2.7893,2.828,2.8693,2.885,2.8889,2.9432,2.9572,2.9534,2.9804,2.9572,2.918,2.9341,2.9243,2.9144,2.9335,2.9767,3.0236,3.0439,3.1145,3.1934,3.2228,3.2613,3.3001,3.3316,3.3393,3.3393,3.3393,3.3393,3.3433,3.3592,3.3845,3.4074,3.422,3.4364,3.4518,3.4663,3.4879,3.507,3.5239,3.5254,3.5308,3.5449,3.5496,3.5528,3.5565,3.5656,3.5698,3.5651,3.569,3.5702,3.5708,3.5742,3.5766,3.5801,3.5799,3.5811,3.5833,3.5833,3.5833,3.5833,3.5833,3.5886,2.914,2.9437,2.9533,2.9612,2.9599,2.9581,2.9612,2.964,2.9484,2.8838,2.9003,2.8457,2.5859,2.5147,2.5259,2.6234,2.6262,2.6452,2.7315,2.7415,2.7554,2.7886,2.7933,2.7933,2.7933,2.7975,2.7971,2.7911,2.801,2.8041,2.7911,2.7954,2.8,2.8,2.7971,2.8017,2.8164,2.8053,2.7893,2.7683,2.7117,2.6808,2.6691,2.6333,2.6131,2.6042,2.6481,2.6975,2.7505,2.7625,2.7983,2.8591,2.9329,2.9522,2.9454,3.0087,3.0316,3.0316,3.0316,3.013,2.9875,2.9788,2.9655,2.955,2.9799,3.0273,3.0777,3.1026,3.1828,3.258,3.258,3.2986,3.3393,3.3393,3.3393,3.3393,3.3393,3.3448,3.3583,3.3852,3.4123,3.4321,3.4367,3.4537,3.4674,3.4674,3.4963,3.5201,3.527,3.5293,3.5374,3.5585,3.5598,3.5622,3.5684,3.5704,3.5709,3.5695,3.5697,3.5703,3.5713,3.577,3.5793,3.5795,3.5797,3.5797,3.5795,3.5795,3.5803,3.5834,3.5834,3.5843,2.9673,2.9551,2.9418,2.987,2.9737,2.955,2.9665,2.9649,2.9597,2.9549,2.9452,2.9333,2.9152,2.824,2.7617,2.7931,2.7496,2.7332,2.7974,2.8043,2.8188,2.8505,2.8549,2.8484,2.83,2.8445,2.8388,2.794,2.8317,2.837,2.7926,2.8142,2.8286,2.8286,2.815,2.8178,2.8367,2.7933,2.7716,2.7701,2.7421,2.7283,2.725,2.7234,2.6992,2.6553,2.6386,2.6771,2.7528,2.7898,2.8271,2.8662,2.9337,2.981,3.0189,3.0547,3.0671,3.0671,3.0671,3.0651,3.0589,3.0274,3.0356,3.062,3.064,3.1353,3.2193,3.2211,3.2761,3.3349,3.3349,3.3364,3.3393,3.3393,3.3393,3.3393,3.3393,3.3606,3.3847,3.413,3.4394,3.4643,3.4831,3.4889,3.4879,3.4879,3.5011,3.5136,3.5201,3.5262,3.5374,3.5585,3.5598,3.5622,3.5684,3.5704,3.5695,3.5702,3.5707,3.5733,3.5799,3.5799,3.5793,3.5795,3.5795,3.5795,3.5795,3.5795,3.5838,3.5898,3.5898,3.5894,2.9761,2.9811,2.9813,3.0125,3.0194,3.022,3.0266,3.0336,3.0328,3.0207,2.9992,2.9814,2.9685,2.9148,2.8759,2.8854,2.8628,2.8487,2.8719,2.8731,2.8773,2.8846,2.8864,2.8822,2.8761,2.881,2.8761,2.85,2.8632,2.8625,2.8357,2.844,2.8497,2.8497,2.8445,2.8458,2.8523,2.8055,2.7844,2.7811,2.7465,2.7299,2.7299,2.717,2.7024,2.6842,2.6473,2.6596,2.7143,2.7267,2.792,2.8909,2.9428,2.9988,3.0568,3.0895,3.0875,3.0733,3.0952,3.0882,3.071,3.0811,3.094,3.114,3.1331,3.181,3.2329,3.2564,3.3003,3.3393,3.3393,3.3393,3.3437,3.3563,3.3591,3.3633,3.3766,3.3928,3.4111,3.4351,3.4564,3.474,3.482,3.483,3.4849,3.4898,3.4936,3.5063,3.5304,3.5311,3.5388,3.5639,3.5656,3.5662,3.5704,3.5701,3.5697,3.5707,3.5737,3.5766,3.5799,3.5797,3.5806,3.5795,3.5846,3.5861,3.5861,3.5861,3.5878,3.5894,3.5894,3.5894,2.9822,2.995,3.0059,3.0284,3.0455,3.0578,3.0618,3.0681,3.0694,3.0521,3.0325,3.0132,2.9992,2.9741,2.9504,2.9264,2.9158,2.9112,2.91,2.9089,2.9085,2.9005,2.9005,2.9005,2.9005,2.9005,2.897,2.8858,2.8876,2.8798,2.8675,2.8662,2.865,2.86,2.86,2.86,2.86,2.8224,2.8,2.7897,2.7554,2.7327,2.7233,2.7105,2.7007,2.6942,2.664,2.6578,2.67,2.6833,2.7509,2.8547,2.9291,2.9985,3.0557,3.1027,3.1052,3.0895,3.1131,3.114,3.1075,3.1304,3.1571,3.1863,3.2057,3.2382,3.2711,3.2939,3.3193,3.3408,3.3495,3.3549,3.3647,3.378,3.3807,3.3873,3.4061,3.4209,3.4328,3.4427,3.4634,3.4778,3.4747,3.4737,3.4759,3.484,3.4889,3.5009,3.5304,3.5311,3.5388,3.5639,3.5676,3.5687,3.5704,3.5706,3.5697,3.5707,3.5737,3.5785,3.5799,3.5795,3.5811,3.5838,3.5878,3.5905,3.5894,3.5905,3.5894,3.5902,3.5902,3.5916,0.0,0.0,0.0,3.0328,3.0458,3.0544,3.0674,3.066,3.0587,3.0529,3.0406,3.0292,3.0292,3.0197,2.9899,2.9225,2.9118,2.9115,2.9123,2.9112,2.9078,2.9028,2.9017,2.9017,2.9017,2.9017,2.9017,2.9005,2.9005,2.8959,2.881,2.8798,2.8737,2.86,2.86,2.86,2.86,2.8406,2.8174,2.7897,2.7686,2.7417,2.7103,2.7103,2.7023,2.6893,2.6893,2.6657,2.6345,2.6733,2.7102,2.7544,2.9007,2.9786,3.0192,3.092,3.121,3.121,3.121,3.1447,3.1732,3.1732,3.2213,3.2829,3.2829,3.3083,3.3393,3.3411,3.3408,3.3452,3.3675,3.3842,3.3998,3.4011,3.4011,3.4061,3.4269,3.4416,3.4461,3.4328,3.4561,3.4758,3.4634,3.4612,3.4655,3.4788,3.4869,3.4963,3.5185,3.5262,3.5367,3.5579,3.5591,3.5622,3.5698,3.5704,3.5695,3.5707,3.5707,3.5733,3.5799,3.5792,3.5826,3.5898,3.5894,3.5902,3.5903,3.5902,3.5904,3.5908,3.5908,3.5937,3.0079,0.0,0.0,0.0,0.0,0.0,3.0617,3.0603,3.0585,3.0584,3.0467,3.0343,3.026,3.0159,3.0014,2.9725,2.9671,2.9635,2.9561,2.9523,2.9493,2.9372,2.932,2.9289,2.9289,2.9304,2.9251,2.9145,2.9134,2.9096,2.8959,2.8846,2.8737,2.86,2.86,2.86,2.86,2.8406,2.8174,2.7897,2.7659,2.7371,2.7103,2.699,2.6925,2.6893,2.6792,2.6691,2.6607,2.6723,2.7126,2.7784,2.8779,2.9542,3.0192,3.092,3.1351,3.1564,3.1564,3.1968,3.2502,3.2502,3.2829,3.3223,3.3223,3.3301,3.3422,3.3577,3.3619,3.3657,3.3855,3.3959,3.4036,3.4185,3.4221,3.4269,3.4473,3.4539,3.455,3.4517,3.4583,3.4666,3.4718,3.4747,3.4809,3.4993,3.4955,3.4982,3.5246,3.5246,3.5285,3.5431,3.5463,3.5496,3.5616,3.5626,3.566,3.5702,3.5742,3.5761,3.5737,3.5819,3.585,3.575,3.5856,3.5879,3.5826,3.5879,3.5924,3.5967,3.5967,3.5988,3.0248,3.0328,3.0394,3.0408,0.0,0.0,3.0561,3.0585,3.0602,3.0602,3.0496,3.0373,3.0298,3.02,3.0125,3.0034,3.0026,2.9972,2.9806,2.9735,2.9672,2.9551,2.9474,2.9433,2.9402,2.9401,2.9378,2.9294,2.9283,2.9229,2.9096,2.8893,2.8761,2.8687,2.8625,2.86,2.86,2.8484,2.8309,2.8055,2.776,2.7461,2.7181,2.699,2.6859,2.6809,2.6742,2.6691,2.6691,2.6691,2.6945,2.7435,2.8197,2.9049,2.9943,3.0677,3.1363,3.195,3.195,3.2334,3.2795,3.2795,3.3083,3.3393,3.3393,3.3466,3.3549,3.3657,3.3815,3.3972,3.4099,3.4185,3.4281,3.4404,3.4439,3.4461,3.4561,3.4612,3.4612,3.4612,3.4645,3.4716,3.4788,3.481,3.4898,3.5075,3.5029,3.5046,3.5239,3.5215,3.5239,3.5355,3.5378,3.5444,3.5591,3.5639,3.566,3.5702,3.5747,3.5737,3.5708,3.5799,3.5811,3.5736,3.5862,3.5903,3.5838,3.5846,3.5883,3.5964,3.5968,3.5951,0.0,0.0,0.0,3.0441,3.0506,0.0,3.0529,3.0566,3.0591,3.0618,3.052,3.0411,3.0419,3.0299,3.0233,3.0213,3.0213,3.0142,2.9953,2.9806,2.9708,2.9626,2.9561,2.9502,2.9433,2.9423,2.9412,2.9419,2.9409,2.9357,2.92,2.8975,2.8834,2.8834,2.8687,2.8625,2.8637,2.8612,2.8497,2.83,2.7975,2.7654,2.7303,2.7055,2.6842,2.6691,2.6741,2.6725,2.6708,2.6775,2.6791,2.6843,2.7572,2.8545,2.9626,3.0387,3.1394,3.2368,3.2368,3.2568,3.2876,3.2876,3.3114,3.3393,3.3422,3.3549,3.3712,3.3753,3.4036,3.4316,3.4328,3.4461,3.4572,3.4591,3.4602,3.4602,3.4602,3.4602,3.4602,3.4602,3.4697,3.4798,3.4809,3.4879,3.4974,3.5092,3.511,3.5145,3.5209,3.5198,3.5231,3.5296,3.5357,3.5444,3.5591,3.5645,3.569,3.5702,3.5701,3.5692,3.5699,3.5753,3.5795,3.5782,3.5914,3.5934,3.5889,3.5827,3.583,3.5882,3.59,3.5908,3.0529,3.0572,3.0576,3.0559,3.0543,0.0,3.0645,3.0621,3.0624,3.0749,3.0659,3.0533,3.0479,3.0458,3.0425,3.0367,3.0368,3.0286,3.0095,2.994,2.9849,2.9771,2.9699,2.9626,2.9578,2.9551,2.9561,2.957,2.956,2.946,2.9211,2.9145,2.9089,2.9033,2.8858,2.8785,2.8846,2.8687,2.8497,2.83,2.8106,2.7779,2.7303,2.7197,2.6989,2.6708,2.6989,2.6956,2.6741,2.7289,2.7353,2.7187,2.7909,2.8898,2.999,3.0728,3.1716,3.2699,3.2699,3.2957,3.3286,3.3286,3.3334,3.3422,3.3591,3.3671,3.3766,3.4099,3.4316,3.4473,3.4528,3.4495,3.4461,3.4506,3.4517,3.4517,3.4517,3.4517,3.4517,3.4517,3.4666,3.4819,3.487,3.4983,3.5101,3.5168,3.5185,3.519,3.5278,3.5285,3.5304,3.5364,3.5391,3.5444,3.5591,3.561,3.5639,3.569,3.5692,3.5697,3.5701,3.576,3.5773,3.5722,3.5761,3.5756,3.5737,3.5822,3.585,3.5829,3.5872,3.5908,3.0628,3.0642,3.0652,3.0643,3.0614,0.0,0.0,3.0666,3.0661,3.0744,3.0672,3.0594,3.0558,3.0513,3.0496,3.0465,3.0417,3.0354,3.026,3.0123,3.0003,2.9866,2.9813,2.9761,2.9654,2.9709,2.9718,2.9608,2.9579,2.9471,2.9304,2.9275,2.9225,2.9197,2.8964,2.887,2.8905,2.87,2.8549,2.8445,2.8215,2.7946,2.7692,2.7352,2.7101,2.6956,2.7133,2.7101,2.6989,2.7489,2.7683,2.7672,2.7908,2.8673,2.9738,3.0535,3.1517,3.2559,3.2955,3.3298,3.3549,3.3549,3.3619,3.3712,3.3815,3.3921,3.4061,3.4351,3.4495,3.4539,3.4539,3.4495,3.445,3.445,3.4484,3.4495,3.4495,3.4528,3.4539,3.4539,3.4676,3.4819,3.4841,3.4992,3.5127,3.5193,3.5223,3.5262,3.53,3.5326,3.535,3.5391,3.547,3.5522,3.5598,3.5628,3.5662,3.5706,3.5706,3.5706,3.5706,3.5722,3.5763,3.5801,3.5723,3.5723,3.5801,3.5834,3.5819,3.5803,3.5822,3.5859,3.0672,3.0728,3.0718,3.0713,3.072,3.0703,0.0,0.0,0.0,3.0744,3.0691,3.0643,3.063,3.0571,3.0536,3.0518,3.0462,3.0433,3.0427,3.0337,3.0173,2.9988,2.9961,2.9894,2.9742,2.9849,2.987,2.9673,2.9608,2.954,2.945,2.9363,2.9341,2.9304,2.9067,2.8929,2.8905,2.87,2.86,2.8587,2.8326,2.8156,2.8088,2.7607,2.7353,2.7307,2.7352,2.7336,2.7322,2.7698,2.7954,2.8088,2.7855,2.8433,2.95,3.0345,3.1329,3.2377,3.3219,3.3615,3.3766,3.3766,3.3895,3.4061,3.4061,3.4197,3.4404,3.4591,3.4612,3.4591,3.4561,3.4517,3.4473,3.4439,3.4461,3.4495,3.4495,3.4539,3.4572,3.4572,3.4666,3.4749,3.4782,3.4974,3.5127,3.5193,3.5254,3.5304,3.5352,3.5416,3.5444,3.5457,3.5547,3.5616,3.5616,3.5681,3.5695,3.5697,3.5701,3.5695,3.5697,3.5704,3.5747,3.5859,3.5765,3.5775,3.5884,3.5834,3.5808,3.5808,3.5806,3.5795,3.0566,3.0827,3.0792,3.0794,3.0732,3.0715,3.0777,0.0,3.081,3.0879,0.0,3.0855,3.0798,0.0,0.0,3.0597,3.0586,3.0559,3.0504,3.0483,3.039,3.0185,3.0174,3.0095,2.9897,2.9999,3.0026,2.9878,2.987,2.9763,2.958,2.9513,2.9414,2.9293,2.9167,2.9021,2.8905,2.87,2.86,2.86,2.8562,2.8396,2.8102,2.8034,2.7883,2.7672,2.788,2.7851,2.7701,2.8251,2.8344,2.8102,2.8075,2.8739,2.9849,3.0857,3.1738,3.2614,3.3592,3.3947,3.3972,3.3972,3.4099,3.4269,3.4269,3.4416,3.4602,3.4747,3.4645,3.4539,3.4708,3.4602,3.4409,3.4484,3.4495,3.4495,3.4495,3.4506,3.4506,3.4506,3.4517,3.4583,3.4778,3.4965,3.5127,3.5193,3.5254,3.536,3.5541,3.556,3.561,3.5662,3.5673,3.5698,3.5698,3.5704,3.5709,3.569,3.5709,3.5709,3.569,3.5702,3.5713,3.5727,3.577,3.5799,3.5812,3.5806,3.5791,3.5791,3.5795,3.5795,3.0531,3.0349,3.0014,3.0605,3.0256,2.994,3.0597,3.0739,3.0756,3.0788,0.0,0.0,0.0,0.0,0.0,0.0,3.0656,3.0621,3.0577,3.0559,3.0465,3.0235,3.0235,3.0215,3.0138,3.015,3.0113,3.0011,2.994,2.9805,2.9617,2.9664,2.9608,2.9472,2.9341,2.9246,2.9192,2.891,2.8773,2.8773,2.8662,2.8518,2.8378,2.8201,2.8034,2.794,2.8047,2.8034,2.7968,2.8427,2.8582,2.857,2.857,2.8851,2.9393,3.0356,3.1256,3.2096,3.3,3.3704,3.4197,3.4305,3.4416,3.4495,3.458,3.4645,3.4747,3.484,3.4769,3.4676,3.4737,3.4612,3.4461,3.445,3.4473,3.4495,3.4495,3.4528,3.455,3.455,3.455,3.4572,3.4666,3.4859,3.5019,3.5185,3.5281,3.5423,3.5585,3.5628,3.5681,3.5704,3.5704,3.5704,3.5704,3.5704,3.5704,3.5704,3.5701,3.5692,3.5692,3.5698,3.5723,3.5766,3.5794,3.5808,3.5801,3.5791,3.5795,3.5795,3.5795,3.5795,2.9791,2.9599,2.9339,3.0245,2.9977,2.9703,3.0507,3.0693,3.0693,3.0693,3.0742,0.0,0.0,0.0,3.074,0.0,0.0,3.0645,3.0637,3.0618,3.0516,3.0314,3.031,3.0336,3.0349,3.0286,3.0226,3.0152,3.0049,2.9897,2.9689,2.9763,2.9728,2.954,2.9443,2.9361,2.9249,2.9014,2.8863,2.8822,2.8675,2.86,2.8587,2.8352,2.8242,2.8242,2.8242,2.8242,2.8255,2.8569,2.8773,2.8917,2.9003,2.9037,2.914,3.005,3.0927,3.1809,3.2678,3.3594,3.4397,3.4602,3.4655,3.4676,3.479,3.4819,3.4819,3.4879,3.483,3.4747,3.4737,3.4634,3.4517,3.4473,3.4495,3.4528,3.4528,3.458,3.4612,3.4645,3.4655,3.4666,3.4678,3.4811,3.4964,3.5124,3.5262,3.5437,3.5585,3.5639,3.5687,3.5704,3.5679,3.5679,3.5704,3.5679,3.5679,3.5695,3.5697,3.5713,3.5728,3.5728,3.5747,3.5788,3.5793,3.5797,3.5795,3.5795,3.5795,3.5795,3.5795,3.5795,2.79,2.8628,2.9065,2.9762,3.0193,3.049,3.0658,3.0691,3.0691,3.0691,3.0691,3.0691,3.0691,0.0,0.0,0.0,0.0,0.0,0.0,3.0642,3.0565,3.0496,3.0422,3.0422,3.0493,3.0439,3.0374,3.0312,3.0219,3.0094,2.9897,2.9832,2.9673,2.9412,2.9402,2.9228,2.8929,2.8917,2.881,2.8612,2.86,2.86,2.86,2.8587,2.8587,2.8587,2.8587,2.8587,2.86,2.881,2.8893,2.8922,2.9267,2.9392,2.9485,3.0288,3.1137,3.2034,3.3026,3.3915,3.4623,3.4758,3.4788,3.4809,3.487,3.4859,3.4819,3.4879,3.4761,3.4634,3.4768,3.4687,3.4602,3.4583,3.4602,3.4602,3.4602,3.4602,3.4645,3.4768,3.4788,3.48,3.4879,3.4908,3.4926,3.4999,3.5187,3.5374,3.5579,3.5598,3.5622,3.5679,3.5643,3.5637,3.5684,3.5643,3.5629,3.5702,3.5707,3.5733,3.5799,3.5799,3.5793,3.5795,3.5795,3.5795,3.5795,3.5795,3.5795,3.5795,3.5795,3.5795,0.0,2.7324,2.7246,2.8633,2.8642,2.8662,2.9996,3.0376,3.0433,3.0433,3.0545,3.06,3.0452,0.0,0.0,0.0,0.0,0.0,0.0,3.0653,3.0634,3.057,3.0554,3.0516,3.0505,3.0431,3.0392,3.0374,3.0253,3.0164,3.0094,3.003,2.9926,2.9735,2.9691,2.9589,2.9431,2.9174,2.9,2.8932,2.8706,2.86,2.86,2.86,2.86,2.86,2.86,2.8675,2.881,2.8863,2.9026,2.9246,2.9361,2.9472,2.9626,2.9888,3.0911,3.239,3.3874,3.4574,3.4811,3.485,3.4879,3.4898,3.4992,3.4955,3.4898,3.5001,3.4879,3.4747,3.4788,3.4768,3.4737,3.4737,3.4737,3.4739,3.4791,3.4769,3.4749,3.4859,3.4879,3.487,3.4898,3.4964,3.5056,3.5132,3.5239,3.5367,3.5579,3.5598,3.5616,3.5631,3.5648,3.5668,3.5637,3.5648,3.569,3.5707,3.5703,3.5728,3.5799,3.5797,3.5806,3.5795,3.5795,3.5795,3.5795,3.5801,3.5801,3.5795,3.5801,3.5801,2.6317,2.6179,0.0,2.7495,2.7605,2.7763,2.9202,2.9688,2.9835,2.9835,3.0074,3.014,2.9703,3.0074,0.0,0.0,0.0,0.0,0.0,3.0671,3.0691,3.0672,3.0642,3.0604,3.054,3.0465,3.0425,3.0402,3.0318,3.0233,3.0176,3.0157,3.0053,2.9897,2.988,2.9823,2.9701,2.9345,2.9137,2.9071,2.8749,2.86,2.86,2.86,2.86,2.86,2.8675,2.8785,2.8917,2.9026,2.9214,2.9412,2.9491,2.9598,2.9738,2.9738,3.0837,3.2571,3.4302,3.4908,3.4917,3.4955,3.4964,3.4992,3.5075,3.5011,3.4917,3.4983,3.4868,3.4737,3.4737,3.4768,3.4798,3.4798,3.4819,3.4849,3.4898,3.4879,3.4859,3.4945,3.4964,3.4973,3.501,3.5082,3.5134,3.516,3.5215,3.5315,3.5469,3.5515,3.5541,3.5565,3.5608,3.562,3.5601,3.566,3.5716,3.5733,3.5704,3.5737,3.5799,3.5801,3.5922,3.6215,3.5942,3.5946,3.6229,3.5944,3.5793,3.5795,3.5793,3.5793]}]]